GFSWCAN_con_mucape_000.txt.gz
CAPE
61 21 22 75 95 91 138 122 107 86 89 69 76 83 90 72 60 35 0 11 5 0 0 0 0 0 0 0 0 0 7 53 29 46 37 21 0 20 58 0 12 23 112 40 88 72 184 169 183 149 27 6 28 36
50 75 50 66 72 106 119 114 105 98 79 56 78 81 77 61 59 56 0 2 45 0 0 0 0 0 0 0 0 0 6 48 29 34 30 30 198 55 240 131 4 65 147 77 21 25 99 237 175 111 58 25 20 49
56 83 106 93 88 87 86 72 97 105 72 52 58 102 63 76 65 37 3 0 0 0 0 0 0 0 0 0 0 0 12 22 21 15 35 29 97 56 145 189 135 176 77 39 29 54 125 184 180 135 125 92 78 74
50 58 46 39 61 64 65 81 73 69 47 58 57 73 68 78 77 55 19 0 0 0 0 0 0 0 0 0 0 0 3 15 4 0 19 4 35 22 63 79 151 93 85 51 6 31 42 87 90 91 76 84 46 53
43 55 73 9 63 50 46 70 86 69 39 44 65 52 52 73 85 30 17 0 0 0 0 0 0 0 0 0 0 0 2 28 4 2 0 5 12 38 24 153 236 190 141 0 3 5 17 3 15 44 53 3 7 2
63 67 82 53 68 55 70 66 76 51 43 42 73 81 65 68 46 0 0 0 0 0 46 0 0 0 0 0 0 0 0 24 40 24 0 12 12 11 116 115 43 236 63 128 0 0 1 25 28 35 1 0 0 0
85 107 74 56 70 72 77 69 60 42 33 51 67 52 55 59 11 0 0 0 6 4 0 0 1 6 0 0 0 0 0 0 6 0 2 0 21 23 60 41 64 112 67 37 32 39 39 67 43 16 0 0 0 0
93 94 52 51 36 42 59 45 34 34 40 32 46 44 52 63 15 0 7 5 5 7 0 1 16 5 0 0 0 0 0 0 0 0 0 0 24 82 57 34 85 35 26 22 33 7 1 2 30 23 8 0 0 0
85 49 45 47 49 56 43 35 27 24 13 19 23 12 0 0 0 10 17 23 9 0 0 12 36 2 1 0 0 0 0 0 0 7 4 0 0 77 4 19 49 31 9 33 52 27 46 37 14 4 1 0 0 0
54 42 45 49 56 47 40 26 23 27 25 4 0 0 0 25 20 19 0 0 0 0 0 30 8 37 12 41 39 3 0 0 39 40 24 15 16 52 68 30 30 18 33 65 56 0 0 0 0 0 0 0 0 0
29 43 59 69 43 33 24 22 26 26 0 0 0 1 8 21 3 0 4 0 1 0 21 17 25 41 37 30 29 0 6 1 50 42 59 94 27 24 3 13 11 11 0 0 0 0 0 0 0 0 0 0 0 0
68 77 80 53 49 47 42 51 36 10 0 2 1 0 1 0 0 0 0 3 0 0 24 45 36 15 40 40 18 24 20 13 36 38 44 86 28 1 0 0 0 0 0 0 0 0 0 0 0 0 0 0 0 0
78 56 56 63 64 51 47 22 16 0 0 0 1 0 0 0 9 4 22 28 17 34 14 27 18 1 47 31 27 43 20 34 33 68 66 57 12 23 2 0 0 0 0 0 0 0 0 0 0 0 0 0 0 0
54 51 62 42 31 16 0 0 0 0 6 27 7 1 0 15 17 33 35 34 33 46 15 34 46 18 32 34 37 4 10 47 27 51 0 8 39 16 9 2 4 4 0 0 0 0 0 0 0 0 0 0 0 0
29 28 18 2 0 0 0 0 1 0 3 0 0 0 0 13 19 30 40 36 18 32 17 23 35 27 31 0 8 16 40 49 71 95 46 14 25 1 8 1 0 0 0 0 0 0 0 0 0 0 0 0 0 0
0 0 0 0 0 0 0 0 0 4 6 6 7 7 10 2 3 20 20 14 9 16 14 8 16 26 33 20 41 8 15 3 32 74 55 27 12 5 2 0 0 0 0 0 0 0 0 0 0 0 0 0 0 0
0 0 0 0 0 0 0 0 0 0 0 9 10 14 6 5 2 12 36 7 0 2 19 11 0 0 1 38 32 53 49 30 29 21 18 13 9 0 0 0 0 0 0 0 0 0 0 0 0 0 0 4 5 15
0 0 0 0 0 0 5 0 0 0 0 2 1 3 4 0 0 0 4 9 1 5 0 0 4 4 8 11 27 18 1 15 0 0 26 11 0 0 0 0 8 17 15 11 11 3 3 0 0 3 0 0 0 4
0 0 0 0 0 0 0 0 0 0 0 1 5 4 0 0 0 0 0 0 0 0 0 0 0 8 3 2 0 0 0 0 0 0 3 11 14 9 17 11 7 15 12 15 13 9 3 1 0 0 2 0 0 0
0 0 0 0 0 0 0 0 0 0 0 0 0 0 0 0 0 0 0 0 0 0 0 3 9 5 0 0 0 0 0 0 0 0 12 33 30 33 27 16 11 10 14 10 7 7 4 0 0 0 0 0 0 0
0 0 0 0 0 0 0 0 0 0 0 0 0 0 0 0 0 0 0 0 0 0 2 28 18 21 4 0 0 0 4 2 1 4 18 14 11 12 10 8 9 17 15 3 4 1 0 0 0 0 0 0 0 0
0 0 0 0 0 0 0 0 0 0 0 0 0 0 0 0 0 0 0 0 0 0 0 0 0 0 0 4 7 19 20 15 9 13 16 10 0 0 2 3 2 1 0 0 0 0 0 0 0 0 0 0 0 0
0 0 0 0 0 0 0 0 0 0 0 0 0 0 0 0 0 0 0 2 1 14 28 24 25 22 24 28 26 30 33 39 38 36 40 40 4 0 0 2 5 3 0 0 0 0 0 0 0 0 0 0 1 2
0 0 0 0 0 0 0 0 0 0 0 0 0 0 0 0 1 0 14 3 0 9 17 13 16 26 28 38 46 30 24 24 13 8 38 25 13 13 6 0 0 0 0 0 0 0 0 0 0 0 0 0 0 0
0 0 0 0 0 0 0 0 0 0 0 0 0 2 4 2 1 6 10 28 21 17 26 20 19 10 30 23 6 8 29 11 0 0 0 3 4 2 0 0 0 0 0 0 0 0 0 0 0 0 0 0 0 0
25 23 16 6 1 0 0 0 0 0 0 0 0 0 1 3 9 5 13 20 36 27 30 31 19 10 2 0 0 0 0 0 0 0 0 0 0 0 0 0 0 0 0 0 0 0 0 0 0 0 0 0 0 0
19 34 21 7 3 0 2 0 2 0 0 8 14 2 0 9 15 26 24 20 17 26 25 8 0 0 0 0 0 0 0 0 0 0 0 0 0 0 0 0 0 0 0 0 0 0 0 0 0 0 0 0 0 0
9 17 24 12 0 0 0 0 0 0 0 8 11 8 4 15 34 27 17 6 11 22 5 1 3 1 0 0 0 0 0 0 0 0 0 0 0 0 0 0 0 0 0 0 0 0 0 0 0 0 0 0 0 4
16 16 14 4 4 3 0 0 0 0 0 0 0 1 10 10 17 25 16 12 6 4 4 0 0 0 0 0 0 0 0 0 0 0 0 0 0 0 0 0 0 0 0 0 0 0 0 0 0 0 0 0 0 1
11 4 4 14 9 8 7 1 0 0 2 2 0 0 0 3 11 13 13 7 0 0 0 0 0 0 0 0 0 0 0 0 0 0 0 0 0 0 0 0 0 0 0 0 0 1 0 0 0 0 0 0 0 0
11 3 10 23 11 2 12 21 3 0 1 0 1 0 0 0 2 0 1 0 4 2 0 0 0 0 0 0 0 0 0 0 0 0 0 0 0 0 0 0 0 0 0 0 0 0 0 0 0 0 0 0 0 0
35 5 0 7 10 16 33 58 11 2 4 8 43 0 0 3 0 0 0 0 0 0 0 0 0 0 0 0 0 0 0 0 0 0 0 0 0 0 0 0 0 0 0 0 0 0 0 0 0 0 0 0 0 0
44 71 27 33 28 118 113 26 10 15 6 12 15 0 0 0 0 0 66 0 0 0 0 0 1 1 0 0 0 0 0 0 0 0 0 0 0 0 0 0 0 0 0 0 0 0 0 0 0 0 0 0 0 0

GFSWCAN_con_mucape_003.txt.gz
CAPE
54 50 55 56 62 49 39 92 123 115 113 117 100 69 84 88 113 71 67 16 51 0 0 0 0 0 0 0 0 0 0 0 41 197 119 102 39 58 252 384 313 281 240 298 456 366 165 62 189 283 179 31 44 65
42 48 50 52 72 44 75 103 104 112 116 136 118 66 44 47 89 103 68 21 76 0 0 0 0 0 0 0 0 0 0 16 18 19 18 40 231 152 372 259 191 220 130 144 270 264 24 66 250 140 163 147 125 207
66 65 54 57 57 17 36 102 95 116 122 113 72 45 45 48 47 71 33 0 0 0 0 0 0 0 0 0 0 0 0 34 74 31 35 44 129 115 605 520 128 338 298 160 75 92 4 109 120 167 156 130 167 257
80 76 66 62 61 26 39 72 80 101 75 43 43 61 31 31 38 54 82 24 18 0 0 0 0 0 0 0 0 0 23 41 37 52 65 57 46 37 119 378 514 115 62 178 348 35 41 33 70 73 91 93 93 50
107 95 65 67 77 24 59 59 101 88 34 30 40 51 42 54 59 134 68 0 0 0 0 0 0 0 0 1 0 0 22 37 20 21 31 35 13 31 25 143 154 109 228 347 123 50 63 43 30 75 61 50 54 62
218 183 161 110 53 72 76 74 87 54 23 41 45 62 44 50 51 3 0 3 6 2 0 0 3 12 11 7 0 0 40 31 8 10 0 0 0 9 251 44 20 70 55 50 30 17 5 38 80 33 28 0 0 0
79 123 68 46 57 47 50 58 55 30 24 36 49 53 54 64 20 1 0 0 1 5 0 24 37 26 12 0 0 0 0 21 18 30 6 1 0 36 48 46 41 36 56 45 14 49 31 54 43 7 2 0 0 0
53 48 50 52 61 62 50 50 43 30 27 21 30 31 27 43 17 0 0 0 3 0 14 21 29 26 9 3 2 0 0 4 1 5 18 17 19 64 44 20 20 22 27 9 0 3 9 54 57 28 6 4 0 0
35 28 38 53 69 48 38 33 39 27 7 10 15 3 0 0 0 0 22 20 6 0 35 21 12 71 14 5 0 0 0 0 0 69 46 2 2 41 28 29 15 4 15 32 27 5 11 18 5 10 0 20 6 9
14 9 38 90 74 59 57 31 29 32 11 0 0 0 4 12 0 6 51 2 0 23 26 13 4 8 12 24 17 2 1 5 180 60 54 52 0 0 2 11 11 14 7 2 0 0 23 20 27 3 3 14 7 0
72 80 77 46 58 55 54 49 40 11 0 2 0 11 0 0 0 1 23 8 0 13 9 10 19 34 39 62 58 2 23 15 119 121 81 14 0 0 0 0 0 0 0 0 3 4 0 0 0 0 0 0 0 0
51 53 62 58 52 30 26 27 19 0 14 0 0 0 0 0 0 0 0 0 0 4 2 12 25 34 10 19 13 18 16 10 70 80 149 9 50 58 29 1 4 4 0 1 0 0 0 0 0 0 0 0 0 0
36 36 30 30 5 1 4 0 0 0 0 0 0 0 0 0 18 30 181 136 120 82 36 9 2 0 63 14 25 48 57 74 61 136 66 102 110 18 26 14 0 0 0 0 0 0 0 0 0 0 0 0 0 0
10 2 0 0 0 0 0 0 0 1 9 0 17 16 4 28 32 43 50 41 44 86 40 22 1 13 13 18 14 60 49 83 119 1 24 85 89 34 31 5 0 0 0 0 0 0 0 0 0 0 0 0 0 0
0 0 0 0 0 0 0 1 0 1 4 0 0 0 9 7 35 43 64 39 21 20 10 40 18 29 31 74 86 27 74 92 110 0 5 104 79 50 49 37 13 7 0 0 0 0 0 0 0 0 0 0 0 0
0 0 0 0 0 0 0 0 4 13 19 4 0 1 0 14 20 14 22 24 7 5 42 2 0 1 3 99 100 65 70 13 51 100 79 58 73 75 88 52 22 2 0 0 0 0 3 9 2 0 0 2 6 6
0 0 0 0 0 0 0 0 3 0 0 7 14 12 0 1 1 3 0 3 7 4 37 44 36 0 5 70 95 120 2 1 35 99 67 43 83 57 29 15 6 5 8 3 3 18 32 19 2 12 30 19 10 12
0 0 0 0 0 0 0 0 0 0 0 4 3 4 2 0 0 0 0 1 3 12 22 28 14 47 50 31 36 14 83 58 24 84 144 86 18 24 20 16 21 32 36 32 28 29 44 66 58 31 34 27 20 36
0 0 0 0 0 0 0 0 0 0 0 0 0 0 0 0 0 0 0 0 0 0 0 12 14 14 35 53 67 80 109 115 87 46 35 7 10 99 121 99 65 75 16 18 26 22 23 23 9 3 8 19 25 15
0 0 0 0 0 0 0 0 0 0 0 0 0 0 0 0 0 0 0 0 0 0 19 25 42 63 86 31 0 7 14 4 42 68 46 88 38 101 71 44 29 21 31 31 19 11 10 10 0 0 0 0 2 0
0 0 0 0 0 0 0 0 0 0 3 0 0 0 0 0 0 0 0 0 0 0 23 17 27 0 0 0 0 0 1 0 34 121 97 120 10 5 0 0 2 13 19 16 9 0 0 0 0 0 0 0 0 0
0 0 0 0 0 0 0 0 0 0 0 0 0 0 1 1 2 0 0 0 0 0 0 3 4 14 30 35 32 23 15 9 93 91 46 12 29 0 1 0 2 3 6 1 0 0 0 0 0 0 0 0 0 0
0 0 0 0 0 0 0 0 0 0 0 0 0 0 1 0 0 0 0 16 44 27 40 43 40 39 33 54 187 216 156 237 358 382 243 162 7 2 5 4 4 1 0 0 0 0 0 0 0 0 0 0 0 0
0 0 0 0 0 0 0 1 0 1 5 8 7 1 0 0 1 3 21 19 87 30 108 122 267 629 574 260 168 93 58 108 22 28 73 12 3 5 2 0 0 0 0 0 0 0 0 0 0 0 0 0 0 4
0 0 0 0 0 0 3 1 1 1 0 0 0 0 0 0 14 85 89 188 146 157 167 130 173 188 102 3 0 0 0 0 0 0 17 0 0 0 0 0 0 0 0 0 0 0 0 0 0 0 0 0 0 0
9 7 3 3 0 1 0 3 8 20 11 2 1 1 2 4 32 64 181 147 154 96 111 103 8 0 0 0 0 0 0 0 0 0 0 0 0 0 0 0 0 0 0 0 0 0 0 0 0 0 0 0 0 0
7 14 18 0 0 0 0 0 0 0 1 8 16 14 13 37 62 160 187 52 39 31 11 11 12 6 1 0 0 0 0 0 0 0 0 0 0 0 0 0 0 0 0 0 0 0 0 0 0 0 0 0 0 0
6 12 6 1 0 0 0 0 0 0 0 0 0 3 28 50 26 8 3 10 12 3 2 2 1 0 0 0 0 0 0 0 0 0 0 0 0 0 0 0 0 0 0 0 0 0 0 0 0 0 0 0 0 8
12 7 2 0 1 0 0 0 0 0 0 0 0 0 0 1 6 2 0 0 0 0 0 3 0 0 0 0 0 0 0 0 0 0 0 0 0 0 0 0 0 0 0 0 0 1 3 3 0 0 0 0 0 0
14 3 2 5 4 28 23 3 0 0 0 0 0 0 0 0 3 4 7 14 13 6 0 0 0 0 0 0 0 0 0 0 0 0 0 0 0 0 0 0 0 0 0 0 0 0 0 0 0 0 0 0 0 0
44 27 37 22 98 16 38 122 9 0 0 1 0 0 0 0 0 1 3 10 0 1 1 0 0 0 0 0 0 0 0 0 0 0 0 0 0 0 0 0 0 0 0 0 0 0 0 0 0 0 0 0 0 0
83 142 182 157 281 262 149 64 108 3 55 6 7 0 0 0 0 0 70 0 0 0 0 0 0 0 0 0 0 0 0 0 0 0 0 0 0 0 0 0 0 0 0 0 0 0 0 0 0 0 0 0 0 0
18 103 137 123 173 169 160 148 210 44 25 9 13 20 3 4 11 107 20 8 0 0 0 0 0 0 0 0 0 0 0 0 0 0 0 0 0 0 0 0 0 0 0 0 0 0 0 0 0 0 0 0 0 0

GFSWCAN_con_mucape_006.txt.gz
CAPE
92 90 96 85 70 68 65 84 103 106 118 117 128 127 116 81 53 71 42 62 37 0 0 0 0 0 1 26 10 1 0 1 51 256 199 120 130 115 98 266 638 539 484 251 450 507 424 217 491 617 688 542 486 369
77 102 127 125 116 86 70 37 92 117 111 113 103 113 72 40 20 39 32 200 263 6 0 0 0 2 0 0 0 0 0 25 57 66 219 225 444 271 149 190 526 479 319 353 431 348 376 229 265 443 624 686 630 663
100 113 210 178 107 108 80 34 69 96 117 105 83 68 55 30 22 49 45 128 55 4 0 3 1 0 0 0 0 0 0 25 69 28 41 62 173 447 597 653 435 576 597 687 686 404 182 165 177 350 544 628 567 553
44 75 212 223 163 85 92 70 67 73 114 38 21 37 44 33 16 13 55 80 65 0 0 0 0 0 0 0 0 0 0 21 76 74 75 80 208 193 473 868 1007 372 615 598 413 290 134 95 98 54 119 328 449 459
36 44 79 71 59 54 64 73 80 71 23 11 14 28 29 30 38 99 122 71 86 71 0 0 0 0 0 0 0 0 6 105 73 66 71 90 53 63 269 567 107 113 468 626 231 255 157 0 7 2 4 34 67 137
50 65 65 65 50 48 64 79 72 39 18 35 21 43 27 0 18 68 38 23 44 49 0 0 0 0 23 10 3 0 0 30 41 45 47 53 24 46 286 96 30 110 204 71 271 67 103 25 14 16 11 8 0 16
43 28 60 66 94 74 72 65 42 16 15 36 32 41 32 37 52 57 0 0 3 50 0 15 49 92 58 32 12 0 0 0 0 0 0 3 6 93 88 58 13 37 82 26 2 10 20 25 34 1 12 0 0 0
0 5 23 44 49 46 33 39 42 18 3 2 11 24 31 26 28 0 0 0 0 0 43 42 47 172 85 136 63 9 0 1 0 0 0 10 9 19 32 22 21 19 50 63 33 9 24 29 2 0 0 0 2 0
33 29 40 62 64 66 53 41 39 29 17 6 1 0 12 14 0 25 4 12 7 22 42 5 21 116 124 89 87 16 8 0 0 14 151 100 4 13 3 7 20 22 56 54 29 16 0 17 2 5 24 3 9 0
46 53 58 57 61 56 61 58 45 29 7 0 3 41 47 51 0 9 25 1 6 4 13 24 41 68 34 192 100 92 55 0 0 182 149 0 0 1 34 8 3 4 28 9 0 17 5 0 0 12 27 0 0 0
41 34 34 32 28 32 30 22 1 0 4 13 18 21 35 0 48 46 3 4 7 28 49 49 50 53 80 202 224 166 136 104 0 132 101 0 0 0 0 3 2 18 4 14 12 0 0 0 2 1 0 6 8 8
23 7 0 2 0 0 0 3 0 0 0 11 0 0 0 45 38 15 59 8 4 75 95 116 19 26 38 60 198 189 117 116 65 169 110 0 0 0 0 0 0 0 0 0 0 0 1 0 0 0 0 0 0 0
0 0 0 0 0 0 0 0 0 0 0 0 0 0 2 22 21 91 113 168 138 147 187 175 115 12 159 107 167 204 128 159 118 128 64 49 87 2 0 26 62 55 44 17 0 2 0 0 0 0 0 1 0 0
0 0 0 0 0 0 0 3 0 0 0 0 0 0 0 59 8 74 140 255 272 290 326 268 239 187 172 114 108 123 180 179 125 0 34 86 145 24 39 17 0 4 6 6 0 0 0 1 0 3 12 5 11 15
0 0 0 0 0 0 0 0 5 0 0 0 0 2 1 5 38 112 180 249 226 206 320 289 132 87 140 167 123 125 116 85 29 2 85 322 218 183 128 140 128 114 76 48 11 15 10 8 8 7 29 51 42 49
0 0 0 0 0 0 0 0 0 0 1 0 0 24 60 55 89 86 109 233 179 205 328 150 32 34 158 159 80 115 51 0 50 0 119 308 297 214 244 214 206 187 115 56 27 30 14 12 30 30 27 29 53 95
0 0 0 0 0 0 0 0 2 3 31 34 69 90 95 76 57 22 36 70 80 299 237 120 138 144 163 88 0 10 0 0 69 143 260 340 252 283 316 248 205 193 177 174 116 74 100 43 24 31 32 29 20 35
0 0 0 0 0 0 0 0 0 15 29 27 25 13 22 44 38 45 37 36 71 163 211 151 93 43 54 0 0 69 17 128 199 381 358 311 340 322 270 294 301 284 233 181 140 72 59 53 17 13 16 24 17 8
0 0 0 0 1 2 0 0 0 4 7 7 2 6 6 15 21 22 45 35 16 43 91 46 60 81 106 125 132 217 192 255 317 238 242 346 393 317 391 357 309 208 119 28 4 16 20 17 16 17 16 25 32 32
0 0 0 0 0 3 0 1 0 0 0 0 2 0 11 6 3 4 11 50 91 46 35 32 66 70 68 48 52 119 170 234 382 258 309 428 154 189 116 47 16 2 1 0 0 0 0 0 0 0 0 3 4 16
0 0 0 0 0 0 0 0 6 2 5 4 3 3 24 17 19 11 9 4 6 15 16 29 30 42 102 93 36 37 197 265 378 370 242 12 5 3 0 0 0 0 0 0 0 0 0 0 0 0 0 0 0 0
0 0 0 0 0 0 0 0 2 6 9 11 7 14 16 20 57 48 54 83 111 132 92 167 261 317 301 387 442 384 388 337 246 250 82 67 9 0 0 0 0 0 0 0 0 0 0 0 0 0 0 0 0 0
0 0 0 0 0 0 0 0 0 0 0 19 19 6 0 1 0 0 0 43 36 104 48 213 353 372 547 505 455 352 232 191 402 508 463 285 0 0 0 0 0 0 0 0 0 0 0 0 0 0 0 0 0 0
0 0 0 0 0 0 0 0 0 0 0 0 0 0 0 22 28 16 46 119 410 615 682 448 785 464 125 94 0 0 0 0 2 26 7 0 4 0 0 0 0 0 0 0 0 0 0 0 0 0 0 0 1 4
0 0 0 0 0 0 8 49 10 24 69 70 108 123 160 37 76 114 140 262 799 734 401 194 5 0 1 3 0 0 0 0 0 0 0 0 0 1 5 1 0 0 0 0 0 0 0 0 0 0 0 0 0 0
1 0 6 15 44 31 80 160 171 125 108 153 141 165 162 166 38 65 135 259 224 75 9 0 0 0 0 0 0 0 0 0 0 0 0 0 0 0 2 6 6 3 0 0 0 0 0 0 0 0 0 0 0 0
28 247 68 0 0 0 103 94 50 128 151 160 193 212 80 28 48 74 13 6 2 0 0 0 0 0 0 0 0 0 0 0 0 0 0 0 0 0 0 0 0 0 0 0 0 6 0 0 0 18 28 36 40 46
52 53 212 262 25 0 88 140 56 40 26 120 81 83 78 60 0 0 0 1 0 0 0 0 0 0 0 0 0 0 0 0 0 0 0 2 1 0 0 0 5 0 6 0 0 1 0 0 0 0 0 0 0 22
215 234 123 390 176 117 209 124 31 15 10 66 64 34 0 0 1 2 1 4 0 0 0 0 0 0 0 0 0 0 0 0 0 0 0 0 0 0 0 0 0 0 0 0 0 0 0 0 0 0 0 0 0 0
350 227 296 283 251 266 385 313 54 1 0 0 0 0 0 0 0 0 0 0 0 0 0 0 0 0 0 0 0 0 0 0 0 0 0 0 0 0 0 0 0 0 0 0 0 0 0 0 0 0 0 0 0 0
426 394 281 288 275 303 313 8 1 0 0 2 0 0 1 0 0 25 2 0 0 0 0 0 0 0 0 0 0 0 0 0 0 0 0 0 0 0 0 0 0 0 0 0 0 0 0 0 0 0 0 0 0 0
280 274 333 86 218 510 381 150 127 0 3 2 0 14 25 62 66 69 0 0 0 0 0 0 0 0 0 0 0 0 0 0 0 0 0 0 0 0 0 0 0 0 0 0 0 0 0 0 0 0 0 0 0 0
77 32 28 15 15 6 202 268 230 126 53 48 70 79 58 79 69 75 0 0 0 0 0 0 0 0 0 0 0 0 0 0 0 0 0 0 0 0 0 0 0 0 0 0 0 0 0 0 0 0 0 0 0 0

GFSWCAN_con_mucape_009.txt.gz
CAPE
53 71 78 92 125 144 127 106 89 64 128 164 151 146 152 157 90 174 234 299 55 3 1 31 31 55 0 17 0 5 51 2 0 6 46 0 0 1 44 82 94 4 63 47 232 217 254 674 648 611 1205 1033 1090 1057
54 54 46 85 118 129 88 85 79 35 99 119 138 110 128 58 42 40 146 154 39 0 7 23 28 29 30 39 23 3 14 6 27 140 171 93 197 214 116 82 102 120 35 92 242 529 1269 917 791 908 905 1046 1033 1055
49 58 64 85 97 113 44 67 79 88 83 115 85 54 47 70 52 95 31 229 67 20 30 18 27 37 1 0 0 0 11 23 13 27 0 0 73 276 296 143 117 195 180 627 1086 925 794 910 831 926 1068 1047 1003 1098
45 40 66 73 71 44 31 49 67 73 103 50 28 23 35 47 47 56 178 123 58 60 38 18 46 14 0 0 0 0 11 10 1 32 0 0 0 84 135 76 824 43 256 840 1159 868 831 677 699 769 1002 1049 1048 1358
37 36 33 65 77 54 54 67 78 50 23 20 31 35 46 30 36 52 81 181 132 19 0 3 0 1 0 0 0 0 0 0 21 36 0 47 63 2 123 89 6 0 171 633 600 798 703 184 118 343 399 483 586 808
12 16 48 72 75 54 30 42 34 15 2 11 36 42 23 42 34 118 109 93 83 150 74 0 26 83 205 0 0 0 0 39 30 44 49 65 33 42 149 81 26 0 30 424 323 314 48 0 32 99 61 16 2 25
20 32 47 62 68 69 52 46 39 21 3 0 0 5 20 29 31 110 63 19 2 44 0 0 19 189 404 46 19 46 18 2 0 0 7 50 27 73 44 59 50 74 114 252 99 2 0 0 10 9 3 0 0 0
35 50 59 55 54 40 57 54 55 36 20 3 0 0 9 19 0 10 16 2 6 16 44 28 15 376 255 238 179 93 22 0 0 0 0 3 6 74 36 10 13 26 57 55 21 77 33 22 29 21 10 3 5 0
19 21 28 24 24 22 27 25 21 9 5 0 0 0 5 12 4 128 0 10 0 24 16 19 3 42 227 95 76 50 41 45 5 0 94 0 0 9 2 0 10 61 73 48 33 44 48 50 29 30 0 0 0 0
8 0 0 0 5 6 7 0 0 0 0 0 1 34 113 64 0 26 73 0 4 12 15 1 48 77 108 164 50 13 13 0 0 53 0 1 0 5 5 12 29 49 111 84 53 20 2 0 6 7 0 0 0 0
0 0 0 0 0 4 2 5 0 0 1 17 15 37 60 0 45 68 21 15 10 8 21 75 157 254 89 139 69 102 89 9 0 0 43 0 0 5 53 42 34 73 48 84 1 0 0 0 0 0 0 0 0 0
0 0 0 0 0 0 0 0 0 9 0 0 0 0 1 32 57 6 48 27 30 5 14 75 168 55 22 54 159 132 39 0 7 43 0 0 0 0 8 14 13 10 12 8 4 0 0 0 90 64 35 39 17 12
0 0 0 0 0 0 0 0 0 0 0 0 18 7 10 82 88 2 48 81 89 181 269 160 175 91 141 99 20 28 57 20 66 9 0 0 0 8 0 55 66 38 0 0 0 5 12 23 48 65 50 36 20 42
0 0 0 0 0 0 0 0 0 0 11 9 0 11 16 28 57 178 215 270 378 380 271 347 239 206 170 125 223 3 0 28 4 0 0 0 0 7 89 62 37 41 65 51 28 12 10 19 20 53 42 49 32 79
0 0 0 0 0 0 0 0 0 4 0 0 0 0 7 39 100 176 208 327 222 252 411 258 161 129 145 146 181 94 36 0 2 0 0 6 99 59 51 51 63 66 54 49 20 11 10 22 32 34 49 31 66 101
0 0 0 0 0 0 0 0 20 16 33 19 22 33 140 199 158 105 186 216 255 383 360 125 139 125 106 59 23 0 0 0 7 44 82 106 132 64 65 104 125 105 53 38 22 27 26 30 45 48 35 29 13 46
0 0 0 0 0 0 0 1 70 54 97 40 53 41 38 57 164 255 241 227 331 332 240 156 125 81 43 27 0 1 0 0 0 4 225 80 190 150 129 141 159 134 145 110 66 65 88 51 34 39 24 6 27 6
0 0 0 0 0 0 0 0 40 31 31 40 54 63 90 104 174 238 208 266 327 393 257 183 141 88 77 0 0 21 15 63 137 191 360 418 287 239 430 293 168 193 186 107 76 152 163 101 54 43 56 46 83 41
0 0 0 0 0 0 0 0 16 39 42 43 63 60 50 118 164 137 164 221 177 136 135 143 52 67 143 156 252 287 463 525 545 643 649 416 390 361 311 309 259 144 39 46 49 51 44 33 46 43 32 44 49 48
0 0 0 0 0 9 4 1 8 16 31 41 51 55 63 83 111 144 102 90 82 54 34 12 34 65 81 300 355 429 727 685 622 481 189 359 157 47 47 33 32 49 42 32 7 0 12 7 2 1 0 0 5 8
0 0 0 0 1 1 10 10 27 9 25 44 49 43 51 169 193 190 308 206 147 136 124 259 392 415 342 483 552 490 465 421 514 401 253 4 5 16 15 10 9 6 9 5 0 0 0 0 0 0 0 0 0 0
0 0 0 0 5 5 25 19 15 20 13 28 89 51 24 40 91 106 204 176 98 224 312 578 830 758 656 499 567 339 458 421 434 342 149 141 163 88 22 4 2 2 2 0 0 0 0 0 0 0 0 0 0 0
0 0 2 1 2 1 17 36 26 19 32 36 62 26 29 90 62 39 15 124 182 146 664 555 405 397 236 58 60 0 80 127 56 58 42 45 27 17 18 14 12 7 5 6 4 2 1 0 0 0 0 0 0 3
0 0 0 0 47 61 130 203 168 178 119 96 144 167 191 279 304 213 106 155 379 571 358 368 64 95 50 168 3 0 0 0 1 17 6 1 15 34 16 15 16 16 5 3 4 2 1 0 0 1 2 0 0 0
0 0 165 29 201 234 154 150 176 144 116 199 195 206 250 284 94 89 82 286 305 58 33 36 25 13 6 3 0 0 0 0 0 0 0 0 0 3 10 14 3 5 0 3 7 0 0 0 0 0 0 0 0 0
18 210 46 240 240 225 170 105 117 157 154 139 122 216 321 242 78 71 36 26 0 17 13 15 0 0 0 0 0 0 0 0 0 0 0 0 0 0 0 1 1 2 0 4 0 0 0 0 0 0 0 0 4 5
106 287 579 379 207 258 371 356 324 221 126 157 176 191 73 51 0 0 0 2 2 0 0 0 0 0 0 0 0 0 0 0 0 0 0 7 7 0 0 0 0 0 4 0 0 0 0 0 0 0 0 0 4 8
421 540 464 563 540 387 388 259 102 102 131 233 146 87 7 0 0 0 0 0 0 0 0 0 0 0 0 0 0 0 0 0 0 0 0 1 5 5 0 0 0 0 0 0 0 0 0 0 0 0 0 0 0 7
495 553 608 525 456 322 380 361 183 194 96 157 194 8 2 0 0 0 0 0 0 0 1 0 1 2 0 0 0 0 0 0 0 0 0 0 0 0 0 0 0 0 0 0 0 0 0 0 0 0 0 0 3 14
312 440 423 355 432 374 366 222 201 65 0 0 0 0 1 0 0 17 44 36 14 11 18 15 5 0 0 0 0 0 1 0 0 0 0 0 0 0 0 0 0 0 0 0 0 0 0 0 0 9 6 0 0 0
154 109 127 386 320 328 155 73 51 15 6 6 13 4 5 9 66 59 11 18 21 17 2 0 0 0 0 0 0 0 0 0 0 0 0 0 0 0 0 0 0 0 0 0 0 0 0 0 0 0 0 0 0 0
80 70 66 54 275 460 292 173 69 33 29 40 41 32 32 74 57 0 4 1 0 2 0 0 0 0 0 0 0 0 0 0 0 0 0 0 0 0 0 0 0 0 0 0 0 0 0 0 0 0 0 0 0 0
56 56 39 35 44 33 258 543 337 154 27 59 108 74 55 71 38 24 24 6 0 0 1 2 0 0 0 0 0 0 0 0 0 0 0 0 0 0 0 0 0 0 0 0 0 0 0 0 0 0 0 0 0 0

GFSWCAN_con_mucape_012.txt.gz
CAPE
35 46 63 67 82 96 89 61 60 58 55 46 163 129 161 147 186 251 230 378 57 11 8 10 12 68 35 23 1 10 8 101 10 0 0 0 0 0 2 73 100 17 0 39 369 336 202 454 205 155 1077 865 774 683
31 47 57 69 82 87 94 66 43 57 68 56 75 102 79 83 49 47 224 446 228 70 1 0 1 41 8 10 33 28 0 7 76 0 72 0 0 0 4 11 19 42 11 7 40 34 715 1114 1253 1018 925 883 934 828
27 42 50 62 70 82 79 82 81 57 58 49 24 11 18 22 51 70 263 355 138 1 5 23 47 66 27 11 0 0 0 6 3 104 54 43 15 224 124 53 235 138 155 150 146 489 1068 821 624 819 876 1126 1212 1906
26 9 22 56 77 75 76 88 79 75 38 26 20 15 19 26 17 23 161 148 112 26 29 0 4 25 8 26 0 0 0 3 33 54 0 0 90 23 6 11 117 231 169 464 242 1460 1142 1038 1101 1077 1159 1617 1771 1513
18 20 25 45 70 74 33 35 47 23 10 0 13 23 27 14 40 14 122 65 68 0 0 0 0 2 9 0 3 0 0 3 4 3 44 0 165 69 91 77 28 22 85 199 1066 769 1275 612 697 689 648 754 860 1061
20 28 35 47 59 73 49 53 43 24 11 0 0 0 0 18 66 54 52 212 237 89 70 1 0 12 74 3 0 2 0 1 0 34 0 9 89 3 1 12 67 36 194 375 63 48 128 91 76 111 228 288 283 523
7 8 12 21 25 33 37 40 35 18 16 0 0 0 0 15 10 94 45 22 1 32 46 0 1 51 63 0 12 29 3 16 24 29 0 9 102 18 48 0 0 0 5 10 10 13 0 0 6 0 16 105 138 174
0 0 0 0 1 5 11 8 3 0 0 0 0 0 0 0 0 5 16 3 0 0 1 0 2 1 148 29 75 78 50 22 34 0 2 31 80 57 0 11 56 0 0 27 2 0 39 20 42 2 0 0 0 0
0 0 0 0 0 0 3 0 0 2 2 0 0 0 0 0 1 114 0 0 0 1 12 11 0 91 8 94 105 46 31 0 64 0 4 5 8 0 6 23 30 58 0 31 60 47 29 44 57 3 1 2 0 0
0 0 0 0 0 0 0 0 0 0 0 0 0 27 95 131 2 2 0 0 1 1 0 0 0 0 2 8 21 7 22 26 0 0 0 0 0 0 0 6 55 58 82 53 49 48 69 35 30 19 14 24 25 5
0 0 0 0 0 0 0 0 0 0 0 13 12 11 1 0 59 0 0 0 0 0 3 26 113 173 131 105 136 98 72 86 2 0 1 0 0 0 0 24 62 98 109 166 106 116 58 23 35 2 8 2 3 0
0 0 0 0 0 0 0 0 0 0 0 0 0 0 1 22 39 0 0 0 0 4 13 42 141 60 50 74 16 0 42 16 0 0 0 0 0 0 0 14 35 16 47 66 19 22 1 3 0 0 0 0 0 21
0 0 0 0 0 0 0 0 0 0 0 4 21 27 29 46 0 23 0 26 50 7 131 265 100 8 29 34 2 0 0 0 30 0 0 0 0 0 61 0 1 1 4 11 3 0 30 11 17 37 22 14 46 43
0 0 0 0 0 0 0 0 0 0 0 10 0 31 1 9 22 28 155 275 183 48 58 97 487 28 7 0 10 0 2 63 6 0 0 0 0 65 84 79 55 36 79 56 29 27 68 100 15 45 78 80 135 116
0 0 0 0 0 0 0 0 0 0 11 6 20 164 96 148 265 257 170 47 170 163 228 173 160 99 90 69 118 0 0 0 0 0 0 0 61 123 131 94 111 72 63 84 65 55 55 45 15 61 60 48 87 191
0 0 0 0 0 0 0 0 16 100 143 177 103 87 105 101 93 149 161 207 425 225 88 88 32 8 0 0 0 0 0 0 0 0 18 100 98 98 103 114 193 148 114 127 102 146 122 143 96 99 53 89 89 150
0 0 0 0 0 0 0 4 66 30 24 29 52 82 82 115 101 97 168 277 259 379 174 14 34 5 0 0 0 10 0 0 2 0 0 0 2 82 126 58 88 157 191 207 173 173 119 170 94 156 223 91 43 110
0 0 0 0 0 0 7 0 64 23 22 62 88 110 111 126 178 163 130 79 101 253 245 44 22 0 0 0 0 0 10 71 72 82 115 164 193 296 237 187 448 413 295 113 75 241 114 124 38 14 113 120 38 35
0 0 0 0 0 0 3 0 18 23 41 55 84 186 134 201 244 333 269 155 390 121 100 29 19 65 99 218 283 243 355 486 393 461 327 219 468 184 351 342 357 236 167 172 80 42 57 102 14 0 0 0 1 23
0 0 0 0 0 20 13 7 24 23 32 39 54 104 166 194 263 195 144 283 111 90 83 102 239 399 470 654 763 699 750 559 347 298 286 577 99 257 309 212 143 400 88 113 17 0 7 0 0 0 0 0 0 0
0 0 0 0 20 28 30 21 26 13 15 24 152 185 193 147 181 222 401 137 63 136 297 527 649 739 312 618 307 564 743 319 709 635 331 104 75 64 27 24 38 14 10 0 0 0 0 0 0 0 0 0 0 0
0 0 0 4 40 21 38 37 19 16 15 127 99 130 48 36 34 18 77 13 46 251 314 333 549 58 82 112 50 112 348 522 319 68 74 70 56 38 33 25 22 13 12 6 5 4 2 0 0 0 0 0 0 2
0 0 11 35 39 19 158 256 192 110 71 89 299 112 125 116 86 2 0 54 148 555 396 527 634 559 293 248 28 0 3 49 46 22 14 2 12 35 30 31 25 16 8 4 4 2 1 0 0 0 4 2 2 5
0 0 14 182 332 161 318 283 244 296 308 293 276 210 251 281 341 134 105 106 308 425 96 239 97 54 50 52 2 0 0 0 0 0 0 0 0 14 7 7 5 0 0 2 1 1 0 1 0 3 6 7 7 6
1 0 203 20 611 278 148 159 164 138 171 143 156 266 413 460 56 36 44 68 31 27 31 34 26 39 0 0 0 0 0 0 0 1 6 3 0 0 0 3 0 0 0 0 0 0 0 0 0 0 0 0 0 0
48 417 69 144 238 161 200 70 132 241 183 103 190 301 117 328 18 0 0 0 0 0 20 10 0 0 0 0 0 0 0 0 0 0 0 13 1 0 0 0 0 0 0 0 0 0 0 0 0 0 0 0 0 0
127 333 629 674 538 337 461 338 205 182 173 223 429 290 182 26 0 0 0 0 0 16 23 18 7 0 3 0 0 0 0 0 0 0 0 8 0 0 0 0 0 0 0 0 0 0 0 0 0 0 0 0 0 0
692 796 38 0 354 62 3 136 173 177 185 220 317 147 14 5 3 0 0 4 9 9 0 11 12 8 0 0 0 0 0 0 0 0 0 0 0 0 0 0 0 0 0 0 0 0 0 0 0 0 0 0 0 2
566 387 434 420 253 208 179 59 67 18 5 125 334 17 6 6 6 16 15 7 29 47 29 14 7 1 0 0 0 0 0 0 0 0 0 0 0 0 0 0 0 0 0 0 0 0 0 0 0 0 0 0 1 0
135 287 340 27 164 204 127 82 25 4 0 0 0 2 1 7 13 20 52 62 38 23 14 3 1 0 0 0 0 0 0 0 0 0 0 0 0 0 0 0 0 0 0 1 3 3 0 1 2 3 0 0 0 0
82 81 119 190 143 207 64 153 12 8 11 6 13 11 12 8 44 16 6 3 3 2 0 0 0 0 0 0 0 0 0 1 0 0 0 0 0 0 0 0 0 0 0 4 7 6 2 0 0 0 0 0 0 0
96 41 37 50 379 347 371 344 132 28 13 17 10 2 35 72 62 21 13 19 9 3 0 0 0 1 0 0 0 0 0 0 0 0 0 0 0 0 0 0 0 0 0 0 0 0 0 0 0 0 0 0 0 0
45 36 37 36 57 190 498 562 400 225 30 16 45 72 67 47 27 5 28 12 1 0 0 0 0 0 1 0 0 0 0 0 0 0 0 0 0 0 0 0 0 0 0 0 0 0 0 0 0 0 0 0 0 0

GFSWCAN_con_mucape_015.txt.gz
CAPE
6 14 19 16 24 59 80 97 114 61 45 53 72 89 122 130 136 245 215 202 67 1 0 0 0 4 2 2 33 26 0 51 0 0 0 1 0 0 0 0 0 20 62 36 83 5 0 443 368 187 521 894 488 365
3 4 9 18 43 69 77 82 94 104 105 54 47 48 40 41 46 90 7 308 204 39 0 0 0 0 0 0 1 10 34 0 7 168 107 0 0 0 3 0 1 1 40 80 23 174 757 627 645 385 94 645 902 1584
1 10 13 19 39 62 69 65 69 80 81 36 36 32 23 35 52 53 41 131 142 43 0 0 0 0 0 0 0 0 0 0 1 75 80 19 12 78 19 44 105 52 61 351 179 53 124 180 195 499 1400 1079 1362 1519
0 11 19 23 27 37 54 51 67 70 80 43 18 21 37 77 79 40 19 129 63 2 0 0 0 1 1 6 0 6 27 0 30 0 1 5 0 41 92 3 15 194 77 95 153 169 721 732 842 903 917 673 591 1326
0 0 0 0 0 7 35 37 44 49 59 44 25 13 7 12 79 23 0 33 7 0 0 0 0 23 2 0 0 0 1 0 3 0 0 0 19 16 21 63 42 83 162 146 160 52 416 453 330 263 558 656 697 999
0 0 0 0 0 0 8 12 10 16 30 35 18 7 6 16 21 0 34 4 73 44 0 0 0 0 11 63 0 0 0 0 0 0 37 37 0 2 3 0 30 68 167 385 50 112 279 223 64 38 121 222 363 623
0 0 0 0 0 0 0 0 0 11 20 22 19 16 9 12 0 0 1 20 6 0 0 0 0 7 3 9 0 0 0 0 14 88 18 12 31 8 0 0 0 81 135 101 58 112 76 58 38 20 20 0 0 0
0 0 0 0 0 0 0 0 0 0 0 0 5 6 2 0 0 0 0 2 8 0 0 0 0 2 34 70 48 24 1 37 37 35 0 0 0 1 0 6 0 24 5 14 63 45 42 30 16 3 18 6 2 0
0 0 0 0 0 0 0 0 0 0 0 0 0 0 0 0 1 23 0 0 0 0 0 0 0 0 14 0 90 50 19 0 0 0 0 0 3 7 0 0 0 1 0 0 2 1 13 2 0 1 0 0 0 0
0 0 0 0 0 0 0 0 0 0 0 0 0 0 2 1 0 0 0 0 0 0 0 0 0 0 0 15 38 40 22 0 0 0 0 0 6 0 3 0 1 38 15 0 2 4 31 44 31 34 47 49 9 1
0 0 0 0 0 0 0 0 0 0 0 6 5 0 0 1 0 0 0 0 0 0 0 0 0 0 15 0 0 45 0 0 0 0 0 0 0 0 0 0 11 14 2 4 0 21 35 18 8 24 35 22 7 2
0 0 0 0 0 0 0 0 0 0 0 0 0 0 0 0 0 0 0 0 0 0 0 0 0 0 22 43 0 0 0 0 0 0 0 0 0 0 0 0 8 11 29 46 23 8 17 3 0 0 0 4 16 14
0 0 0 0 0 0 0 0 0 0 0 2 0 13 4 2 1 0 0 0 0 6 11 4 0 0 0 0 0 0 0 0 26 0 0 0 0 0 0 1 0 0 0 1 0 0 33 40 42 27 35 21 18 20
0 0 0 0 0 0 0 0 0 0 0 10 8 0 8 6 2 21 0 15 3 13 1 9 39 0 0 0 0 0 6 53 0 0 0 0 3 23 59 16 12 6 3 12 65 0 21 34 19 2 30 42 48 31
0 0 0 0 0 0 0 0 0 8 0 52 34 0 108 104 81 49 42 33 25 29 62 73 70 44 0 0 0 0 0 0 0 0 0 0 14 7 60 98 108 68 45 75 29 20 17 55 60 25 39 49 99 71
0 0 0 0 0 0 0 0 14 33 314 110 102 118 87 47 30 31 46 4 21 15 51 18 27 0 0 0 0 0 0 0 0 0 0 0 0 26 40 68 141 174 95 46 61 182 157 105 100 80 97 61 40 87
0 0 0 0 0 0 0 0 430 184 37 21 50 109 35 36 57 71 42 37 31 0 0 0 0 0 0 0 0 0 0 0 0 0 0 0 0 5 29 25 120 158 43 115 41 32 155 14 79 135 27 24 22 151
0 0 0 0 0 0 131 24 141 52 49 78 91 152 103 112 50 50 25 50 3 4 0 10 0 0 0 0 0 0 0 0 0 1 0 78 76 85 101 160 225 113 117 53 154 11 14 14 3 0 5 5 2 1
0 0 0 0 0 0 33 30 123 95 87 84 49 133 132 200 80 83 72 77 17 0 0 14 0 0 0 0 0 0 6 24 20 47 41 27 71 181 139 323 263 186 21 5 2 0 0 0 0 0 0 0 0 0
0 0 0 0 0 0 21 128 354 93 41 58 37 169 147 57 33 0 0 8 1 0 0 0 0 70 42 48 42 44 53 65 50 56 48 71 171 164 171 126 52 54 17 0 0 0 0 0 0 0 0 0 0 0
0 0 0 0 1 5 11 10 54 21 63 145 209 159 339 16 0 0 0 0 0 23 11 82 58 49 3 6 1 4 12 167 187 171 127 95 135 132 101 72 13 4 0 0 0 0 0 0 0 0 0 0 0 0
0 0 0 91 122 57 154 267 133 357 273 349 215 127 60 11 0 0 16 7 64 96 143 182 143 25 0 0 0 0 0 13 7 0 6 13 40 7 0 2 7 0 0 0 0 0 0 0 0 0 0 0 0 0
0 0 64 145 87 28 105 482 268 300 293 250 347 77 243 194 165 45 79 146 168 219 178 231 264 108 56 46 0 0 0 0 0 0 0 0 1 0 0 6 3 1 0 0 0 0 0 0 0 0 0 0 0 0
0 0 72 323 481 82 736 331 458 527 586 432 355 213 363 477 506 90 0 17 84 31 24 36 12 4 8 26 0 0 0 0 0 1 0 0 0 0 0 0 0 5 6 0 0 0 0 0 0 0 0 0 0 0
12 10 230 138 782 716 167 137 286 285 236 275 220 37 0 5 42 0 0 0 1 61 54 39 23 43 3 0 0 0 0 0 0 0 0 1 0 0 0 0 0 0 0 0 0 0 0 0 0 0 0 0 0 0
73 491 190 306 73 267 460 230 261 206 239 258 359 309 166 208 7 1 0 5 68 49 43 36 48 24 3 0 0 0 0 0 0 0 4 1 0 0 0 0 0 0 0 0 0 0 0 0 0 0 0 0 0 0
243 77 0 0 1 0 113 239 508 121 131 106 272 221 199 3 13 3 23 27 31 43 70 63 28 1 0 0 0 0 0 0 0 0 0 0 0 0 0 0 0 0 0 0 0 0 0 0 0 0 0 0 0 0
10 0 59 163 233 196 217 172 4 0 0 65 168 1 8 1 1 0 0 22 53 80 92 71 0 0 0 0 0 0 0 0 0 0 0 0 0 0 0 0 0 0 0 0 0 0 0 0 0 0 0 0 0 0
255 155 152 325 216 78 56 2 0 0 0 0 0 0 0 0 0 17 32 85 87 69 2 0 0 0 0 0 0 0 0 0 0 0 0 0 0 0 0 0 0 0 0 0 0 0 0 0 0 0 0 0 0 0
338 332 277 190 26 24 11 0 0 0 0 0 0 0 1 4 10 11 4 0 0 0 0 0 0 0 0 0 0 0 0 0 0 0 0 0 0 0 0 0 0 0 0 0 1 0 0 0 0 0 0 0 0 0
42 35 181 214 154 90 62 9 2 0 0 0 0 0 1 3 16 10 4 2 0 0 0 0 0 0 0 0 0 0 0 0 0 0 0 0 0 0 0 0 0 0 0 0 0 0 0 0 0 0 0 0 0 0
275 68 56 73 368 282 308 180 145 62 22 9 18 2 2 71 52 11 19 0 0 0 0 0 0 0 0 0 0 0 0 0 0 0 0 0 0 0 0 0 0 0 0 0 0 0 0 0 0 0 0 0 0 0
18 25 46 24 270 386 501 498 370 197 36 22 170 74 12 2 0 20 8 0 0 0 0 0 0 0 0 0 0 0 0 0 0 0 0 0 0 0 0 0 0 0 0 0 0 0 0 0 0 0 0 0 0 0

GFSWCAN_con_mucape_018.txt.gz
CAPE
1 1 0 0 16 29 35 48 58 39 29 29 40 61 60 59 81 27 1 25 33 17 0 0 0 0 0 0 0 0 13 1 0 17 136 3 0 18 38 36 0 0 0 0 35 18 13 25 42 0 31 655 194 62
0 0 1 1 12 11 12 29 39 56 46 40 33 29 45 42 37 24 7 1 23 33 0 0 0 0 0 0 0 0 0 0 0 2 6 33 8 67 48 68 81 11 75 0 42 4 381 61 1059 715 1260 1272 1162 910
0 0 0 0 0 0 0 10 14 25 24 20 32 50 53 74 70 50 14 1 10 0 0 0 0 0 0 0 0 0 0 1 0 0 0 0 24 115 31 154 139 154 114 143 3 39 810 259 1146 874 1041 1013 969 861
0 0 0 0 0 0 0 0 5 9 21 17 29 27 34 58 74 47 26 0 0 0 0 0 0 0 0 0 0 0 9 3 0 0 0 0 0 4 51 91 55 164 83 120 118 6 378 618 524 614 628 631 618 1036
0 0 0 0 0 0 0 0 0 0 3 8 21 27 30 26 47 12 0 0 0 0 0 0 0 0 1 39 24 1 0 0 0 0 0 1 0 59 91 100 161 91 165 176 81 70 115 340 439 387 285 104 212 383
0 0 0 0 0 0 0 0 0 0 0 0 0 0 16 17 40 0 0 0 0 0 0 0 0 24 34 37 59 47 0 0 0 0 0 0 0 8 46 82 71 71 253 215 113 114 125 75 17 95 137 328 100 129
0 0 0 0 0 0 0 0 0 0 0 0 0 0 0 3 0 5 0 0 0 1 0 0 0 5 48 81 18 0 0 0 0 0 0 0 8 3 38 8 0 98 142 322 179 48 40 29 51 15 34 34 39 51
0 0 0 0 0 0 0 0 0 0 0 0 0 0 0 1 0 0 2 2 6 0 0 0 0 0 17 57 3 26 0 0 50 29 0 1 3 0 14 11 25 21 84 78 76 92 47 31 43 22 23 26 55 43
0 0 0 0 0 0 0 0 0 0 0 0 0 0 0 0 0 0 0 0 0 0 0 0 0 0 0 0 1 0 0 0 0 0 0 0 0 1 41 0 0 11 18 34 59 67 54 38 9 22 5 7 47 43
0 0 0 0 0 0 0 0 0 0 0 0 0 0 0 0 0 0 0 0 0 0 0 0 0 0 0 0 0 0 0 0 0 0 0 0 0 0 28 0 0 0 17 2 5 23 12 32 4 0 0 0 0 0
0 0 0 0 0 0 0 0 0 0 0 0 0 0 0 0 0 0 0 0 0 0 0 0 0 0 0 0 0 0 0 0 0 0 1 0 0 0 0 0 0 0 1 0 0 8 7 3 0 9 18 0 3 12
0 0 0 0 0 0 0 0 0 0 0 0 0 0 0 0 0 0 2 0 1 0 0 0 0 0 0 0 0 0 0 0 0 0 0 0 0 0 0 0 0 0 0 0 0 0 0 0 3 6 2 7 43 17
0 0 0 0 0 0 0 0 0 0 0 0 0 0 0 0 1 25 10 3 5 7 0 0 0 0 0 0 4 0 0 0 0 0 0 0 0 0 0 0 0 0 0 0 0 0 65 34 56 29 29 28 11 41
0 0 0 0 0 0 0 0 0 0 0 0 0 0 3 0 0 0 0 0 9 26 0 0 0 0 0 0 0 0 0 0 0 0 0 0 0 0 0 0 0 0 0 2 73 27 39 67 46 46 33 38 55 44
0 0 0 0 0 0 0 0 1 0 0 0 0 14 7 40 43 27 0 0 0 0 2 0 0 0 0 0 0 0 0 0 0 0 0 0 0 3 14 53 14 0 44 68 54 72 53 11 22 23 34 11 25 21
0 0 0 0 0 0 0 0 3 1 16 3 11 0 4 1 11 0 0 0 0 0 0 0 0 0 0 0 0 0 0 0 0 0 0 0 4 26 44 51 39 29 6 3 5 2 2 4 4 7 16 22 22 12
0 0 0 0 0 0 0 0 1 40 15 32 41 35 43 7 1 0 0 0 0 0 0 0 0 0 0 0 0 0 0 0 0 0 0 0 18 23 10 1 5 12 19 11 2 0 0 0 2 2 0 2 18 10
0 0 0 0 0 0 0 0 0 4 20 19 28 28 3 1 0 0 0 0 0 0 0 0 0 0 0 0 0 0 2 0 4 4 25 24 30 43 66 46 8 14 14 10 11 8 6 3 0 0 1 8 0 10
0 0 0 0 0 0 0 0 0 14 18 14 5 0 0 0 0 0 0 0 0 0 0 0 0 0 0 10 0 6 5 8 26 24 40 52 48 28 6 1 0 0 0 0 0 0 0 0 0 0 0 0 0 0
0 0 0 0 0 0 0 0 1 6 14 28 19 0 0 0 0 0 0 0 0 0 0 0 0 4 10 5 15 17 9 32 12 9 14 17 26 32 12 1 0 0 0 0 0 0 0 0 0 0 0 0 0 0
0 0 0 1 7 0 0 0 0 1 13 25 28 2 0 0 0 0 0 0 0 0 0 3 0 2 4 8 18 2 0 0 7 12 3 10 0 2 0 0 0 0 0 0 0 0 0 0 0 0 0 0 0 0
0 0 0 4 24 5 0 29 17 52 10 16 16 3 0 0 0 0 1 0 0 20 29 14 0 0 0 0 0 0 0 0 0 0 2 4 2 4 8 3 2 0 0 0 0 0 0 0 0 0 0 0 0 0
0 0 12 34 33 6 40 153 149 118 34 9 11 14 13 6 7 3 0 0 0 0 0 0 0 0 0 0 0 0 0 0 0 0 0 0 0 0 1 7 13 14 7 6 10 11 3 0 0 0 0 0 0 0
0 0 1 31 198 114 248 170 218 185 131 3 5 0 21 26 19 0 0 0 7 5 1 11 5 0 0 0 0 0 0 0 0 0 0 0 0 0 0 0 0 0 4 20 13 8 1 0 0 0 0 0 0 0
0 2 51 78 81 12 166 130 99 101 73 13 1 9 12 20 0 6 20 24 29 10 20 30 20 0 0 0 0 0 0 0 0 0 0 0 0 0 0 0 0 0 0 0 0 0 0 0 0 0 0 0 0 0
108 11 10 0 0 0 29 40 99 165 102 92 59 41 23 14 0 0 4 22 23 42 36 54 0 0 0 0 0 0 0 0 0 0 0 0 0 0 0 0 0 0 0 0 0 0 0 0 0 0 0 0 0 0
0 0 0 0 0 0 3 31 104 6 0 6 52 53 0 2 0 0 4 33 36 46 19 0 3 0 0 0 0 0 0 0 0 0 0 0 0 0 0 0 0 0 0 0 0 0 0 0 0 0 0 0 0 0
0 5 12 70 25 100 81 0 0 0 0 0 0 0 0 0 0 0 16 30 56 81 5 0 1 0 0 0 0 0 0 0 0 0 0 0 0 0 0 0 0 0 0 0 0 0 0 0 0 0 0 0 0 0
57 6 32 55 13 46 16 0 0 0 0 0 0 0 0 0 0 0 9 2 0 0 0 0 0 0 0 0 0 0 0 0 0 0 0 0 0 0 0 0 0 0 0 0 0 0 0 0 0 0 0 0 0 0
125 34 85 163 25 12 0 4 1 0 0 0 0 0 0 0 0 8 1 0 0 0 1 0 0 0 0 0 0 0 0 0 0 0 0 0 0 0 0 0 0 0 0 0 0 0 0 0 0 0 0 0 0 0
57 57 130 118 100 58 51 94 93 41 1 0 0 0 0 0 0 0 0 0 0 0 0 0 0 0 0 0 0 0 0 0 0 0 0 0 0 0 0 0 0 0 0 0 0 0 0 0 0 0 0 0 0 0
94 7 23 225 116 67 62 127 95 19 7 4 0 0 0 0 0 5 0 0 0 0 0 0 0 0 0 0 0 0 0 0 0 0 0 0 0 0 0 0 0 0 0 0 0 0 0 0 0 0 0 0 0 0
12 30 71 213 160 232 241 194 162 63 22 26 12 13 7 0 0 0 0 0 0 0 0 0 0 0 0 0 0 0 0 0 0 0 0 0 0 0 0 0 0 0 0 0 0 0 0 0 0 0 0 0 0 0

GFSWCAN_con_mucape_021.txt.gz
CAPE
0 0 0 0 0 0 0 0 0 0 3 5 17 30 35 44 74 27 3 21 30 10 0 0 0 0 0 2 0 0 0 3 4 0 10 20 2 7 8 0 20 11 1 0 0 0 0 15 75 132 46 15 0 0
0 0 0 0 0 0 0 0 0 0 0 0 8 22 23 25 42 29 0 0 12 0 0 0 0 0 0 0 0 0 0 1 34 0 0 0 17 5 43 0 23 9 88 0 0 0 86 107 288 817 620 599 418 242
0 0 0 0 0 0 0 0 0 0 0 0 0 0 27 32 35 39 15 9 0 0 0 0 0 0 0 0 0 0 0 0 0 0 0 0 0 11 34 0 5 107 169 31 113 95 146 192 716 723 762 590 591 668
0 0 0 0 0 0 0 0 0 2 0 0 0 0 0 6 38 41 0 0 0 0 0 0 0 0 0 0 0 0 0 0 0 0 0 0 0 0 0 0 79 68 121 89 125 93 252 240 262 522 613 884 975 1185
0 0 0 0 0 0 1 1 0 0 0 0 0 0 0 0 6 6 0 0 0 0 0 0 0 0 1 13 8 9 5 7 0 4 0 0 0 0 0 0 44 103 63 70 145 19 45 88 185 270 486 491 799 1113
0 0 0 0 0 0 1 0 0 0 0 0 0 0 0 0 0 0 0 0 6 4 0 0 0 0 5 16 17 22 40 17 0 0 0 0 0 0 1 7 34 54 150 206 80 24 0 6 36 67 223 180 351 252
0 0 0 0 0 0 1 1 0 0 0 0 0 0 0 0 0 0 0 0 1 0 0 0 0 0 14 49 3 12 35 1 0 0 0 0 0 0 22 26 0 31 65 250 152 2 0 24 32 87 232 105 163 171
0 0 0 0 0 0 1 2 0 0 0 0 0 0 0 0 0 0 0 0 0 0 0 0 0 0 0 2 0 5 0 0 0 0 0 0 0 0 11 0 0 13 260 240 289 109 41 64 68 140 225 24 16 5
0 0 0 0 0 0 1 0 0 0 0 0 0 0 0 0 0 0 0 0 0 0 0 0 0 0 0 0 0 0 0 0 0 0 0 0 0 14 4 25 19 4 120 159 130 63 67 66 95 58 52 149 45 0
0 0 0 0 0 1 1 0 0 0 0 0 0 0 0 0 0 0 0 0 0 0 0 0 0 0 0 0 0 0 0 0 0 0 0 0 0 3 0 13 1 2 42 93 181 102 15 32 34 2 2 0 0 0
0 0 0 0 0 0 0 0 0 0 0 0 0 0 0 0 0 0 1 0 0 0 0 0 0 0 0 0 0 0 0 0 0 0 0 0 0 0 0 0 0 0 21 40 29 0 0 3 24 0 0 0 0 0
0 0 0 0 0 0 0 0 0 0 0 0 0 0 0 0 0 0 0 1 1 0 0 0 0 0 0 0 0 0 0 0 0 0 0 0 0 0 0 0 2 9 1 7 16 24 33 30 18 11 5 3 3 3
0 0 0 0 0 0 0 0 0 0 0 0 0 0 0 0 0 0 0 0 0 0 0 0 0 1 0 0 0 0 0 0 0 0 0 0 0 0 0 0 0 0 0 0 0 0 0 2 1 0 3 1 10 3
0 0 0 0 0 0 0 0 0 0 0 0 0 0 0 0 0 0 0 0 0 0 1 0 0 0 0 0 0 0 0 0 0 0 0 1 0 0 0 0 0 0 2 5 23 23 15 34 38 33 24 15 12 14
0 0 0 0 0 0 0 0 0 0 0 0 0 0 0 0 0 0 0 0 0 0 0 0 0 0 0 0 0 0 0 0 0 1 0 0 1 0 1 0 33 10 18 18 43 29 5 26 13 6 2 15 14 1
0 0 0 0 0 0 0 0 0 0 3 17 11 0 0 0 0 0 0 0 0 0 0 0 0 0 0 0 0 0 0 0 0 0 0 1 0 4 2 19 22 39 21 11 12 4 5 19 2 11 11 27 30 20
0 0 0 0 0 0 0 0 0 0 16 26 0 0 0 0 0 0 0 0 0 0 0 0 0 0 0 0 0 0 0 1 0 0 9 17 0 6 6 25 16 16 7 15 10 7 4 7 5 8 3 3 4 18
0 0 0 0 0 0 0 0 1 11 22 0 0 0 0 0 0 0 0 0 0 0 0 0 0 0 0 0 0 0 0 0 27 20 24 26 2 0 0 3 2 0 0 0 0 0 0 0 0 0 0 7 7 23
0 0 0 0 0 0 0 0 0 9 10 8 0 0 0 0 0 0 0 0 0 0 0 0 0 0 0 0 0 0 4 11 10 25 14 9 8 0 0 0 0 0 0 0 0 0 0 0 0 0 0 0 0 0
0 0 0 0 0 0 0 0 0 4 21 27 0 0 0 0 0 0 0 0 0 0 0 0 0 2 5 0 3 0 2 13 15 17 10 7 9 8 2 0 0 0 0 0 0 0 0 0 0 0 0 0 0 0
0 0 0 0 0 0 0 0 0 0 11 12 7 0 0 0 0 0 0 0 0 0 0 0 0 7 5 6 9 4 0 0 0 5 3 6 2 5 1 0 0 1 0 0 0 0 0 0 0 0 0 0 0 0
0 0 0 0 0 0 0 2 3 8 1 0 29 18 0 0 0 0 0 0 0 0 0 0 0 0 0 0 0 0 0 0 0 0 0 6 16 14 11 8 4 3 6 2 2 1 0 0 1 0 0 0 0 0
0 0 0 8 14 0 6 63 24 0 1 0 0 3 0 0 0 0 2 23 21 13 7 0 0 0 0 0 0 0 0 0 0 0 0 0 0 0 1 4 6 4 0 0 0 0 0 0 0 0 0 0 0 0
0 0 0 7 66 93 146 132 68 34 1 0 0 0 10 24 11 0 6 24 23 20 0 0 0 0 0 0 0 0 0 0 0 0 0 0 0 0 0 0 0 0 0 0 0 0 0 0 0 0 0 0 0 0
0 2 36 1 0 0 22 8 40 52 9 2 9 12 6 6 0 0 11 15 26 24 16 5 0 0 0 0 0 0 0 0 0 0 0 0 0 0 0 0 0 0 0 0 0 0 0 0 0 0 0 0 0 0
29 0 0 0 0 0 0 1 19 46 4 25 39 23 8 0 0 0 0 17 38 21 5 0 3 0 0 0 0 0 0 0 0 0 0 0 0 0 0 0 0 0 0 0 0 0 0 0 0 0 0 0 0 0
0 0 0 0 0 0 0 0 0 0 0 0 6 7 0 0 0 0 0 11 43 30 25 0 0 0 0 0 0 0 0 0 0 0 0 0 0 0 0 0 0 0 0 0 0 0 0 0 0 0 0 0 0 0
0 0 0 1 16 36 9 0 0 0 0 0 0 0 0 0 0 0 0 5 2 3 1 0 0 0 0 0 0 0 0 0 0 0 0 0 0 0 0 0 0 0 0 0 0 0 0 0 0 0 0 0 0 0
10 0 0 0 1 15 0 0 0 0 0 0 0 0 0 0 0 0 0 0 0 3 2 1 0 0 0 0 0 0 0 0 0 0 0 0 0 0 0 0 0 0 0 0 0 0 0 0 0 0 0 0 0 0
193 50 18 67 24 9 12 10 13 2 0 0 0 0 0 0 0 0 0 0 5 10 12 0 0 0 0 0 0 0 0 0 0 0 0 0 0 0 0 0 0 0 0 0 0 0 0 0 0 0 0 0 0 0
58 20 50 77 67 63 79 90 87 23 49 37 19 4 8 1 0 0 0 0 7 11 1 0 0 0 0 0 0 0 0 0 0 0 0 0 0 0 0 0 0 0 0 0 0 0 0 0 0 0 0 0 0 0
28 13 28 81 94 101 79 100 120 100 37 25 20 17 19 17 0 0 0 0 0 0 0 0 0 0 0 0 0 0 0 0 0 0 0 0 0 0 0 0 0 0 0 0 0 0 0 0 0 0 0 0 0 0
7 5 10 121 101 88 32 32 22 11 13 11 21 38 36 34 6 0 0 0 0 0 0 0 0 0 0 0 0 0 0 0 0 0 0 0 0 0 0 0 0 0 0 0 0 0 0 0 0 0 0 0 0 0

GFSWCAN_con_mucape_024.txt.gz
CAPE
0 0 0 0 0 0 0 0 1 1 0 1 0 0 0 45 65 29 0 0 0 0 0 0 0 0 0 0 0 0 0 2 22 36 6 17 12 4 0 0 0 0 0 0 0 0 0 28 42 86 0 0 0 19
0 0 0 0 0 0 0 0 0 1 2 2 0 6 1 18 58 15 0 0 0 0 0 0 0 0 0 0 0 0 0 1 0 8 0 0 0 1 0 0 0 0 0 0 0 0 0 140 140 74 51 51 188 36
0 0 0 0 0 0 0 0 0 1 2 6 0 5 6 64 51 17 0 2 0 0 0 0 0 0 0 0 0 0 0 0 0 0 0 0 0 0 0 57 32 23 1 5 0 4 0 226 174 157 209 392 370 454
0 0 0 0 0 0 0 1 1 1 4 0 0 0 0 0 33 59 0 0 0 0 0 0 0 0 0 0 0 0 0 0 0 3 0 0 0 0 0 0 0 3 3 0 0 0 148 152 105 238 294 545 858 965
0 0 0 0 0 0 2 3 2 5 0 0 0 0 0 0 0 0 0 0 0 0 0 0 0 0 0 0 3 0 0 5 0 0 0 0 0 0 0 0 0 0 0 5 5 0 115 85 99 287 334 576 769 903
0 0 0 0 0 0 0 5 5 2 0 0 0 0 0 0 0 0 0 0 0 0 0 0 0 0 0 0 1 4 10 8 2 0 0 0 0 0 0 0 0 116 111 108 0 9 126 111 181 255 294 259 593 707
0 0 0 0 0 0 3 5 4 0 0 0 0 0 0 0 0 0 0 0 0 0 0 0 0 0 1 20 1 4 5 3 12 0 0 0 0 0 0 3 0 0 9 13 0 153 129 92 160 224 289 231 180 169
0 0 0 0 0 7 4 4 4 0 0 0 0 0 0 0 0 0 0 0 0 0 0 0 0 0 0 0 12 9 0 0 0 0 0 0 0 0 0 0 1 0 0 6 119 97 168 114 55 34 95 81 137 159
0 0 0 0 0 0 0 0 0 0 0 0 0 0 0 0 0 1 0 0 0 0 0 0 0 0 0 0 0 0 0 0 0 0 0 0 0 0 0 0 0 0 0 51 74 98 200 255 44 43 53 0 50 40
0 0 0 0 0 0 0 0 0 0 0 0 0 0 0 0 0 0 0 0 0 0 0 0 0 0 0 0 0 0 0 0 0 0 0 0 5 0 0 0 9 25 26 36 91 24 155 61 25 0 0 0 2 22
0 0 0 0 0 0 0 0 0 0 0 0 0 0 0 0 2 4 0 0 0 0 0 0 0 0 0 0 0 0 0 0 0 0 0 0 3 0 1 0 17 0 0 17 55 13 80 14 18 0 23 19 12 0
0 0 0 0 0 0 0 0 0 0 0 0 0 0 0 0 1 0 0 0 0 0 0 0 0 0 0 0 0 0 0 0 0 0 0 0 0 0 1 0 0 0 0 6 31 40 12 18 0 0 1 13 2 0
0 0 0 0 0 0 0 0 0 0 0 0 0 0 0 0 0 0 0 0 0 1 0 0 0 0 0 0 0 0 0 0 0 0 0 0 0 0 0 0 0 0 2 18 17 21 6 19 18 10 10 0 3 24
0 0 0 0 0 0 0 0 0 0 0 0 0 0 0 0 0 0 0 0 0 0 0 0 0 0 0 0 0 0 0 0 0 0 0 0 0 0 0 0 0 0 0 0 17 12 2 1 5 40 46 16 10 0
0 0 0 0 0 0 0 0 0 0 0 0 0 0 0 0 0 0 0 0 0 0 0 0 0 0 0 0 0 0 0 0 0 0 0 3 0 0 0 0 0 1 0 15 8 9 0 0 18 31 32 63 17 12
0 0 0 0 0 0 0 0 0 0 0 0 0 0 0 0 0 0 0 0 0 0 0 0 0 0 0 0 0 0 0 0 0 0 0 0 0 0 2 0 0 0 2 0 3 13 8 36 20 21 14 7 23 52
0 0 0 0 0 0 0 0 0 0 0 0 0 0 0 0 0 0 0 0 0 0 0 0 0 0 1 0 0 0 0 0 0 0 4 5 0 6 5 0 0 0 0 0 0 0 0 4 29 20 6 6 4 0
0 0 0 0 0 0 0 0 0 0 0 0 0 0 0 0 0 0 0 0 0 0 0 0 0 0 0 0 0 0 1 13 15 14 13 6 2 6 0 0 0 0 0 0 0 0 0 0 0 0 0 0 0 2
0 0 0 0 0 0 0 0 0 0 0 0 0 0 0 0 0 0 0 0 0 0 0 0 0 0 0 0 0 0 0 1 12 12 11 12 14 4 1 0 0 0 0 0 0 0 0 0 0 0 0 0 0 0
0 0 0 0 0 0 0 0 0 0 0 0 0 0 0 0 0 0 0 0 0 0 0 0 0 0 0 1 1 4 4 3 10 16 9 15 15 15 4 9 2 2 1 4 0 0 0 0 0 0 0 0 0 0
0 0 0 0 0 0 0 0 0 0 0 0 0 0 0 0 0 0 0 0 0 0 0 0 0 0 0 0 0 0 0 0 0 0 0 0 5 6 7 8 11 9 8 5 1 0 0 0 0 0 0 0 0 0
0 0 0 0 0 0 0 0 0 0 0 0 22 15 0 0 0 0 0 0 0 5 1 0 0 0 0 0 0 0 0 0 0 0 0 0 0 0 0 0 0 0 0 0 0 0 0 0 0 0 0 0 0 0
0 0 0 0 1 0 0 7 2 3 0 0 0 0 0 0 0 0 0 6 16 0 0 0 0 0 0 0 0 0 0 0 0 0 0 0 0 0 0 0 0 0 0 0 0 0 0 0 0 0 0 0 0 0
0 0 0 1 0 0 6 38 20 8 0 0 0 0 0 3 0 0 0 0 21 15 12 11 4 4 0 0 0 0 0 0 0 0 0 0 0 0 0 0 0 0 0 0 0 0 0 0 0 0 0 0 0 0
0 0 5 0 0 0 0 0 3 8 0 0 0 0 0 0 0 0 0 0 9 5 0 0 0 0 0 0 0 0 0 0 0 0 0 0 0 0 0 0 0 0 0 0 0 0 0 0 0 0 0 0 0 0
0 0 0 0 0 0 0 0 0 0 0 0 0 0 0 0 0 0 0 0 0 16 18 17 0 0 0 0 0 0 0 0 0 0 0 0 0 0 0 0 0 0 0 0 0 0 0 0 0 0 0 0 0 0
0 0 0 0 0 0 0 0 0 0 0 0 0 0 0 0 0 0 0 0 1 8 8 1 0 0 0 0 0 0 0 0 0 0 0 0 0 0 0 0 0 0 0 0 0 0 0 0 0 0 0 0 0 0
0 0 0 0 0 0 0 0 0 0 0 0 0 0 0 0 0 0 0 0 0 1 1 2 0 0 0 0 0 0 0 0 0 0 0 0 0 0 0 0 0 0 0 0 0 0 0 0 0 0 0 0 0 0
15 5 1 0 0 0 0 0 0 0 0 0 0 0 0 0 0 0 0 0 1 2 2 8 0 0 0 0 0 0 0 0 0 0 0 0 0 0 0 0 0 0 0 0 0 0 0 0 0 0 0 0 0 0
161 65 26 35 39 24 32 20 14 15 21 17 13 8 12 2 0 0 0 0 0 4 8 13 0 0 0 0 0 0 0 0 0 0 0 0 0 0 0 0 0 0 0 0 0 0 0 0 0 0 0 0 0 0
108 54 43 62 92 94 90 117 78 47 23 33 31 33 27 22 21 9 0 0 0 4 13 0 0 0 0 0 0 0 0 0 0 0 0 0 0 0 0 0 0 0 0 0 0 0 0 0 0 0 0 0 0 0
24 35 31 44 64 98 139 91 76 71 81 68 58 37 32 29 27 33 3 0 0 0 0 0 0 0 0 0 0 0 0 0 0 0 0 0 0 0 0 0 0 0 0 0 0 0 0 0 0 0 0 0 0 0
17 5 16 19 76 72 37 27 14 47 38 33 58 69 60 33 31 37 19 3 0 0 0 0 0 0 0 0 0 0 0 0 0 0 0 0 0 0 0 0 0 0 0 0 0 0 0 0 0 0 0 0 0 0

GFSWCAN_con_mucape_030.txt.gz
CAPE
0 0 0 0 0 1 0 1 2 3 3 4 10 7 16 2 1 6 0 0 0 0 0 0 0 0 0 0 0 21 27 32 18 80 70 94 77 73 0 0 0 0 0 0 0 0 0 0 0 0 6 5 1 2
0 0 0 0 0 2 2 3 4 4 7 10 7 13 19 1 0 0 0 0 0 0 0 0 0 0 0 0 0 2 1 1 45 118 106 79 115 90 68 0 35 0 0 0 0 0 0 0 0 0 0 0 0 1
0 0 0 0 0 2 3 5 5 10 14 8 7 2 0 0 0 0 0 0 0 0 0 0 0 3 0 13 6 0 0 0 0 4 63 59 52 39 6 5 0 6 57 0 0 0 0 4 0 0 0 0 0 0
0 0 0 0 0 0 0 0 0 0 15 5 0 0 0 0 0 2 0 0 0 0 0 0 0 0 0 0 0 0 0 0 0 41 0 0 0 14 25 35 0 45 53 0 0 27 12 0 0 0 0 0 0 0
0 0 0 0 0 0 0 0 0 0 0 0 0 0 0 0 0 0 0 0 0 0 0 0 0 0 0 0 0 0 0 0 0 0 0 0 0 0 0 0 0 12 7 3 0 32 46 27 32 0 0 0 0 0
0 0 0 0 0 0 0 0 0 0 0 0 0 0 0 0 0 0 0 0 0 0 0 0 0 0 0 0 0 1 28 35 1 0 0 0 0 0 0 0 5 0 0 0 0 36 45 50 36 1 46 4 0 9
0 0 0 0 0 0 0 0 0 0 0 0 0 0 0 0 0 0 0 0 0 0 0 0 0 0 0 0 0 0 0 0 0 0 0 0 0 0 0 0 0 1 0 0 0 0 0 37 10 15 6 18 20 70
0 0 0 0 0 0 0 0 0 0 0 0 0 0 0 0 0 0 0 0 0 0 0 0 0 0 0 0 0 0 0 0 0 0 0 0 0 0 0 7 5 0 9 0 0 0 0 0 41 59 124 55 129 143
0 0 0 0 0 0 0 0 0 0 0 0 0 0 0 0 0 0 0 0 0 0 0 0 0 0 0 0 0 0 0 0 0 0 0 0 0 0 0 0 0 38 20 0 0 0 0 0 13 21 171 201 99 90
0 0 0 0 0 0 0 0 0 0 0 0 0 0 0 0 0 0 0 0 2 0 0 0 0 0 0 0 0 0 1 0 0 0 0 0 0 0 0 0 0 3 3 0 18 29 18 6 32 110 56 46 47 67
0 0 0 0 0 0 0 0 0 0 0 0 0 0 0 0 0 0 0 0 0 0 0 0 0 0 0 0 0 1 0 0 0 0 0 0 0 0 0 0 0 0 0 9 111 112 67 9 79 67 46 76 11 0
0 0 0 0 0 0 0 0 0 0 0 0 0 0 0 0 0 0 0 0 0 0 0 0 0 0 0 0 0 5 0 0 0 115 0 0 0 0 0 0 0 0 0 1 0 0 0 0 15 0 0 0 0 0
0 0 0 0 0 0 0 0 0 0 0 0 0 0 0 0 0 0 0 0 0 0 5 15 44 59 37 39 87 114 0 0 106 0 0 0 0 0 0 0 0 0 0 0 0 0 0 0 10 16 19 43 51 0
0 0 0 0 0 0 0 0 0 0 0 0 0 0 0 0 0 0 0 0 0 0 0 25 38 29 18 15 0 0 2 25 0 0 0 97 0 0 0 0 0 0 0 0 0 0 0 0 0 0 0 0 0 0
0 0 0 0 0 0 0 0 0 0 0 0 0 0 0 0 0 0 0 0 0 0 64 67 70 11 10 0 0 0 0 0 0 0 82 69 22 0 0 0 0 0 0 0 0 0 5 19 17 0 0 2 7 0
0 0 0 0 0 0 0 0 0 0 1 0 0 1 5 3 1 0 0 0 0 6 70 26 16 2 0 0 0 0 0 0 0 0 0 1 0 0 0 0 0 0 0 0 0 0 0 0 0 0 5 1 6 14
0 0 0 0 0 0 0 0 0 0 0 8 22 4 3 5 2 0 0 0 0 0 1 0 0 0 0 0 0 0 0 0 0 1 5 2 3 0 0 0 0 0 0 0 0 0 0 0 0 0 0 0 0 0
0 0 0 0 0 2 2 0 0 0 2 4 13 3 0 0 0 0 0 0 0 0 0 0 0 0 0 0 0 0 0 28 50 0 0 0 0 0 0 0 0 0 0 0 0 0 0 0 0 0 0 0 0 0
0 0 0 0 0 4 0 0 0 0 0 1 11 15 8 0 0 0 0 0 0 0 0 0 0 0 0 0 0 0 0 13 58 0 0 2 2 0 0 0 0 0 0 0 0 0 0 0 0 0 0 0 0 0
0 0 0 0 0 11 9 35 1 0 10 11 0 27 21 17 2 0 0 0 0 0 0 0 0 11 0 0 0 3 8 13 24 16 8 2 4 0 0 0 0 0 0 0 0 0 0 0 0 0 0 0 0 0
0 0 0 1 147 81 71 75 57 21 0 11 24 94 42 44 12 5 7 7 1 0 0 0 0 4 0 0 0 0 1 0 1 1 0 2 4 9 5 0 0 0 0 0 0 0 0 1 0 0 0 0 0 0
0 0 35 58 129 107 300 137 290 133 155 86 92 94 27 25 14 0 9 23 22 32 24 0 0 0 0 0 0 0 0 0 0 0 0 0 0 1 0 0 0 0 0 0 0 0 0 0 4 1 0 0 0 0
0 0 72 117 172 10 185 228 467 282 198 112 81 18 31 61 21 3 0 21 29 23 16 10 6 0 0 0 0 0 0 0 0 0 0 0 0 0 0 0 0 0 0 0 0 0 0 0 0 0 0 0 0 0
0 36 142 85 47 35 255 347 340 379 285 201 141 38 98 112 7 5 0 0 7 28 26 27 6 0 0 0 0 0 0 0 0 0 0 0 0 0 0 0 0 0 0 0 0 0 0 0 0 0 0 0 0 0
0 0 1 0 20 147 52 90 129 60 148 219 202 85 195 52 5 0 0 0 0 2 13 17 6 0 0 0 0 0 0 0 0 0 0 0 0 0 0 0 0 0 0 0 0 0 0 0 0 0 0 0 0 0
0 4 3 4 36 21 12 0 0 0 3 61 173 202 72 0 0 0 0 0 0 0 3 2 0 0 0 0 0 0 0 0 0 0 0 0 0 0 0 0 0 0 0 0 0 0 0 0 0 0 0 0 0 0
0 37 153 33 215 209 123 0 0 0 0 0 12 60 1 0 0 0 0 0 0 0 0 0 0 0 0 0 0 0 0 0 0 0 0 0 0 0 0 0 0 0 0 0 8 11 0 0 0 0 0 0 0 0
134 241 162 397 371 302 273 113 0 0 0 0 0 10 0 14 9 9 2 0 0 0 0 0 0 0 0 0 0 0 0 0 0 0 0 0 0 0 0 0 0 0 0 0 0 13 0 0 0 0 0 0 0 0
491 352 187 366 320 348 393 266 60 4 1 0 41 52 12 26 28 31 20 5 1 5 14 13 3 5 4 0 0 0 0 0 0 0 0 0 0 0 0 0 0 0 0 0 0 0 0 0 0 0 0 0 0 0
617 345 386 346 322 281 301 302 275 72 36 17 22 1 2 24 42 49 45 28 29 19 29 20 17 19 6 0 0 0 0 0 0 0 0 0 0 0 0 0 0 0 0 0 0 0 0 0 0 0 0 0 0 0
485 430 485 452 327 438 417 282 72 62 50 20 7 29 88 138 77 32 47 52 49 56 51 11 2 1 0 0 0 0 0 1 0 0 0 0 0 0 0 0 0 0 0 0 0 0 0 0 0 0 0 0 0 0
494 558 545 414 214 409 134 198 232 208 249 182 208 115 130 155 273 276 38 57 60 42 3 0 0 0 0 0 0 0 0 0 0 0 0 0 0 0 0 0 0 0 0 0 0 0 0 0 0 0 0 0 0 0
130 130 234 186 244 370 275 199 292 365 311 261 300 195 210 224 276 55 25 34 16 0 0 0 0 0 0 0 0 0 0 0 0 0 0 0 0 0 0 0 0 0 0 0 0 0 0 0 0 0 0 0 0 0

GFSWCAN_con_mucape_033.txt.gz
CAPE
0 0 0 0 0 0 0 0 4 6 11 9 8 4 7 0 2 1 1 0 0 0 0 0 0 0 0 39 57 37 41 78 55 121 111 98 115 66 27 20 23 0 0 0 0 0 0 0 0 3 37 23 16 13
0 0 0 0 0 0 0 0 0 0 0 0 4 0 0 0 0 1 0 5 6 0 0 0 0 0 19 38 10 19 22 29 90 146 205 160 141 81 80 0 16 1 5 0 0 0 0 0 0 0 0 0 1 0
0 0 0 0 0 0 0 0 0 0 0 0 0 0 0 0 0 0 0 0 0 0 0 0 0 0 2 19 26 0 0 14 0 37 46 62 94 122 18 10 42 41 27 2 0 0 0 0 0 0 0 0 0 0
0 0 0 0 0 0 0 0 0 0 0 0 0 0 0 0 0 0 0 0 0 0 0 0 0 0 0 10 11 7 0 0 0 0 44 49 3 79 87 67 62 77 53 34 18 1 9 2 0 0 0 0 0 0
0 0 0 0 0 0 0 0 0 0 0 0 0 0 0 0 0 0 0 0 0 0 0 0 0 0 0 0 0 0 0 0 0 0 0 0 0 0 0 0 12 36 56 18 0 57 34 31 24 6 0 0 0 0
0 0 0 0 0 0 0 0 0 0 0 0 0 0 0 0 0 0 0 0 0 0 0 0 0 0 0 0 0 0 0 0 0 0 0 0 0 0 0 0 0 3 0 2 55 57 57 30 51 37 25 0 0 0
0 0 0 0 0 0 0 0 0 0 0 0 0 0 0 0 0 0 0 0 0 0 0 0 1 0 0 0 0 0 0 0 0 0 0 0 0 0 0 1 14 24 0 3 0 0 23 14 21 52 39 29 10 0
0 0 0 0 0 0 0 0 0 0 0 0 0 0 0 0 0 0 0 0 2 0 3 0 0 0 0 0 0 0 0 0 0 0 0 0 0 0 0 0 0 0 29 8 0 0 0 0 7 26 34 36 26 13
0 0 0 0 0 0 0 0 0 0 0 0 0 0 0 0 0 0 0 0 0 0 0 0 0 0 0 0 0 0 0 0 0 0 0 0 0 0 0 0 0 21 65 16 0 0 0 0 0 14 24 2 41 88
0 0 0 0 0 0 0 0 0 0 0 0 0 0 0 0 0 0 0 0 0 0 0 0 0 0 0 0 0 0 1 0 0 0 0 0 0 0 0 0 0 12 154 25 0 0 0 0 0 0 23 22 10 73
0 0 0 0 0 0 0 0 0 0 0 2 3 0 0 0 0 0 0 0 0 0 0 0 3 0 0 0 0 0 0 0 0 0 0 0 0 0 0 0 0 0 14 30 40 37 43 43 54 25 57 36 69 137
0 0 0 0 0 0 0 0 0 0 2 2 0 0 0 0 0 0 0 0 0 80 130 72 27 2 0 1 0 115 94 98 0 46 0 0 0 0 0 0 0 0 0 0 2 1 0 16 56 40 13 36 20 90
0 0 0 0 0 0 0 0 0 0 0 0 0 14 1 0 70 0 0 0 0 6 31 34 263 103 128 14 198 79 6 0 70 0 0 0 113 0 0 0 0 0 0 0 0 0 0 0 15 29 1 1 0 0
0 0 0 0 0 0 0 0 0 0 0 0 0 3 13 25 26 3 0 0 31 24 38 80 210 155 73 75 60 55 92 28 0 0 0 170 106 95 80 91 75 3 6 1 4 0 0 0 0 0 0 0 0 0
0 0 0 0 0 0 0 0 0 0 0 2 2 59 24 22 23 21 21 22 23 41 93 165 115 79 53 20 28 12 40 0 0 0 21 37 96 65 70 36 49 38 54 43 15 0 1 0 5 13 12 12 0 0
0 0 0 0 0 0 0 8 0 0 1 3 4 5 2 2 0 0 0 0 0 10 225 105 46 69 30 12 0 0 0 0 0 6 9 2 63 83 87 38 24 21 47 41 41 50 21 20 22 0 0 3 13 18
0 18 0 0 0 0 0 26 0 0 1 3 10 1 0 0 0 0 0 0 1 3 17 27 9 1 0 0 0 0 79 26 0 52 0 29 81 95 71 12 5 0 0 0 27 16 24 26 1 4 12 3 0 0
0 0 0 0 0 62 73 38 0 2 8 11 21 15 5 0 0 0 0 0 0 8 5 2 11 15 0 0 0 0 3 39 98 52 19 40 69 52 30 29 22 8 0 0 0 13 5 1 9 10 11 9 0 0
0 0 0 0 0 53 85 40 75 3 10 11 28 24 14 2 0 0 0 0 0 0 4 6 7 17 18 15 12 13 15 17 40 24 20 48 51 51 37 23 13 5 3 0 0 0 6 8 5 3 9 10 0 0
0 0 0 0 0 365 176 214 176 30 44 9 50 87 32 21 2 3 1 0 0 0 2 4 6 7 11 8 5 3 6 1 7 15 19 27 24 28 21 10 1 1 0 0 3 0 3 2 2 4 2 1 0 0
0 5 0 78 538 359 223 243 241 68 66 73 54 68 37 43 2 0 8 4 1 1 1 3 5 9 9 11 8 4 5 1 3 2 0 0 0 7 6 2 0 0 0 0 5 10 5 8 7 5 4 0 0 0
47 0 309 259 401 364 448 349 408 320 282 88 97 59 40 37 12 0 3 11 4 4 0 1 1 0 0 2 6 9 3 3 8 1 0 0 4 0 3 5 1 0 2 2 9 9 7 0 0 4 0 0 0 0
2 14 500 394 397 121 295 530 454 313 240 136 110 74 43 48 16 4 9 7 9 7 6 6 1 5 0 2 0 13 0 0 1 2 1 0 0 7 4 3 1 3 2 5 3 5 3 0 0 0 3 2 0 0
0 481 536 239 151 102 409 392 262 276 279 197 99 98 94 84 15 15 0 0 0 14 15 3 4 4 9 20 2 0 0 0 0 0 1 0 0 1 3 4 3 3 1 5 10 11 10 11 1 6 2 0 2 0
105 37 114 0 185 108 11 0 10 59 91 134 139 161 164 115 71 0 0 0 0 0 5 18 9 5 0 0 0 0 0 0 0 0 1 0 0 0 2 5 5 11 2 2 7 12 13 16 20 12 13 0 0 0
0 27 264 2 35 81 6 10 1 1 27 74 183 191 234 176 31 5 3 0 0 0 0 2 0 0 0 0 0 0 0 0 0 0 0 0 0 0 0 0 3 6 0 8 9 13 20 19 20 12 15 5 0 0
0 16 137 167 280 363 327 134 116 79 33 81 124 121 111 56 45 36 18 2 2 9 0 0 1 2 0 2 0 0 0 0 0 0 0 0 0 0 0 0 0 0 0 9 16 16 16 15 15 16 17 16 18 20
222 200 225 345 378 401 315 315 144 71 62 71 116 83 98 50 75 138 79 43 40 30 29 0 15 17 6 12 0 0 0 0 2 4 4 1 2 4 0 6 4 0 0 2 0 7 16 14 14 17 18 4 10 32
540 352 153 186 264 254 331 224 185 117 91 79 97 117 202 259 279 203 101 104 45 58 35 0 0 0 6 1 1 0 0 0 0 0 0 15 14 10 9 10 11 15 15 4 0 0 0 0 0 0 18 26 32 15
329 311 175 218 188 204 505 313 169 148 199 203 214 205 262 261 391 244 193 66 51 74 64 18 12 0 5 15 4 4 3 0 0 2 1 0 0 15 17 16 17 15 16 17 17 8 1 5 5 10 0 14 26 0
125 200 255 227 201 133 243 138 158 261 377 328 237 242 230 556 507 209 208 179 154 77 11 17 11 13 9 3 0 0 0 12 1 0 0 3 16 15 17 18 12 18 5 7 0 5 6 0 0 0 0 0 0 0
293 244 262 95 147 219 145 155 66 125 173 227 306 353 454 578 474 545 29 19 18 24 0 2 24 1 0 0 0 0 0 1 8 11 15 3 1 5 1 13 13 0 0 0 0 0 0 0 0 0 0 0 0 0
172 53 39 84 127 131 175 100 128 252 234 254 329 484 404 461 279 88 0 0 0 0 4 1 1 0 0 0 0 0 1 4 0 0 0 0 0 0 0 10 11 19 22 26 30 0 0 0 0 0 0 0 0 0

GFSWCAN_con_mucape_036.txt.gz
CAPE
0 0 0 0 0 0 0 0 0 0 0 0 0 0 0 0 0 0 0 3 0 0 0 0 0 0 0 0 0 43 40 54 183 177 15 132 110 8 1 0 0 0 0 0 0 0 2 0 0 0 69 86 0 0
0 0 0 0 0 0 0 0 0 0 0 0 0 0 0 0 0 0 0 2 4 0 0 2 0 0 0 0 0 6 33 24 53 106 139 45 48 48 46 1 0 1 0 0 0 0 0 2 0 0 0 14 46 1
0 0 0 0 0 0 0 0 0 0 0 0 0 0 0 0 0 0 0 0 0 0 0 0 0 0 2 0 23 0 0 0 14 38 21 29 70 27 43 40 0 8 23 8 0 0 0 0 0 0 0 0 1 12
0 0 0 0 0 0 0 0 0 0 0 0 0 0 0 0 0 0 0 0 3 0 0 0 3 0 3 14 28 0 0 0 0 0 0 24 17 27 17 16 0 0 0 0 0 0 13 0 0 0 0 0 0 0
0 0 0 0 0 0 0 0 0 0 0 0 0 0 0 0 0 0 0 0 0 0 0 0 0 0 0 0 0 0 0 0 0 0 0 0 0 0 0 0 0 3 13 0 1 7 23 14 0 0 0 0 0 0
0 0 0 0 0 0 0 0 0 0 0 0 0 0 0 0 0 0 0 0 1 0 0 0 0 0 0 0 0 0 0 0 0 0 0 0 0 0 0 1 0 0 0 0 0 0 0 0 0 0 0 0 0 0
0 0 0 0 0 0 0 0 0 0 0 0 0 0 0 0 0 0 0 0 0 0 0 0 0 0 0 0 0 0 0 0 0 0 0 0 0 0 0 0 0 0 3 2 0 0 0 0 0 0 0 0 0 0
0 0 0 0 0 0 0 0 0 0 0 0 0 0 0 0 0 0 0 0 0 0 0 0 0 0 0 0 0 0 0 0 0 0 0 0 0 0 0 0 0 0 31 33 19 0 0 0 0 0 0 0 1 0
0 0 0 0 0 0 0 0 0 0 0 0 0 0 0 0 0 0 0 0 0 0 0 4 0 0 0 0 0 0 0 0 0 0 0 0 0 0 0 0 0 0 0 94 0 0 13 0 0 0 6 10 0 0
0 0 0 0 0 0 0 0 0 0 0 0 0 0 0 0 0 0 0 0 0 0 0 5 27 1 0 0 0 0 0 0 0 0 0 0 0 0 0 0 0 0 13 23 47 0 6 0 0 0 5 8 7 7
0 0 0 0 0 0 0 0 0 0 0 0 3 8 0 0 0 0 12 0 14 8 6 25 11 23 0 0 0 0 48 11 0 0 0 0 0 0 0 0 0 0 0 4 9 34 22 0 0 0 0 20 29 51
0 0 0 0 0 0 0 0 0 0 0 0 0 3 0 8 3 1 0 0 23 102 77 101 116 39 16 0 0 94 112 85 0 34 0 0 0 82 43 0 0 0 0 0 0 2 27 20 19 28 30 10 1 20
0 0 0 0 0 0 0 0 0 0 0 0 32 35 13 10 6 0 33 31 50 21 41 56 106 151 336 201 306 134 44 84 47 5 0 49 153 128 75 12 48 35 0 0 0 0 0 0 1 1 0 5 32 37
0 0 0 0 0 0 0 0 0 0 0 5 3 1 21 28 31 27 33 30 32 20 106 245 293 370 173 88 45 52 70 30 0 0 0 84 146 124 100 54 11 11 53 1 0 0 0 0 0 0 0 0 10 18
0 0 0 0 0 0 0 0 0 0 89 1 7 5 15 9 7 5 4 4 5 29 223 265 315 130 20 10 12 2 24 0 0 0 72 36 129 144 82 61 65 27 0 47 49 47 27 0 0 0 0 0 2 0
0 0 0 0 0 0 0 10 0 118 3 2 0 0 0 0 0 0 0 0 0 22 162 114 29 12 7 10 26 38 2 0 38 86 101 39 114 118 96 97 70 48 23 3 61 26 66 35 4 0 0 0 0 0
0 94 0 0 0 0 0 96 76 0 0 8 9 1 0 0 0 0 0 0 0 6 5 24 20 10 12 24 40 45 52 64 98 71 112 119 95 107 139 113 45 21 43 11 8 26 33 49 87 16 0 0 0 0
0 11 0 0 0 133 313 113 33 45 42 25 69 18 2 0 0 0 0 0 0 0 4 3 7 9 5 0 0 13 23 32 59 62 45 82 91 76 101 39 52 40 29 19 13 47 12 23 49 52 52 52 34 26
0 0 0 0 0 58 226 85 239 77 59 30 52 141 49 9 0 1 0 0 0 0 0 0 0 5 11 7 0 0 8 4 2 14 40 55 116 116 124 18 17 14 17 16 0 17 18 37 8 7 7 5 0 0
0 0 0 0 7 825 248 261 365 175 87 33 161 83 33 110 1 2 4 0 0 0 0 0 0 2 2 2 2 0 3 0 1 1 4 0 0 8 46 10 3 19 3 16 6 0 18 18 16 0 0 0 0 0
3 85 0 105 1063 725 136 112 502 107 155 201 150 206 196 160 37 0 4 4 2 0 0 2 0 0 2 0 1 1 0 0 0 0 0 0 0 9 7 7 3 1 4 4 14 11 2 0 0 5 1 2 0 0
206 0 276 474 560 379 458 94 208 289 298 307 100 97 149 161 123 4 2 20 4 0 0 0 0 0 1 1 1 3 0 0 11 1 0 0 0 0 9 4 5 5 3 5 6 9 1 0 0 5 3 3 1 0
22 88 712 514 371 153 101 300 396 240 113 181 191 108 86 114 178 57 48 20 20 1 8 0 0 5 7 5 7 13 0 0 0 0 0 0 0 0 1 5 6 6 5 5 11 10 6 0 1 5 6 3 5 5
83 649 658 497 107 5 234 374 200 178 183 209 217 95 229 258 134 180 32 25 4 3 84 41 20 17 60 157 25 3 0 0 0 0 0 0 0 0 1 6 5 9 0 2 9 13 11 11 1 6 5 0 1 9
298 0 88 0 32 57 106 20 23 41 51 94 147 232 295 168 128 92 35 34 19 14 4 5 0 3 9 14 4 3 0 0 0 0 1 0 0 0 1 5 11 2 0 2 8 11 18 15 12 6 6 0 0 6
55 12 0 23 45 80 66 55 55 61 51 34 70 133 329 266 152 61 46 41 44 13 12 20 17 3 25 24 5 0 0 0 0 0 0 0 1 2 2 2 7 4 0 3 13 14 13 12 12 13 15 8 1 11
0 124 217 63 18 118 347 320 252 156 45 43 70 73 149 2 41 160 152 76 117 49 21 47 15 11 6 11 2 0 0 0 0 0 0 0 1 5 3 8 0 0 0 4 3 4 14 21 18 15 19 26 19 16
310 168 31 240 470 224 342 84 15 43 7 4 72 116 178 208 290 380 188 110 103 55 41 35 6 6 4 3 0 0 0 0 3 9 18 7 11 5 2 13 4 0 0 1 0 9 1 1 7 8 23 26 17 21
294 306 498 214 257 370 127 20 5 203 292 233 134 147 135 152 17 94 155 125 106 58 39 47 21 7 10 17 17 8 2 0 0 6 19 29 20 14 11 16 16 16 9 0 0 0 0 0 0 0 17 30 27 25
434 538 540 159 132 260 304 402 498 198 125 59 89 181 329 340 380 209 238 239 166 78 101 77 52 32 17 16 2 0 1 9 4 0 0 12 16 19 15 19 16 16 21 21 13 4 0 2 6 13 16 26 22 19
338 372 195 225 245 233 275 229 228 40 86 195 101 36 85 226 188 155 161 95 14 46 45 35 18 18 4 1 0 0 0 3 6 0 0 6 12 12 13 19 11 14 22 26 23 23 23 8 6 0 0 0 0 0
359 342 272 60 61 81 223 388 371 51 127 185 262 402 467 575 585 212 0 0 1 12 1 4 1 0 0 0 0 0 0 0 0 0 0 0 0 0 0 5 12 18 26 27 29 31 30 25 0 0 0 0 0 0
322 331 209 152 268 105 76 151 69 147 343 332 112 255 230 271 138 4 0 0 0 0 0 0 0 0 0 0 0 0 0 0 0 0 0 0 0 0 0 0 0 2 12 21 23 30 25 31 21 22 0 0 0 0

GFSWCAN_con_mucape_039.txt.gz
CAPE
0 0 0 0 0 0 0 0 0 0 0 0 0 0 0 0 0 0 0 2 0 0 0 0 0 0 0 0 0 0 3 6 47 24 66 38 0 0 0 0 0 0 0 0 16 20 68 5 1 10 0 0 25 35
0 0 0 0 0 0 0 0 0 0 0 0 0 0 0 0 0 0 0 0 6 0 0 0 0 0 3 0 0 0 0 23 32 0 3 1 0 0 1 0 0 0 0 0 7 7 0 0 0 0 0 0 27 0
0 0 0 0 0 0 0 0 0 0 0 0 0 0 0 0 0 0 0 0 0 0 0 0 0 0 0 8 3 0 0 0 9 20 3 2 2 0 0 1 0 0 0 0 0 0 0 0 0 0 0 0 30 0
0 0 0 0 0 0 0 0 0 0 0 0 0 0 0 0 0 0 0 0 0 0 0 0 1 0 0 0 0 12 0 0 0 0 0 0 0 0 0 0 0 0 0 0 0 0 0 0 0 0 0 0 0 0
0 0 0 0 0 0 0 0 0 0 0 0 0 0 0 0 0 0 0 0 0 0 0 0 0 0 1 0 0 0 0 0 0 0 0 0 0 0 0 0 0 0 0 0 0 0 0 0 0 0 0 0 0 0
0 0 0 0 0 0 0 0 0 0 0 0 0 0 0 0 0 0 0 0 0 0 0 0 0 0 0 0 0 0 0 0 0 0 0 0 0 0 1 0 0 0 1 5 0 0 0 0 0 0 0 0 0 0
0 0 0 0 0 0 0 0 0 0 0 0 0 0 0 0 0 0 0 0 0 0 0 0 0 0 0 0 0 0 0 0 0 0 0 0 0 0 0 0 0 0 0 0 7 0 0 0 0 0 0 0 0 0
0 0 0 0 0 0 0 0 0 0 0 0 0 0 0 0 0 0 0 0 0 0 0 0 0 0 0 0 0 0 0 0 0 0 0 0 0 0 0 0 0 0 0 0 0 2 0 0 0 0 0 0 0 0
0 0 0 0 0 0 0 0 0 0 0 0 0 0 0 0 0 0 0 0 0 0 5 22 23 0 0 0 0 0 0 0 0 0 0 0 0 0 0 0 0 0 0 0 0 0 0 0 0 0 0 0 0 0
0 0 0 0 0 0 0 0 0 0 0 0 0 0 0 0 0 0 0 0 0 0 0 0 0 6 0 0 0 0 0 0 0 0 0 0 0 0 0 0 0 0 0 0 0 0 1 5 1 0 0 0 0 0
0 0 0 0 0 0 0 0 0 0 0 0 0 6 0 0 0 0 2 0 0 0 9 32 3 12 15 2 7 1 32 7 2 3 2 0 0 3 51 0 0 0 0 0 2 1 14 0 0 0 0 0 2 6
0 0 0 0 0 0 0 0 0 0 0 0 0 12 0 0 0 40 16 55 107 40 145 64 26 55 52 10 3 32 66 67 27 5 0 0 0 18 39 4 0 0 0 0 0 0 5 13 13 1 2 0 7 0
0 0 0 0 0 0 0 0 0 0 0 22 26 189 292 71 59 16 20 213 196 298 209 152 171 346 312 107 123 87 69 50 51 0 0 0 0 0 3 4 0 1 62 7 0 0 0 0 2 3 0 5 6 0
0 0 0 0 0 0 0 0 0 0 3 207 239 4 83 308 119 27 9 4 9 0 16 478 437 307 316 148 66 6 68 9 2 0 3 63 38 48 17 4 0 0 0 41 4 0 0 0 0 0 0 0 0 12
0 0 0 0 0 0 0 0 0 1 29 330 105 141 50 13 6 1 0 0 0 0 71 309 450 401 74 19 17 0 1 0 8 20 71 74 51 66 23 14 13 0 0 0 36 8 0 0 0 0 0 0 0 0
0 0 2 0 0 0 0 34 4 26 617 282 53 8 0 0 0 0 0 0 0 0 6 241 29 11 10 37 25 21 17 0 46 82 90 63 76 66 49 52 36 14 10 3 8 50 7 0 0 0 0 0 0 0
0 65 1 0 0 0 28 199 1012 290 127 149 171 43 6 0 0 0 0 0 0 0 1 13 12 1 16 4 3 53 49 68 113 94 102 91 86 61 57 97 45 44 38 18 1 38 47 9 0 0 0 0 0 0
0 2 0 0 0 44 1247 521 317 103 40 107 310 373 326 32 2 1 0 0 0 0 0 24 3 0 0 0 0 2 1 0 0 18 98 123 127 102 116 104 60 65 66 30 44 47 18 12 30 14 7 2 0 0
0 0 0 0 0 28 744 346 567 295 161 235 384 208 190 324 235 270 28 105 218 9 0 0 0 0 0 0 0 0 0 0 0 0 51 76 125 85 120 70 10 44 93 19 24 37 57 23 0 0 0 0 0 0
0 0 0 0 0 647 967 820 1073 810 284 388 615 474 413 471 430 88 114 9 10 0 0 0 0 0 0 0 0 0 0 0 0 1 9 0 0 3 106 58 21 29 18 62 0 0 0 2 4 0 0 0 0 0
7 168 3 5 728 449 797 467 556 761 518 505 645 786 669 712 732 140 114 320 0 0 0 0 0 0 0 0 0 0 0 0 0 0 4 0 0 3 47 13 14 5 5 0 15 0 0 0 0 0 0 0 0 0
184 17 263 737 708 670 733 827 414 933 845 732 704 655 642 674 494 263 295 317 163 32 10 3 4 0 40 39 1 1 2 0 13 14 0 2 0 0 5 6 11 6 3 3 2 0 0 0 0 0 0 0 0 0
85 102 699 873 311 106 65 863 663 868 434 428 670 409 508 414 624 529 335 315 224 236 75 96 123 141 76 148 199 93 32 22 3 0 1 1 0 1 0 9 3 0 0 0 1 16 1 0 0 0 0 0 0 9
465 470 832 688 330 0 476 627 917 693 769 570 473 296 497 500 487 299 327 284 93 75 194 469 349 157 313 286 149 33 9 0 0 0 0 0 0 0 2 0 0 0 0 0 0 17 6 10 0 0 0 0 2 3
262 3 150 7 58 156 9 176 83 222 149 243 394 614 718 36 0 82 55 90 81 100 194 217 89 43 39 32 18 0 0 0 0 0 0 0 0 0 0 0 0 0 0 0 0 3 4 6 3 0 0 0 0 0
376 56 0 70 317 133 76 156 62 62 8 0 294 487 211 37 10 30 23 95 240 64 82 55 23 20 10 56 9 0 0 0 0 0 0 0 0 0 0 0 0 0 0 0 0 0 3 6 2 18 3 2 0 1
0 124 397 470 318 433 126 68 5 31 2 10 95 150 207 144 27 0 0 15 51 109 95 45 42 4 16 39 8 0 0 0 10 10 2 2 6 1 6 1 0 0 0 0 0 0 0 0 1 6 9 2 0 0
424 711 440 554 602 262 65 1 0 7 136 169 89 69 156 103 28 0 81 60 21 101 39 19 35 15 18 11 4 0 1 0 14 23 2 8 3 0 6 1 0 0 0 0 0 0 0 0 0 10 10 14 0 1
270 359 236 411 581 218 193 87 113 106 285 330 273 277 55 2 28 54 251 268 177 149 109 107 127 80 56 80 23 54 12 9 2 2 6 10 9 0 0 0 0 1 8 1 0 0 0 0 0 0 15 20 27 12
421 510 468 427 551 362 747 489 445 452 332 417 154 178 251 233 366 276 285 76 70 119 110 62 33 31 16 8 2 0 0 0 0 0 0 0 1 0 0 1 1 0 9 25 18 14 1 2 4 8 8 1 0 12
286 366 215 307 518 380 242 439 468 450 107 81 69 72 243 151 198 305 24 20 36 28 7 0 0 0 0 2 0 0 0 0 0 0 0 0 0 0 0 8 12 26 32 23 30 23 14 17 20 11 0 0 0 0
421 482 81 211 417 424 327 257 299 174 196 222 72 66 503 308 277 61 0 0 0 0 0 0 0 0 0 0 0 0 0 0 0 0 0 0 0 0 0 0 0 0 16 17 27 11 23 23 26 16 0 0 0 0
573 333 638 362 323 196 157 232 175 286 358 288 182 274 308 157 5 0 15 0 0 0 0 0 0 0 0 0 0 0 0 0 0 0 0 0 0 0 0 0 0 1 22 55 52 20 8 11 18 27 35 35 0 0

GFSWCAN_con_mucape_042.txt.gz
CAPE
0 0 0 0 0 0 0 0 0 0 0 0 0 0 0 0 0 0 0 5 0 0 0 0 0 0 0 0 0 4 0 0 0 0 0 0 6 2 0 0 0 13 48 32 0 12 48 7 20 11 7 10 25 74
0 0 0 0 0 0 0 0 0 0 0 0 0 0 0 0 0 0 0 0 8 0 0 0 2 0 0 3 0 0 0 0 0 0 0 0 4 0 0 0 0 7 11 33 7 2 0 0 6 0 0 9 21 40
0 0 0 0 0 0 0 0 0 0 0 0 0 0 0 0 0 0 0 0 0 0 0 0 0 7 8 22 5 0 0 0 0 0 0 0 0 0 0 0 0 0 0 2 0 0 4 0 0 0 3 5 23 2
0 0 0 0 0 0 0 0 0 0 0 0 0 0 0 0 0 0 0 0 0 0 0 0 2 1 0 0 0 0 0 0 0 0 0 0 0 0 0 0 0 0 0 0 0 0 0 0 0 0 0 18 4 0
0 0 0 0 0 0 0 0 0 0 0 0 0 0 0 0 0 0 0 0 0 0 0 0 0 0 0 0 0 0 0 0 0 2 12 10 0 0 0 0 0 0 0 0 2 0 0 0 0 0 0 0 11 0
0 0 0 0 0 0 0 0 0 0 0 0 0 0 0 0 0 0 0 0 0 0 0 0 0 0 0 0 0 0 0 0 0 0 0 0 0 0 0 0 0 0 0 0 0 0 5 0 0 0 0 0 0 0
0 0 0 0 0 0 0 0 0 0 0 0 0 0 0 0 0 0 0 0 0 0 0 0 0 0 0 0 0 0 0 0 0 0 0 0 0 0 0 0 0 0 0 0 0 0 0 0 0 0 0 0 0 0
0 0 0 0 0 0 0 0 0 0 0 0 0 0 0 0 0 0 0 0 0 0 1 14 0 0 0 0 0 0 0 0 0 0 0 0 0 0 0 0 0 0 0 0 0 0 0 0 0 0 0 0 0 0
0 0 0 0 0 0 0 0 0 0 0 0 0 0 0 0 0 0 0 0 0 0 0 3 0 28 0 0 0 0 0 0 0 0 0 0 0 0 0 0 0 0 0 0 0 0 0 0 0 0 0 0 0 0
0 0 0 0 0 0 0 0 0 0 0 0 0 0 0 0 0 0 0 0 0 0 2 13 16 16 1 0 1 0 0 1 2 0 0 0 0 0 0 0 0 0 0 0 0 0 0 0 0 0 0 0 0 0
0 0 0 0 0 0 0 0 0 0 0 0 0 1 0 0 0 0 8 0 1 10 19 25 33 38 29 16 1 10 80 2 11 0 0 0 0 0 0 0 18 7 0 0 0 0 0 7 32 2 1 0 0 0
0 0 0 0 0 0 0 0 0 0 0 0 0 0 19 12 5 4 5 25 56 41 92 57 31 38 42 44 25 12 25 11 7 0 0 0 1 0 15 19 6 37 13 2 0 0 0 6 9 7 0 2 1 0
0 0 0 0 0 0 0 0 0 0 0 4 78 1 157 28 36 19 9 0 6 21 47 19 56 129 81 83 56 30 18 12 0 0 31 15 0 0 7 25 10 8 27 20 4 0 0 0 0 2 1 0 7 0
0 0 0 0 0 0 0 0 0 0 2 27 214 0 1 0 0 0 0 0 0 0 0 23 140 65 101 63 0 16 4 0 0 0 0 30 24 0 0 0 23 1 6 40 10 4 0 0 0 0 1 0 0 0
0 0 0 0 0 0 0 0 0 0 0 209 8 0 0 0 0 0 0 0 0 0 3 70 146 8 0 2 0 0 0 0 0 4 18 27 15 1 0 0 9 7 1 29 42 17 0 0 0 0 0 0 0 0
0 0 0 0 0 0 0 13 11 0 52 110 0 1 0 0 0 0 0 0 0 0 1 0 0 0 0 0 0 0 0 0 0 20 18 18 13 4 0 0 7 3 2 6 34 47 12 3 0 0 0 0 0 0
0 0 0 0 0 0 0 0 109 266 0 7 48 6 2 0 0 0 0 0 0 0 0 0 0 0 0 0 0 0 0 0 0 0 3 30 30 14 8 0 1 0 5 3 7 31 38 35 8 4 0 0 0 0
0 0 0 0 0 0 184 233 107 0 16 0 7 15 36 16 0 0 0 0 0 0 0 0 0 0 0 0 0 0 0 0 0 0 10 17 24 35 40 31 0 0 0 7 15 0 0 4 15 0 0 0 0 0
0 0 0 0 0 0 113 312 0 125 78 34 14 31 30 1 2 0 0 0 0 0 0 0 0 0 0 0 0 0 0 0 0 0 0 0 0 0 15 2 0 1 0 0 0 0 1 1 0 0 0 0 0 0
0 0 0 0 0 25 717 370 54 100 132 0 17 73 79 36 24 0 0 5 0 0 0 0 0 0 0 0 0 0 0 0 0 0 0 0 0 0 0 2 0 0 0 0 0 0 0 0 0 0 0 0 0 0
5 176 68 0 218 390 370 67 40 230 51 0 123 100 63 54 95 1 4 16 0 0 0 0 0 0 0 0 0 0 0 0 0 0 0 0 0 0 0 0 0 0 0 0 0 0 0 0 0 0 0 0 0 0
6 14 0 282 346 677 511 173 46 0 103 114 214 118 80 90 93 48 26 19 0 1 1 0 0 0 0 0 0 0 0 0 0 0 0 0 0 0 0 0 0 1 0 0 0 0 0 0 0 0 0 0 0 0
92 27 242 428 539 140 0 2 98 165 180 23 115 81 53 83 2 12 30 24 7 29 24 17 2 0 0 1 14 18 4 0 1 2 0 0 0 0 0 0 0 0 0 0 0 0 0 0 0 0 0 0 0 0
350 230 503 435 240 51 1 277 375 432 183 154 78 111 101 48 14 11 34 9 0 22 17 1 0 2 14 28 11 3 1 15 20 1 0 0 0 0 0 0 0 0 0 0 1 0 0 0 0 0 0 0 0 0
100 6 0 3 0 1 8 13 0 0 0 0 4 34 132 24 12 0 0 0 0 0 0 2 1 10 1 0 0 0 27 26 0 0 0 0 0 0 0 0 0 1 0 0 0 0 3 3 0 0 0 0 0 0
442 5 0 3 78 86 12 33 27 1 1 0 0 65 28 15 2 2 0 1 13 36 9 11 28 4 4 0 1 0 2 0 0 0 0 0 0 0 0 0 0 0 0 0 0 0 0 0 0 0 0 0 0 0
136 0 43 20 73 42 18 8 0 5 0 0 36 68 58 0 0 0 1 20 85 37 44 35 13 7 0 0 0 3 7 4 0 0 0 0 0 0 0 0 0 0 0 0 0 0 0 1 0 0 0 0 0 0
408 326 250 237 184 96 70 19 15 2 26 62 46 0 0 0 2 7 4 9 41 18 24 49 15 8 3 8 7 7 3 2 1 0 0 0 0 0 0 0 0 0 0 0 0 0 0 0 0 0 0 0 0 0
254 124 188 142 168 96 119 43 60 35 60 55 65 15 4 0 5 11 44 110 73 25 55 49 28 9 20 10 6 7 5 13 13 5 1 1 1 1 5 8 2 0 0 0 0 0 0 0 0 0 2 4 1 2
166 208 279 310 319 344 241 82 168 154 222 118 3 15 13 22 52 26 6 0 0 0 9 10 12 21 22 26 28 15 6 0 0 0 1 0 5 8 10 9 3 0 0 0 0 0 6 6 8 4 2 0 0 0
171 266 109 32 103 145 196 127 47 33 27 14 22 19 40 0 0 0 0 0 0 0 0 0 0 3 3 0 0 0 0 0 0 0 0 0 0 2 5 3 4 3 4 9 3 0 2 0 6 0 0 0 0 0
384 331 242 143 145 135 77 35 27 41 29 28 31 139 19 19 60 0 0 0 0 0 0 0 0 0 0 0 0 0 0 0 1 0 0 0 0 0 0 0 8 3 9 17 4 4 0 6 1 0 0 0 0 0
310 277 218 202 216 51 77 38 94 19 20 14 14 49 124 12 0 0 0 0 0 0 0 0 0 0 0 0 0 0 0 0 0 0 0 0 0 0 0 0 0 0 5 11 9 3 1 0 1 2 7 0 0 0

GFSWCAN_con_mucape_045.txt.gz
CAPE
0 0 0 0 0 0 0 0 0 0 0 0 0 0 0 0 0 0 0 0 0 0 0 0 5 0 0 0 0 0 3 0 0 0 0 0 0 0 0 0 0 0 14 28 83 73 62 80 29 38 20 0 0 7
0 0 0 0 0 0 0 0 0 0 0 0 0 0 0 0 0 0 0 0 0 0 0 4 6 0 8 0 0 0 0 0 0 0 0 0 0 0 0 0 0 0 6 50 52 66 25 61 48 34 10 0 0 11
0 0 0 0 0 0 0 0 0 0 0 0 0 0 0 0 0 0 0 0 0 0 0 0 0 0 0 9 14 0 0 0 0 0 0 0 0 0 0 0 0 0 0 0 35 30 70 59 44 32 11 2 9 15
0 0 0 0 0 0 0 0 0 0 0 0 0 0 0 0 0 0 0 0 0 0 0 0 0 0 0 0 0 0 0 0 0 3 0 0 0 0 0 0 0 0 0 0 0 5 30 18 7 50 56 3 0 1
0 0 0 0 0 0 0 0 0 0 0 0 0 0 0 0 0 0 0 0 0 0 0 0 0 0 0 0 0 0 0 0 2 0 0 0 0 0 0 0 0 0 0 34 34 0 5 5 0 3 8 0 0 0
0 0 0 0 0 0 0 0 0 0 0 0 0 0 0 0 0 0 0 0 0 0 0 0 0 0 0 0 0 0 0 0 0 0 0 0 0 0 0 0 0 0 0 0 0 0 0 0 0 0 2 0 0 0
0 0 0 0 0 0 0 0 0 0 0 0 0 0 0 0 0 0 0 0 0 0 0 0 0 0 0 4 2 5 0 0 0 0 0 0 0 0 0 0 0 0 0 0 0 0 0 0 0 0 0 0 0 0
0 0 0 0 0 0 0 0 0 0 0 0 0 0 0 0 0 0 0 0 0 1 0 0 7 0 12 18 10 0 0 0 0 0 0 0 0 0 0 0 0 0 0 0 0 0 0 0 0 0 0 0 0 0
0 0 0 0 0 0 0 0 0 0 0 0 0 0 0 0 0 0 0 0 0 0 1 7 2 26 9 9 0 0 0 0 0 0 0 0 0 0 0 0 0 0 0 0 0 0 0 0 0 0 0 0 0 0
0 0 0 0 0 0 0 0 0 0 0 0 0 0 0 0 0 0 0 0 0 0 9 21 4 6 28 7 0 0 0 0 0 0 0 0 0 0 0 1 34 0 0 0 0 0 0 0 0 0 0 0 0 0
0 0 0 0 0 0 0 0 0 0 0 0 0 4 2 27 0 0 26 2 17 15 17 23 3 1 29 53 29 0 10 0 0 2 0 0 0 0 6 15 14 29 28 0 0 0 0 0 0 0 0 0 9 29
0 0 0 0 0 0 0 0 0 0 0 0 1 0 18 94 53 0 0 7 21 24 20 26 31 31 20 5 5 6 18 9 0 0 0 0 0 2 0 0 3 18 7 6 0 0 0 0 0 0 0 0 4 5
0 0 0 0 0 0 0 0 0 0 0 0 57 12 109 13 4 0 0 0 0 0 1 0 17 106 63 14 38 17 7 0 0 0 0 0 32 0 0 0 0 2 19 10 5 0 0 0 0 0 0 0 0 4
0 0 0 0 0 0 0 0 0 0 0 0 91 2 0 0 0 0 0 0 0 0 0 1 90 57 89 41 0 5 0 0 0 0 0 0 2 0 0 0 0 0 12 23 9 0 0 0 0 0 0 0 0 0
0 0 0 0 0 0 0 0 0 0 0 8 29 0 4 1 0 0 0 0 0 0 0 95 5 0 0 0 0 0 0 0 0 0 0 8 5 0 0 0 0 0 0 20 30 14 0 0 0 0 0 0 0 0
0 0 0 0 0 0 0 0 0 0 0 33 21 0 4 1 5 0 0 0 0 0 0 0 0 0 0 0 0 0 0 0 0 0 5 15 19 10 0 0 0 0 0 11 18 39 14 0 0 0 0 0 0 0
0 0 0 0 0 0 0 0 0 1 0 0 2 4 1 7 2 0 0 0 0 0 0 0 0 0 0 0 0 0 0 0 0 0 0 9 20 18 8 3 6 0 0 2 4 17 25 16 6 6 0 1 4 0
0 0 0 0 0 0 3 18 1 0 0 0 2 12 9 3 0 0 6 0 0 0 0 0 0 0 0 0 0 0 0 0 0 0 0 0 0 0 0 9 0 0 3 4 6 0 11 11 20 0 0 0 0 0
0 0 0 0 0 0 0 261 119 0 1 14 15 18 11 32 25 12 7 0 0 0 0 0 0 0 0 0 0 0 0 0 0 0 0 0 0 0 0 0 0 0 0 0 0 0 0 0 0 0 0 0 0 0
0 0 0 46 0 0 334 549 6 1 1 0 1 0 20 60 75 40 17 10 17 0 0 0 0 0 0 0 0 0 0 0 0 0 0 0 0 0 0 0 0 0 0 0 0 0 0 0 0 0 0 0 0 0
0 99 6 0 12 83 102 204 0 7 50 26 2 38 109 103 96 21 3 49 27 35 2 1 0 2 0 0 0 0 0 0 0 0 0 0 0 0 0 0 0 0 0 0 0 0 0 0 0 0 0 0 0 0
0 0 0 2 263 409 521 217 22 21 22 25 26 104 145 38 15 11 2 4 10 21 12 8 16 7 0 0 0 0 1 2 0 0 0 0 0 0 0 0 0 2 3 1 0 0 0 0 0 0 0 0 0 0
24 84 0 218 422 208 29 0 0 30 47 56 93 100 32 14 14 13 3 3 10 5 1 2 0 0 10 1 3 16 22 11 1 0 0 0 0 0 0 0 5 5 6 5 1 0 0 0 0 0 0 0 0 0
37 141 301 400 306 132 1 3 139 236 147 91 30 14 20 15 3 0 0 1 2 7 1 0 2 0 7 19 27 26 10 6 2 1 0 0 0 0 0 0 0 0 1 2 0 1 0 0 0 0 0 0 0 0
0 0 0 0 0 0 0 3 4 4 0 0 0 0 0 0 0 0 0 0 1 9 0 5 21 3 7 0 7 1 2 15 4 16 4 0 0 0 0 0 0 0 0 0 0 6 13 3 2 0 0 0 0 0
200 41 0 3 12 22 0 0 1 0 0 0 3 0 0 0 0 0 0 1 0 14 25 39 18 10 2 1 4 11 14 33 26 5 0 0 0 0 0 0 0 0 0 0 0 5 9 8 8 3 2 3 1 0
164 0 25 69 44 26 19 19 5 17 5 22 24 0 2 0 0 0 6 11 58 76 77 64 17 9 1 0 4 31 27 8 5 1 7 8 4 0 1 0 0 0 0 0 0 0 5 7 0 0 9 10 1 0
65 274 144 120 86 43 40 21 23 5 13 36 24 1 4 1 0 0 28 55 51 56 55 19 2 8 16 23 39 22 9 1 5 17 21 9 2 7 4 1 2 3 0 0 0 0 0 4 5 7 1 0 4 0
31 236 242 125 148 141 138 73 35 21 5 45 51 12 5 0 0 0 0 2 13 172 90 55 40 39 30 25 18 3 0 0 8 9 7 14 17 3 11 17 11 10 1 1 0 0 0 1 5 10 18 12 5 7
35 77 94 118 192 270 323 142 58 27 59 87 19 8 1 0 3 0 0 0 0 0 15 32 14 19 7 0 0 0 0 0 0 0 0 0 2 2 4 9 23 13 2 2 1 3 2 6 5 6 3 1 4 5
165 146 147 184 35 48 97 78 44 49 25 37 23 5 0 0 0 0 0 0 0 0 0 0 0 0 0 0 0 0 0 0 0 0 0 0 0 0 0 3 4 8 3 3 1 1 0 0 0 0 0 0 0 0
209 178 244 263 156 121 83 58 28 32 30 30 8 0 0 0 1 0 0 0 0 0 0 0 0 0 0 0 0 0 0 0 0 0 0 0 0 0 0 7 7 12 12 11 8 2 0 0 0 0 0 0 0 0
220 251 224 177 123 66 66 29 11 2 0 1 22 13 12 10 6 0 0 0 0 0 0 0 0 0 0 0 0 0 0 0 0 0 0 0 0 0 0 0 0 0 0 0 0 0 0 0 0 0 0 0 0 0

GFSWCAN_con_mucape_048.txt.gz
CAPE
0 0 0 0 0 0 0 0 0 0 0 0 0 0 0 0 0 0 0 0 0 0 0 0 0 0 0 0 0 0 0 0 0 0 0 0 0 0 0 0 1 1 0 0 0 66 53 80 30 6 0 0 5 41
0 0 0 0 0 0 0 0 0 0 0 0 0 0 0 0 0 0 0 0 0 0 0 0 0 0 0 0 3 0 0 0 0 0 0 0 0 0 0 11 0 2 0 0 0 72 51 73 60 4 0 0 10 25
0 0 0 0 0 0 0 0 0 0 0 0 0 0 0 0 0 0 0 0 0 0 0 0 0 0 0 0 3 0 4 8 0 0 0 0 0 0 0 31 3 0 0 0 16 0 142 72 55 0 2 9 0 1
0 0 0 0 0 0 0 0 0 0 0 0 0 0 0 0 0 0 0 0 0 0 0 0 0 0 0 0 0 0 0 0 0 0 0 0 0 0 0 0 0 0 0 0 0 0 40 10 43 19 31 4 13 0
0 0 0 0 0 0 0 0 0 0 0 0 0 0 0 0 0 0 0 1 0 0 0 0 0 1 1 0 0 0 0 0 0 0 0 0 0 0 0 0 0 0 0 0 1 0 0 6 12 3 6 2 24 9
0 0 0 0 0 0 0 0 0 0 0 0 0 0 0 0 0 0 0 0 4 0 0 0 0 15 25 11 1 0 0 0 0 0 0 0 0 0 0 0 0 0 0 0 0 0 0 0 0 0 37 28 24 16
0 0 0 0 0 0 0 0 0 0 0 0 0 0 0 0 0 0 0 0 0 8 0 5 1 0 32 54 27 0 0 0 0 0 0 0 0 0 0 0 0 0 0 0 0 0 0 0 0 0 4 35 25 8
0 0 0 0 0 0 0 0 0 0 0 0 0 0 0 0 0 0 0 0 4 7 2 17 24 3 10 55 22 11 0 0 0 0 0 0 0 0 0 0 0 0 0 0 0 0 0 0 0 0 0 0 1 12
0 0 0 0 0 0 0 0 0 0 0 0 0 0 0 0 0 0 0 0 4 1 22 17 12 9 29 30 5 0 0 0 0 0 0 0 0 0 0 0 0 0 0 0 0 0 0 0 0 0 0 0 0 0
0 0 0 0 0 0 0 0 0 0 0 0 0 0 0 1 13 0 0 0 0 7 9 5 15 13 9 7 46 0 0 0 10 0 5 0 0 0 17 11 22 32 20 0 0 0 0 0 0 0 0 0 0 0
0 0 0 0 0 0 0 0 0 0 0 0 0 0 0 4 1 0 0 0 3 5 2 1 9 5 11 4 5 3 4 3 3 14 16 0 0 0 4 4 3 21 19 2 0 0 0 0 0 0 0 0 0 0
0 0 0 0 0 0 0 0 0 0 0 0 0 0 0 56 31 0 0 0 0 0 0 0 9 22 19 5 28 27 29 7 0 0 0 0 0 28 0 0 1 35 21 14 0 0 0 0 0 0 0 0 0 0
0 0 0 0 0 0 0 0 0 0 0 0 6 18 1 0 0 0 0 0 0 0 0 0 1 33 21 3 33 29 21 3 0 0 0 0 6 2 0 0 0 9 32 28 7 0 0 0 0 0 0 0 0 0
0 0 0 0 0 0 0 0 0 0 0 0 0 1 0 0 8 0 0 0 0 0 0 0 1 0 3 5 0 0 0 0 0 0 0 0 8 5 6 0 0 0 9 28 20 0 0 0 0 0 0 0 0 0
0 0 0 0 0 0 0 0 0 0 0 0 0 0 0 8 12 5 0 0 0 0 0 3 0 0 0 0 0 0 0 0 0 0 0 5 18 15 12 0 0 0 0 6 27 27 0 0 0 0 0 0 0 0
0 0 0 0 0 0 0 0 0 0 0 0 0 0 2 6 15 0 0 0 0 0 0 0 0 0 0 0 0 0 0 0 0 0 0 0 3 19 18 2 0 0 0 0 17 20 22 1 0 0 0 0 0 0
0 0 0 0 0 0 0 0 0 0 0 0 0 4 15 15 25 0 0 0 0 0 0 0 0 0 0 0 0 0 0 0 0 0 0 0 0 0 1 1 2 0 0 0 4 20 20 21 7 7 0 0 0 1
0 0 0 0 0 0 0 0 0 0 0 0 0 11 16 9 20 32 18 13 2 0 0 0 0 0 0 0 0 0 0 0 0 0 0 0 0 0 0 0 2 0 0 0 0 0 6 5 0 0 0 0 0 0
0 0 0 0 0 0 0 33 158 3 0 0 8 16 9 9 15 20 16 16 18 13 9 0 0 0 0 5 0 0 0 0 0 0 0 0 0 0 0 0 0 0 0 0 0 0 0 0 0 0 0 0 0 0
0 0 0 12 0 0 10 265 60 1 0 6 10 28 4 11 35 51 41 61 7 9 20 0 0 0 0 7 0 0 0 0 0 0 0 0 0 0 0 0 0 0 2 4 0 0 0 0 0 0 0 0 0 0
0 12 0 0 0 0 0 9 0 0 13 34 27 24 9 43 45 12 0 14 1 0 0 1 1 5 0 0 0 0 0 0 1 5 0 0 0 0 0 0 0 0 11 8 3 3 0 0 0 0 0 0 0 0
0 0 0 0 115 201 281 230 91 24 18 11 16 66 89 64 4 2 3 5 0 0 3 17 1 0 1 12 10 5 5 17 16 0 0 0 0 0 0 0 0 2 4 5 3 5 1 0 0 0 0 0 0 0
0 29 0 111 259 237 92 0 0 1 15 56 71 52 13 2 0 0 0 0 5 13 14 16 1 0 25 36 39 26 26 17 1 0 0 0 0 0 0 0 0 6 6 1 3 7 4 3 4 2 1 0 0 0
0 47 138 325 286 161 52 0 23 105 40 2 0 0 0 0 0 0 0 0 14 9 2 8 14 15 12 24 13 44 40 38 2 16 12 9 2 0 0 0 0 0 0 0 5 8 6 4 8 0 0 1 0 0
0 0 0 0 0 0 0 0 8 0 0 0 0 0 0 0 0 0 0 0 15 19 8 19 45 39 37 9 2 21 11 6 1 0 0 6 4 1 1 0 0 0 0 0 0 0 7 11 7 7 1 1 2 1
0 0 0 0 0 0 2 4 4 10 10 1 0 0 0 0 0 0 0 9 4 26 50 67 60 59 10 1 4 1 0 2 1 0 0 3 14 17 12 7 2 0 0 0 0 0 8 15 16 20 16 9 7 1
7 0 0 34 45 39 26 27 14 12 12 1 18 0 0 0 0 0 12 57 39 54 51 25 14 9 5 4 2 7 2 2 10 9 10 2 14 12 3 0 2 0 0 0 0 0 11 20 16 18 16 20 5 4
0 28 22 50 40 39 64 37 21 6 4 9 7 2 0 0 0 0 5 0 26 21 32 25 22 26 24 24 1 0 0 0 0 8 5 2 7 16 1 2 0 0 0 0 0 0 11 27 21 17 17 13 2 1
0 265 236 210 103 118 75 72 60 18 16 29 44 3 0 0 0 0 0 0 7 34 38 35 30 13 0 0 0 0 0 0 0 0 11 12 16 14 19 16 0 0 0 0 0 0 3 16 17 18 13 8 4 3
29 39 25 58 108 131 222 158 87 27 27 60 57 2 0 0 0 0 0 0 0 0 0 0 0 0 0 0 0 0 0 0 0 0 0 0 4 14 25 10 1 3 0 1 0 0 0 7 7 1 0 0 0 0
35 91 130 105 132 69 46 68 46 35 34 24 16 5 0 0 0 0 0 0 0 0 0 0 0 0 0 0 0 0 0 0 0 0 0 0 0 0 0 5 12 6 9 3 0 0 0 0 0 0 0 0 0 0
231 219 194 165 175 142 95 98 40 18 17 22 27 9 0 0 0 0 0 0 0 0 0 0 0 0 0 0 0 0 0 0 0 0 0 0 0 0 1 0 0 2 3 4 3 0 0 0 0 0 0 0 0 0
80 121 135 166 138 65 19 15 14 19 18 29 23 7 0 0 0 0 0 0 0 0 0 0 0 0 0 0 0 0 0 0 0 0 0 0 0 0 0 0 0 0 0 0 0 0 0 0 0 0 0 0 0 0

GFSWCAN_con_mucape_051.txt.gz
CAPE
0 0 0 0 0 0 0 0 0 0 0 0 0 0 0 0 0 0 0 0 0 0 0 0 0 0 0 5 0 0 0 0 0 0 0 0 0 0 5 6 11 11 0 0 0 0 35 1 37 27 10 6 131 121
0 0 0 0 0 0 0 0 0 0 0 0 0 0 0 0 0 0 0 0 0 0 0 0 0 0 0 0 0 0 0 0 0 0 0 0 0 0 0 0 1 0 0 11 0 0 0 0 39 34 31 18 99 213
0 0 0 0 0 0 0 0 0 0 0 0 0 0 0 0 0 0 0 0 0 0 0 0 0 0 0 0 0 0 0 0 0 0 0 0 0 0 0 0 0 0 0 0 0 0 0 0 8 8 24 27 25 55
0 0 0 0 0 0 0 0 0 0 0 0 0 0 0 0 0 0 0 0 1 0 0 0 0 0 2 0 0 0 0 0 0 0 0 0 0 0 0 0 0 0 0 0 0 0 1 0 0 1 0 5 11 69
0 0 0 0 0 0 0 0 0 0 0 0 0 0 0 0 0 0 0 0 0 0 0 0 0 0 11 0 0 0 0 0 0 0 0 0 0 0 0 0 0 0 0 0 0 0 0 0 0 0 0 0 10 28
0 0 0 0 0 0 0 0 0 0 0 0 0 0 0 0 0 0 0 0 0 2 0 0 3 15 20 11 0 0 0 0 0 0 0 0 0 0 0 0 0 0 0 0 0 0 0 0 0 0 4 6 3 12
0 0 0 0 0 0 0 0 0 0 0 0 0 0 0 0 0 0 0 1 0 0 0 1 4 0 1 20 0 0 0 0 0 0 0 0 0 0 0 0 0 0 0 0 0 0 0 0 0 0 0 0 0 0
0 0 0 0 0 0 0 0 0 0 0 0 0 0 0 0 0 0 0 0 0 0 2 12 6 0 2 24 12 0 0 0 0 0 4 0 0 0 0 0 64 23 0 0 0 0 0 0 0 0 0 0 0 3
0 0 0 0 0 0 0 0 0 0 0 0 0 0 0 0 0 0 0 0 0 0 7 12 8 122 9 14 14 1 1 0 0 13 19 2 0 0 0 44 74 82 0 0 0 0 0 0 0 0 0 0 0 0
0 0 0 0 0 0 0 0 0 0 0 0 0 0 0 0 0 0 0 0 0 0 8 1 6 29 8 10 4 9 0 0 0 16 7 0 0 42 45 32 51 53 31 0 0 0 0 0 0 0 0 0 0 0
0 0 0 0 0 0 0 0 0 0 0 0 0 0 0 0 0 0 0 0 0 0 0 0 0 12 25 65 64 4 18 5 0 0 0 0 0 14 29 22 25 50 12 1 0 0 0 0 0 0 0 0 0 0
0 0 0 0 0 0 0 0 0 0 0 0 0 0 0 0 0 0 0 0 0 0 0 2 11 0 23 9 34 45 61 6 2 0 0 0 0 42 20 1 8 31 11 0 0 0 0 0 0 0 0 0 0 0
0 0 0 0 0 0 0 0 0 0 0 0 0 0 0 0 0 0 0 0 0 0 0 0 0 10 19 8 40 53 28 17 0 0 0 0 71 62 36 18 0 4 30 8 4 0 0 0 0 0 0 0 0 0
0 0 0 0 0 0 0 0 0 0 0 0 0 0 0 0 2 10 0 0 0 0 0 0 0 40 3 12 0 7 0 0 0 0 0 0 57 51 44 33 1 1 22 49 20 7 11 16 19 16 8 0 0 0
0 0 0 0 0 0 0 0 0 0 0 0 0 0 0 0 3 4 0 0 0 0 0 9 0 0 0 0 0 0 0 0 0 0 0 46 34 45 63 35 24 27 6 53 81 53 18 18 25 34 47 58 6 0
0 0 0 0 0 0 0 0 0 0 0 0 0 1 0 0 14 11 0 0 0 0 0 0 0 0 0 0 0 0 0 0 0 7 4 0 0 7 57 46 44 46 12 23 65 110 89 69 60 59 44 41 35 39
0 0 0 0 0 0 0 0 0 0 0 0 0 0 4 18 18 18 25 12 0 0 0 0 0 0 0 0 0 0 0 0 0 0 0 0 0 0 0 0 1 28 20 48 64 92 90 93 85 41 3 5 7 12
0 0 0 0 0 0 0 0 0 0 53 126 0 16 4 9 1 28 13 7 7 0 0 2 0 0 0 0 0 2 0 0 0 0 0 0 0 0 0 0 0 13 35 34 27 27 40 45 1 0 0 0 0 0
0 0 0 0 0 0 0 0 0 26 0 0 0 0 0 21 15 6 14 16 18 19 66 19 15 0 0 0 0 0 0 0 0 0 0 0 0 0 0 0 3 4 26 6 4 0 7 0 0 0 0 0 0 0
0 0 0 0 0 0 0 158 38 5 0 17 0 4 9 23 21 32 15 12 31 18 23 0 2 0 1 0 0 0 1 1 0 2 3 0 0 0 0 0 0 1 4 9 9 3 0 0 0 0 0 0 0 0
0 0 0 0 0 0 0 2 44 0 0 7 0 4 21 49 23 1 0 0 0 0 1 5 3 1 1 16 0 4 0 0 1 1 11 0 0 0 0 0 0 0 1 6 2 2 1 1 0 0 0 0 0 0
0 0 0 0 3 71 189 142 146 54 6 9 29 17 67 60 7 0 1 14 1 14 2 1 7 52 79 81 106 47 16 21 5 4 0 0 0 0 0 0 0 1 1 1 2 7 4 8 5 1 1 0 0 1
0 0 0 0 158 187 56 0 0 0 111 210 0 29 22 0 0 0 70 46 32 19 13 8 54 167 145 200 48 31 17 16 13 17 1 3 0 0 1 0 0 0 0 0 0 2 8 7 7 4 0 0 4 8
0 0 13 169 224 110 20 0 0 43 30 0 3 36 14 0 0 0 46 117 41 20 4 35 100 80 57 57 62 59 33 27 9 0 1 0 0 0 1 0 0 0 0 0 0 4 12 9 7 13 12 0 0 6
0 0 0 0 0 0 0 2 19 1 4 1 9 23 16 1 0 0 67 82 53 105 185 353 243 75 45 30 11 2 21 14 7 7 7 4 0 0 0 0 0 2 0 0 3 7 11 20 35 57 44 10 0 13
0 0 0 0 0 2 10 12 8 5 3 1 21 19 3 2 0 0 89 48 94 237 372 318 217 75 9 0 0 1 0 1 11 26 15 25 9 4 0 8 1 0 0 0 6 26 34 52 61 57 45 11 0 23
0 0 1 2 14 13 15 11 5 0 1 14 53 0 23 0 0 0 0 0 118 177 82 67 49 44 7 9 0 0 0 0 12 19 13 21 8 0 17 29 12 0 0 0 6 6 33 41 42 40 36 27 41 35
0 0 36 19 17 41 61 19 12 8 7 23 3 7 0 0 0 0 0 0 2 0 1 2 0 0 0 0 0 0 0 0 0 0 3 13 11 1 0 0 4 2 0 0 0 13 25 29 30 35 28 24 24 23
4 199 154 241 61 60 126 157 132 41 22 30 48 14 2 0 0 0 0 0 0 0 0 0 0 0 0 0 0 0 0 0 0 0 0 8 8 6 29 57 21 46 2 0 0 0 22 36 35 36 27 30 18 15
0 11 84 43 150 248 291 149 136 36 16 11 18 0 0 0 0 0 0 0 0 0 0 0 0 0 0 0 0 0 0 0 0 0 0 0 0 0 9 51 47 4 2 0 3 1 1 4 4 11 10 10 23 27
18 25 87 114 204 114 110 74 89 57 30 27 14 4 0 0 0 0 0 0 0 0 0 0 0 0 0 0 0 0 0 0 0 0 0 0 0 0 0 4 15 39 38 13 6 6 3 2 7 10 0 0 0 9
107 168 219 183 151 154 143 114 89 51 32 43 32 9 0 0 0 0 0 0 0 0 0 0 0 0 0 0 0 0 0 0 0 0 0 0 0 0 1 2 3 3 8 14 10 7 8 5 0 0 0 0 0 0
106 83 94 116 133 79 35 25 12 22 16 22 22 18 0 0 0 0 0 0 0 0 0 0 0 0 0 0 0 0 0 0 0 0 0 0 0 0 0 0 0 0 0 1 5 0 0 0 0 0 0 0 0 0

GFSWCAN_con_mucape_054.txt.gz
CAPE
0 0 0 0 0 0 0 0 0 0 0 0 0 0 0 0 0 0 0 0 0 0 10 0 0 0 0 0 0 0 0 0 0 0 0 0 0 43 130 104 97 187 141 177 151 22 1 0 0 15 50 32 74 31
0 0 0 0 0 0 0 0 0 0 0 0 0 0 0 0 0 0 0 0 0 0 0 0 0 0 0 0 0 0 12 0 0 0 0 0 0 0 27 136 108 86 98 152 104 39 5 0 0 4 39 85 182 89
0 0 0 0 0 0 0 0 0 0 0 0 0 0 0 0 0 0 0 0 0 0 2 4 0 0 5 0 13 0 42 42 0 0 0 0 0 0 0 0 0 4 0 0 0 39 0 0 0 0 29 9 153 197
0 0 0 0 0 0 0 0 0 0 0 0 0 0 0 0 0 0 0 0 0 0 4 9 0 2 0 0 0 17 12 20 0 0 0 0 0 0 0 0 0 0 0 0 0 0 0 0 0 0 0 0 120 214
0 0 0 0 0 0 0 0 0 0 0 0 0 0 0 0 0 0 0 0 0 0 58 9 0 0 6 0 0 0 9 17 61 45 0 0 0 0 0 0 0 0 0 0 0 0 0 0 0 0 0 0 17 140
0 0 0 0 0 0 0 0 0 0 0 0 0 0 0 0 0 0 0 0 5 0 0 30 0 0 0 5 52 43 0 30 55 52 0 0 0 0 0 0 0 0 0 0 0 0 0 0 0 0 0 0 0 134
0 0 0 0 0 0 0 0 0 0 0 0 0 0 0 0 0 0 0 0 1 0 0 15 89 0 1 0 35 4 0 9 30 5 43 44 19 9 0 0 0 0 0 0 0 0 0 0 0 0 0 0 0 1
0 0 0 0 0 0 0 0 0 0 0 0 0 0 0 0 0 0 0 0 0 0 0 58 252 114 2 5 4 3 52 62 16 48 46 51 62 74 168 62 56 38 16 0 0 0 0 0 0 0 0 0 1 7
0 0 0 0 0 0 0 0 0 0 0 0 0 0 0 0 0 0 0 0 0 0 5 5 229 275 5 24 4 3 9 78 5 72 60 46 10 71 145 49 60 46 16 0 0 0 0 0 0 0 0 0 0 2
0 0 0 0 0 0 0 0 0 0 0 0 0 0 5 0 0 0 0 0 0 0 0 0 3 87 26 46 39 2 0 19 41 19 30 66 112 55 36 48 55 54 30 18 0 0 0 0 0 0 0 0 0 0
0 0 0 0 0 0 0 0 0 0 0 0 1 12 0 0 0 0 1 3 18 17 0 2 49 86 66 87 80 27 10 12 30 11 14 39 68 48 31 28 63 67 72 43 12 8 3 0 0 0 0 0 0 0
0 0 0 0 0 0 0 0 0 0 0 0 0 0 0 0 9 0 0 0 121 48 93 4 30 6 49 88 66 122 91 47 0 7 9 35 24 37 22 6 28 80 82 65 43 21 35 26 26 25 0 0 0 0
0 0 0 0 0 0 0 0 0 0 0 0 3 8 83 108 5 9 24 34 50 21 6 1 5 60 12 49 65 91 81 70 28 3 0 26 46 38 32 16 14 23 62 67 64 52 42 51 42 45 49 2 0 0
0 0 0 0 0 0 0 0 0 0 0 0 71 1 9 4 25 42 71 46 33 5 0 0 0 391 154 106 118 50 32 16 3 0 0 29 70 52 27 17 20 0 11 21 47 71 47 0 36 40 38 50 38 2
0 0 0 0 0 0 0 0 0 0 0 7 36 2 5 26 30 50 37 29 35 21 0 0 138 173 117 65 19 20 0 0 0 2 54 67 63 67 58 39 35 42 26 19 25 35 47 28 0 0 23 22 32 43
0 0 0 0 0 0 0 0 0 0 0 14 68 111 26 47 51 64 142 78 89 11 5 3 1 0 0 18 0 0 0 0 31 31 8 2 91 94 92 91 77 59 49 40 38 34 21 23 22 14 2 7 14 19
0 0 0 0 0 0 0 0 0 0 21 106 60 101 181 214 268 330 151 41 3 15 69 44 28 15 1 0 0 0 0 0 0 0 0 0 12 50 36 18 35 72 78 64 56 66 58 30 16 7 0 9 6 10
0 0 0 0 0 0 1 0 2 155 273 175 108 36 218 270 260 151 41 35 27 48 52 29 0 0 0 0 0 0 0 0 0 0 0 2 27 70 50 25 67 138 165 114 57 57 78 39 22 15 5 3 10 15
0 0 0 0 0 0 0 30 10 210 109 72 124 209 216 158 228 185 63 2 0 0 0 4 0 4 0 0 0 43 2 15 0 0 0 32 39 18 0 2 16 68 181 178 59 60 72 28 16 15 16 23 24 15
0 0 0 0 0 0 0 325 373 616 288 284 256 305 114 318 304 98 0 0 30 59 51 28 1 1 35 62 53 35 10 0 0 28 24 35 0 0 0 2 3 57 123 82 38 12 52 41 39 30 18 7 39 34
0 0 0 0 0 0 0 213 365 323 206 198 264 540 582 446 180 153 148 100 62 26 30 20 1 1 80 202 262 213 178 37 63 46 153 35 0 0 0 0 3 8 58 62 44 17 0 24 33 50 55 55 46 40
0 0 0 0 48 429 628 735 706 744 515 472 448 454 493 260 156 149 269 122 113 81 12 88 199 259 395 353 351 408 413 148 158 142 7 0 1 0 8 23 52 62 67 71 59 42 35 35 41 61 65 64 20 22
0 0 106 177 477 382 205 35 249 210 322 633 344 336 404 240 140 109 136 146 222 288 144 158 306 459 548 478 354 427 207 218 410 79 4 2 0 0 1 9 16 36 58 47 28 54 79 1 0 19 38 57 47 29
0 125 271 373 608 336 464 432 256 388 542 303 224 233 283 155 123 111 87 158 261 275 233 316 422 486 268 187 183 144 304 145 167 40 44 26 13 14 0 0 0 5 8 46 66 70 55 49 5 33 28 45 34 27
2 0 2 0 139 253 122 127 294 253 230 295 190 322 358 148 136 81 110 127 142 189 345 338 320 174 78 46 40 41 61 64 53 65 38 20 1 7 16 0 6 7 7 59 30 35 51 49 60 59 49 26 24 22
0 0 0 0 61 257 281 267 258 326 291 233 268 433 224 146 46 77 94 97 158 338 421 451 351 77 22 14 10 3 12 15 34 49 32 7 12 16 6 57 42 27 1 10 44 57 121 117 82 85 57 10 3 32
0 10 215 96 28 226 423 523 448 321 371 247 384 388 169 10 27 76 44 63 160 293 155 27 1 0 0 0 0 0 0 0 0 0 2 24 43 37 78 84 82 47 26 42 73 89 129 101 97 74 56 32 40 35
9 65 104 335 201 414 474 520 495 475 342 398 312 244 12 2 39 10 0 0 37 0 0 0 0 0 0 0 0 0 0 0 0 2 12 28 47 41 48 42 17 0 1 3 74 97 79 89 66 61 48 46 51 33
72 268 251 387 429 603 718 719 617 488 425 399 382 224 87 12 0 0 0 0 0 0 0 0 0 0 0 0 0 0 0 0 5 9 26 38 43 52 57 53 42 31 53 15 0 8 52 59 52 43 42 36 25 26
18 70 312 318 427 502 711 710 789 492 323 356 199 18 0 0 0 0 0 0 0 0 0 0 0 0 0 0 0 0 0 0 0 0 0 0 19 20 40 33 37 48 51 49 25 11 0 8 12 21 12 17 21 25
144 192 310 484 541 562 523 402 318 299 261 284 122 134 17 0 0 0 0 0 0 0 0 0 0 0 0 0 0 0 0 0 0 0 1 2 5 18 32 42 49 47 41 35 31 26 25 17 16 22 9 0 22 16
225 323 566 669 723 465 327 463 492 482 427 357 242 41 24 5 0 0 0 0 0 0 0 0 0 0 0 0 0 0 0 0 0 0 0 6 10 9 10 12 16 19 22 23 22 25 22 19 16 15 0 0 16 19
639 613 599 471 472 488 398 338 333 345 261 272 226 149 28 24 22 0 5 0 0 0 0 0 0 0 0 0 0 0 0 0 0 0 0 0 0 0 0 2 3 4 7 15 21 22 20 19 19 17 15 0 0 0

GFSWCAN_con_mucape_057.txt.gz
CAPE
0 0 0 0 0 0 0 0 0 0 0 0 0 0 0 0 0 0 0 0 15 28 27 10 2 6 4 12 23 24 25 29 0 0 0 0 0 49 44 168 78 294 227 258 356 220 149 278 91 6 1 39 25 3
0 0 0 0 0 0 0 0 0 0 0 0 0 0 0 0 0 0 1 0 0 0 23 1 1 0 4 7 13 15 43 56 6 0 0 0 0 0 0 248 176 179 298 320 227 210 385 121 34 53 0 1 11 0
0 0 0 0 0 0 0 0 0 0 0 0 0 0 0 0 0 0 5 0 1 18 14 4 1 3 16 16 6 8 73 56 48 0 0 0 0 0 0 0 56 109 18 76 75 87 7 0 7 0 0 0 1 0
0 0 0 0 0 0 0 0 0 0 0 0 0 0 0 0 0 0 17 0 0 21 81 6 4 19 0 11 6 4 8 59 44 42 0 0 0 0 0 0 0 0 0 0 0 0 0 0 0 0 0 0 11 9
0 0 0 0 0 0 0 0 0 0 0 0 0 0 0 0 0 0 1 18 0 15 86 13 5 5 0 14 6 20 48 81 172 132 22 0 0 0 0 0 0 0 0 0 0 0 0 0 0 0 0 0 0 26
0 0 0 0 0 0 0 0 0 0 0 0 0 0 0 0 0 0 7 7 0 0 15 19 187 26 17 0 36 125 122 62 92 63 62 52 0 0 0 0 0 0 0 0 0 0 0 0 0 0 0 0 0 0
0 0 0 0 0 0 0 0 0 0 0 0 0 0 0 0 0 2 10 0 0 0 0 17 258 213 22 72 77 113 38 47 67 33 114 67 58 52 33 0 7 2 0 0 0 0 0 0 0 0 0 0 0 0
0 0 0 0 0 0 0 0 0 0 0 0 0 0 0 0 0 0 0 0 0 0 11 125 262 385 89 160 68 13 50 111 70 85 46 48 42 66 21 49 33 3 25 28 0 0 0 0 0 0 0 0 0 0
0 0 0 0 0 0 0 0 0 0 0 0 0 0 0 0 0 0 0 0 0 0 2 148 154 212 178 180 52 28 5 71 36 87 80 73 76 95 83 37 49 20 18 23 36 0 0 0 0 0 0 0 0 0
0 0 0 0 0 0 0 0 0 0 0 0 0 0 13 1 0 0 0 6 0 0 10 107 28 95 307 445 237 23 34 30 124 56 41 108 52 56 31 33 45 48 19 10 28 0 0 0 0 0 0 0 0 0
0 0 0 0 0 0 0 0 0 0 0 0 62 68 0 0 0 2 10 151 330 210 297 227 89 280 191 315 358 177 111 47 40 22 45 59 76 35 21 27 34 48 18 12 19 24 30 39 43 7 0 0 0 0
0 0 0 0 0 0 0 0 0 0 0 12 1 0 8 6 49 358 267 118 173 184 157 188 58 57 285 458 384 338 195 70 46 37 38 70 33 35 19 27 32 32 42 9 14 2 19 15 20 29 37 0 0 0
0 0 0 0 0 0 0 0 0 0 0 2 72 35 287 429 283 196 605 281 91 109 115 74 70 113 574 265 234 361 133 30 12 5 178 40 65 29 11 22 25 26 33 49 40 14 19 21 14 20 31 24 9 0
0 0 0 0 0 0 0 0 0 0 0 143 200 153 191 128 84 150 230 226 289 347 400 181 75 54 521 295 201 57 56 21 6 1 80 55 136 90 24 27 36 39 32 29 44 32 6 24 23 29 21 19 26 18
0 0 0 0 0 0 0 0 0 0 0 118 119 155 102 99 91 129 306 357 372 355 168 189 95 54 454 126 5 25 0 0 0 17 12 48 80 78 122 21 70 62 44 49 51 49 17 6 30 20 25 25 29 37
0 0 0 0 0 0 0 0 0 0 7 115 127 122 97 57 203 357 607 405 268 403 402 155 52 0 0 0 6 14 0 0 0 0 0 90 108 110 73 38 38 56 64 74 71 71 45 21 26 33 32 32 30 37
0 0 0 0 0 0 0 0 0 0 119 213 195 95 160 189 435 329 357 609 661 453 231 18 37 6 21 22 2 36 0 4 2 0 0 15 39 55 29 17 30 59 68 77 43 83 67 65 28 37 44 41 26 33
0 0 0 0 0 0 0 0 12 150 265 325 176 158 431 460 575 541 493 120 85 138 172 117 11 66 44 49 117 75 81 38 16 22 24 27 46 44 40 32 18 57 95 109 134 87 80 55 51 32 34 29 30 35
0 0 0 0 0 0 15 206 165 268 226 215 243 418 430 480 672 190 77 21 109 140 163 28 5 25 34 125 170 94 27 19 20 19 32 58 120 40 22 54 41 57 84 181 159 103 48 42 24 32 44 35 32 36
0 0 0 0 0 88 32 208 633 567 488 292 367 357 532 622 338 250 94 110 95 108 123 138 134 94 48 177 105 85 160 105 68 108 83 164 117 42 51 32 33 37 49 133 127 19 115 64 31 32 19 2 41 35
0 0 0 0 0 5 22 176 473 441 368 343 498 464 448 473 149 162 198 89 104 114 100 142 181 184 220 501 553 655 701 517 505 132 201 371 44 34 25 54 81 78 89 125 116 124 23 90 37 27 33 29 41 33
10 0 80 0 133 498 632 533 534 678 734 614 503 459 400 373 227 196 272 94 107 216 197 324 585 626 854 702 590 511 528 642 634 208 39 15 32 1 32 72 105 128 141 96 96 163 199 117 34 80 100 73 36 35
0 0 311 309 379 606 431 567 532 566 519 487 439 320 319 252 230 217 269 195 213 322 325 458 479 610 534 398 352 273 310 292 454 375 74 59 66 56 62 88 89 90 114 122 152 124 215 16 45 66 59 64 81 53
0 192 256 281 537 487 622 673 581 562 563 556 363 355 305 266 285 146 109 105 111 119 199 329 289 215 210 284 75 81 45 59 94 55 102 66 57 39 75 62 92 41 41 140 150 108 214 213 9 47 81 84 71 52
18 0 18 0 429 542 469 436 449 381 332 429 341 228 248 292 148 109 69 69 89 133 203 351 148 80 59 26 10 16 21 21 34 70 94 84 46 85 54 38 61 114 110 162 158 110 153 197 149 222 22 95 79 73
0 3 0 18 135 349 416 423 370 455 451 334 328 582 475 156 56 70 93 49 37 53 15 16 13 0 0 0 0 0 0 0 3 49 60 28 50 92 97 119 174 102 84 111 150 256 9 89 209 144 94 21 4 67
0 30 217 223 382 428 588 684 679 458 444 287 311 465 204 58 56 131 120 51 6 0 0 0 0 0 0 0 0 0 0 2 4 19 42 45 33 49 67 57 55 45 82 93 97 167 153 145 78 124 86 71 76 53
4 76 282 516 421 552 630 614 533 459 358 429 403 312 185 109 139 106 60 0 0 0 0 0 0 0 0 0 0 0 1 3 10 17 29 32 19 28 35 33 17 0 3 14 79 137 105 57 116 79 81 66 49 32
72 78 258 527 602 731 760 598 488 424 591 498 461 385 409 195 29 6 0 0 0 0 0 0 0 0 0 0 0 0 0 0 4 20 13 0 29 21 36 33 43 44 42 5 0 0 2 17 40 34 49 46 48 29
159 332 459 451 469 443 589 447 648 928 734 677 540 321 175 16 0 0 0 0 0 0 0 0 0 0 0 0 0 0 0 0 0 0 0 7 14 23 35 36 25 24 23 22 24 8 0 9 12 34 31 39 42 49
154 268 376 389 355 449 618 783 772 735 661 605 502 500 389 71 3 0 0 0 0 0 0 0 0 0 0 0 0 0 0 0 0 0 0 0 4 16 19 18 24 27 25 18 19 17 28 17 28 28 22 24 20 28
268 350 391 335 478 906 780 756 847 812 836 741 676 406 160 0 0 0 0 0 0 0 0 0 0 0 0 0 0 0 0 0 0 0 0 1 4 3 5 10 14 18 20 19 18 18 21 23 19 22 19 23 25 18
381 415 485 414 284 675 743 670 659 660 610 561 576 629 389 208 216 9 1 0 0 0 0 0 0 0 0 0 0 0 0 0 0 0 0 0 0 0 0 3 3 4 8 15 16 14 15 14 11 0 0 0 0 0

GFSWCAN_con_mucape_060.txt.gz
CAPE
0 0 0 0 0 0 0 0 0 0 0 0 0 0 0 0 0 0 0 0 1 30 15 16 0 5 3 0 20 19 36 43 0 0 0 0 0 0 0 19 66 180 246 191 266 152 74 291 131 101 133 21 12 0
0 0 0 0 0 0 0 0 0 0 0 0 0 0 0 0 0 0 2 0 0 4 17 7 6 0 0 0 9 30 44 22 20 0 0 0 0 0 0 0 0 292 92 276 26 117 312 127 60 33 7 11 0 0
2 0 0 0 0 0 0 0 0 0 0 0 0 0 0 0 0 0 0 18 10 42 71 3 0 4 12 0 0 23 65 39 44 14 3 0 0 0 0 0 0 0 0 23 1 81 3 10 10 10 5 11 8 3
7 0 0 0 0 0 0 0 0 0 0 0 0 0 0 0 0 0 0 30 8 19 60 73 8 3 17 13 0 1 11 15 27 5 40 0 0 0 0 0 0 0 0 0 0 0 0 7 0 0 0 0 0 0
8 0 0 0 0 0 0 0 0 0 0 0 0 0 0 0 0 0 1 11 31 8 25 9 21 18 5 7 17 16 10 37 182 118 84 41 6 10 0 0 0 0 0 0 0 0 0 0 0 0 0 0 0 0
3 0 0 0 0 0 0 0 0 0 0 0 0 0 0 0 0 0 14 9 6 0 14 10 83 128 21 2 20 29 27 64 43 60 44 27 0 11 31 0 19 45 28 0 0 0 0 0 0 0 0 0 0 0
0 0 0 0 0 0 0 0 0 0 0 0 0 0 0 0 0 7 1 0 0 0 10 10 181 213 171 62 16 29 37 42 50 45 169 61 52 10 73 6 28 2 38 36 2 0 0 0 0 0 0 0 0 0
0 0 0 0 0 0 0 0 0 0 0 0 0 0 0 0 0 1 0 0 0 0 9 55 130 598 274 341 356 64 47 186 55 182 66 33 21 35 7 49 6 4 14 28 12 11 0 0 0 0 0 0 0 0
0 0 0 0 0 0 0 0 0 0 0 0 0 0 0 0 1 1 0 0 0 9 4 115 66 158 466 339 251 28 51 264 125 133 106 79 31 0 0 18 45 15 8 18 18 25 24 15 0 0 0 0 0 0
0 0 0 0 0 0 0 0 0 0 0 0 0 0 0 1 0 0 0 6 13 3 11 38 5 181 288 605 512 229 108 32 201 101 45 102 8 12 8 12 11 49 44 9 0 22 6 21 55 0 0 0 0 0
0 0 0 0 0 0 0 0 0 0 0 0 15 81 3 0 4 4 24 135 470 326 187 255 280 308 158 438 650 388 257 365 106 79 17 248 136 46 23 16 7 41 8 1 3 37 4 11 27 43 5 0 0 0
0 0 0 0 0 0 0 0 0 0 2 1 0 0 21 12 31 186 518 425 284 394 487 118 81 96 306 674 567 467 273 275 0 57 8 96 90 39 9 20 32 24 48 31 23 11 9 24 13 30 70 25 0 0
0 0 0 0 0 0 0 0 0 0 0 0 19 12 323 314 54 253 222 250 62 28 175 302 236 117 427 540 534 213 16 57 33 0 338 28 138 189 46 12 16 48 35 56 65 51 50 24 20 34 32 58 40 44
0 0 0 0 0 0 0 0 0 0 0 187 327 76 152 188 303 124 249 383 258 99 413 453 517 449 293 280 35 27 120 12 79 56 15 37 31 7 58 50 61 60 86 36 46 70 69 67 34 22 32 78 43 38
0 0 0 0 0 0 0 0 0 0 0 142 231 16 79 243 219 280 256 269 299 445 503 430 446 434 156 140 40 81 68 51 117 3 0 40 150 138 76 86 102 101 99 78 76 43 38 57 42 43 26 30 29 78
0 0 0 0 0 0 0 0 0 0 19 66 62 36 224 220 227 439 298 51 229 368 360 350 282 312 221 262 171 175 124 133 38 10 21 119 122 84 71 15 24 45 112 92 126 125 44 61 42 46 43 31 19 17
0 0 0 0 0 0 0 0 2 27 146 166 224 242 195 352 101 308 209 4 21 114 142 188 246 202 286 144 153 141 74 191 220 105 30 89 102 104 59 88 48 43 120 126 187 130 162 37 41 52 48 56 38 34
0 0 0 0 0 0 0 0 26 95 157 440 370 393 464 697 579 95 38 74 77 42 94 94 163 113 57 50 199 108 127 63 64 93 77 122 107 98 78 51 56 48 68 278 68 134 122 100 56 95 57 47 55 107
0 0 0 0 0 0 207 226 139 266 324 249 434 389 510 468 407 164 126 124 149 180 193 167 99 89 58 112 287 69 43 84 110 122 178 143 123 392 102 126 103 140 79 313 233 115 129 100 27 27 32 19 46 14
0 0 0 0 0 51 207 169 504 437 513 465 240 410 408 444 250 199 109 171 148 78 91 100 205 163 69 191 384 366 485 411 284 471 84 253 252 363 248 69 77 177 80 243 321 53 140 73 38 32 2 8 41 41
0 0 0 0 0 0 70 177 695 747 727 239 609 59 372 341 183 128 103 72 64 153 131 202 264 327 636 690 859 628 730 847 979 854 411 416 96 68 115 57 79 99 21 90 59 126 28 214 101 84 44 61 40 10
42 0 15 23 90 293 300 262 333 615 659 356 191 271 467 285 215 199 127 110 79 39 209 226 326 313 298 383 242 478 257 565 374 536 205 111 128 84 94 112 74 135 170 147 24 0 106 171 63 22 57 93 45 2
0 0 191 345 224 258 175 479 492 535 486 473 300 326 137 83 262 142 124 41 77 117 226 293 296 628 739 437 230 146 301 148 306 207 257 135 117 22 76 53 47 94 133 102 77 76 135 3 48 60 88 119 69 60
0 11 202 129 226 204 513 674 645 390 265 69 346 145 245 166 286 177 48 60 59 87 115 198 104 66 64 186 49 41 2 13 92 75 127 89 48 70 22 49 34 50 35 91 133 102 94 0 76 151 107 74 72 87
0 0 13 0 303 537 595 519 462 543 318 349 239 121 81 105 72 72 41 5 16 25 5 10 26 4 1 0 0 0 0 0 0 46 43 35 42 45 41 27 15 22 45 120 126 114 8 0 77 91 56 15 43 65
0 0 0 62 85 170 85 257 149 329 276 148 286 296 202 213 59 70 65 21 0 0 0 0 0 0 0 0 0 0 0 0 14 5 12 19 20 37 47 65 60 60 59 99 142 63 1 119 11 83 40 22 13 74
0 0 63 22 301 400 457 304 362 130 149 281 393 413 132 61 50 84 111 47 0 0 0 0 0 0 0 0 0 0 0 0 2 1 1 7 15 25 38 36 25 5 47 95 144 33 28 36 66 72 68 61 73 60
1 50 186 284 209 339 353 351 144 292 414 176 375 171 193 57 120 143 107 6 0 0 0 0 0 0 0 0 0 0 0 0 1 6 3 2 8 10 15 1 0 0 0 2 50 60 37 52 16 49 42 58 59 55
21 49 183 330 398 560 392 300 328 154 415 151 466 354 373 341 124 22 0 0 0 0 0 0 0 0 0 0 0 0 0 0 4 4 1 0 5 4 9 15 25 20 9 0 0 0 0 0 0 21 40 40 38 51
2 105 186 224 324 101 218 81 148 371 145 193 321 434 270 103 28 2 0 0 0 0 0 0 0 0 0 0 0 0 0 0 0 0 0 0 1 3 4 10 14 15 13 19 9 0 0 6 10 37 31 41 20 48
108 227 185 224 382 165 1 32 273 259 376 329 343 242 429 193 20 0 0 0 0 0 0 0 0 0 0 0 0 0 0 0 0 0 0 0 1 0 1 3 5 12 16 17 18 25 24 18 25 24 29 19 21 25
70 143 205 367 192 102 193 259 333 509 340 293 331 406 296 33 2 17 0 0 0 0 0 0 0 0 0 0 0 0 0 0 0 0 0 0 0 0 0 3 5 6 8 7 11 8 14 12 7 1 0 0 0 7
96 138 228 498 82 58 153 378 199 210 166 157 400 620 416 305 306 62 0 0 0 0 0 0 0 0 0 0 0 0 0 0 0 0 0 0 0 0 0 1 0 0 1 6 5 5 6 0 0 0 0 0 0 0

GFSWCAN_con_mucape_063.txt.gz
CAPE
2 0 0 0 0 0 0 0 0 0 0 0 0 0 0 0 0 0 6 1 0 41 3 8 0 0 0 0 4 3 18 0 0 0 0 0 0 0 0 0 0 25 25 63 17 2 1 0 117 56 0 0 0 0
12 14 4 0 0 0 0 0 0 0 0 0 0 0 0 0 0 0 3 25 1 3 0 3 0 0 0 0 0 8 10 4 0 0 0 0 0 0 0 0 0 0 0 0 4 3 2 0 2 0 0 0 0 0
28 16 2 0 0 0 0 0 0 0 0 0 0 0 0 0 0 0 0 0 0 0 0 2 0 0 0 0 0 13 1 6 0 0 1 0 0 0 0 0 0 0 0 0 0 0 0 0 0 0 0 0 0 0
25 28 1 0 0 0 0 0 0 0 0 0 0 0 0 0 0 0 0 0 14 7 4 2 1 0 0 0 0 0 0 4 2 0 13 0 0 0 0 0 0 0 0 0 0 0 0 0 0 0 0 0 0 0
30 34 0 0 0 0 0 0 0 0 0 0 0 0 0 0 0 0 0 0 14 3 0 0 0 4 0 0 2 1 0 7 21 1 5 1 0 0 0 0 0 0 0 0 0 0 0 0 0 0 0 0 0 0
30 14 0 0 0 0 0 0 0 0 0 0 0 0 0 0 0 0 12 6 0 9 9 0 13 39 9 0 0 7 15 12 35 21 19 1 0 0 0 0 0 0 0 0 0 0 0 0 0 0 0 0 0 0
12 3 0 0 0 0 0 0 0 0 0 0 0 0 0 0 0 0 2 0 0 1 0 3 70 53 27 2 0 2 4 7 30 37 61 16 0 0 13 0 0 1 10 0 0 1 0 0 0 0 0 0 0 0
10 0 0 0 0 0 0 0 0 0 0 0 0 0 0 0 0 0 0 0 0 2 7 7 34 438 83 32 123 0 2 20 9 37 27 33 4 0 0 0 0 0 12 4 0 0 0 0 12 0 0 0 0 0
4 0 0 0 0 0 0 0 0 0 0 0 0 0 0 0 0 0 0 4 4 0 1 9 48 181 221 153 63 7 15 22 62 53 24 28 0 0 0 0 0 0 0 2 0 0 0 11 10 6 0 0 0 0
0 0 0 0 0 0 0 0 0 0 0 0 0 0 0 0 2 4 0 0 0 0 0 0 0 1 10 282 67 60 58 3 8 15 61 0 0 0 0 5 2 5 0 0 0 0 0 0 4 0 4 0 0 0
0 0 0 0 0 0 0 0 0 0 0 0 0 14 22 10 1 6 4 0 47 19 27 31 80 64 263 189 12 68 30 48 54 56 0 0 55 15 31 8 39 49 34 0 0 0 0 7 2 0 0 0 0 0
0 0 0 0 0 0 0 0 0 0 0 0 0 0 3 14 2 12 199 181 3 95 13 0 26 121 369 389 24 28 18 0 0 0 0 0 41 45 71 47 48 40 12 20 17 0 0 7 11 3 0 0 0 5
0 0 0 0 0 0 0 0 0 0 0 0 0 18 19 159 31 171 54 156 39 44 35 28 113 365 553 449 178 39 16 25 0 0 0 10 18 37 57 64 111 96 95 39 31 55 31 3 23 35 11 7 8 10
0 0 0 0 0 0 0 0 0 0 0 0 205 134 154 213 353 119 45 165 84 3 23 99 194 277 381 181 82 10 182 58 96 34 14 0 0 0 2 46 157 131 44 59 77 60 53 13 1 73 13 11 6 9
0 0 0 0 0 0 0 0 0 0 0 20 247 16 62 57 58 87 125 137 375 35 90 229 493 582 364 167 138 172 147 69 20 0 20 14 3 23 32 89 181 157 110 28 17 14 53 36 4 8 54 52 31 7
0 0 0 0 0 0 0 0 0 0 0 7 43 55 186 270 350 66 525 82 6 14 132 264 251 69 210 240 161 42 58 33 75 67 22 115 74 86 125 157 187 81 251 59 34 2 14 31 51 15 30 49 41 83
0 0 0 0 0 0 0 0 0 0 2 95 371 340 120 200 340 136 232 14 57 0 4 120 72 18 251 63 92 191 64 104 175 113 116 182 97 145 247 256 351 98 258 137 231 151 107 175 119 27 41 83 48 149
0 0 0 0 0 0 0 0 15 24 38 200 229 519 606 756 609 120 99 227 192 95 90 18 114 32 47 15 144 219 131 152 152 266 247 198 178 141 166 309 247 280 310 317 273 177 157 152 163 38 3 15 5 47
0 0 0 0 0 0 79 67 45 39 439 642 441 315 283 288 273 103 297 581 494 362 341 189 62 190 143 132 243 133 155 163 137 162 56 24 15 0 73 81 138 381 309 358 297 195 109 139 188 24 15 30 9 8
0 0 0 0 0 0 202 316 767 591 447 909 376 95 1 398 364 271 270 140 382 232 177 116 206 303 228 183 253 335 308 279 386 224 167 149 53 16 56 104 74 98 6 7 1 0 39 107 103 5 11 15 14 2
0 0 0 0 0 0 1 213 578 598 682 322 196 562 568 422 370 118 90 167 72 67 47 211 278 341 637 910 712 317 671 582 260 189 161 200 69 30 10 9 29 68 196 107 75 48 39 50 27 18 3 7 18 3
50 9 0 0 0 318 280 289 248 685 347 352 7 1 314 299 385 203 166 223 80 106 198 390 490 361 487 467 584 524 702 416 303 203 98 10 57 12 2 6 3 0 45 11 15 5 7 5 40 41 26 97 6 5
0 4 0 217 321 144 125 623 688 880 245 145 498 535 560 539 344 383 307 138 141 399 346 509 338 845 899 843 778 452 383 251 129 63 43 7 29 14 5 0 1 0 34 22 20 16 7 0 7 57 70 36 10 12
0 0 179 285 153 18 283 649 434 221 286 26 105 343 156 639 526 343 32 41 87 111 167 317 239 193 58 45 13 0 0 0 17 34 29 14 84 24 27 3 0 4 41 12 51 42 43 108 34 68 19 22 14 36
0 0 1 0 88 408 305 365 128 266 325 262 338 149 202 672 411 71 23 26 33 0 38 63 0 0 0 0 0 0 0 1 0 0 15 44 26 44 43 51 60 28 96 100 70 14 39 38 48 0 0 0 28 52
0 0 0 0 9 112 297 303 215 66 110 369 243 172 229 254 66 31 145 81 1 0 0 0 0 0 0 0 0 0 0 0 0 0 0 0 2 16 27 9 3 46 41 34 6 38 72 77 61 2 0 4 24 67
0 0 52 131 58 336 70 85 74 78 309 250 340 51 30 59 26 231 217 18 0 0 0 0 0 0 0 0 0 0 0 0 0 0 0 0 2 9 6 0 0 4 15 29 91 105 102 73 22 27 32 40 45 40
0 0 44 342 286 303 233 381 261 260 464 345 101 171 129 272 209 453 6 0 0 0 0 0 0 0 0 0 0 0 0 0 0 0 0 0 0 0 0 0 0 0 0 0 1 9 14 16 21 25 43 27 33 28
0 0 14 133 196 273 207 562 101 98 20 200 390 355 401 636 153 25 0 0 0 0 0 0 0 0 0 0 0 0 0 0 14 5 2 0 0 0 2 1 0 0 0 0 0 0 0 0 0 15 30 21 33 31
0 0 5 130 315 377 246 238 295 117 417 162 414 235 174 125 80 2 0 2 0 0 0 0 0 0 0 0 0 0 0 0 0 0 0 0 0 0 3 3 8 5 4 1 0 0 0 0 1 15 18 8 10 34
0 26 209 315 178 207 251 93 67 61 51 126 9 271 283 161 68 34 2 19 0 0 0 0 0 0 0 0 0 0 0 0 0 0 0 0 0 0 1 3 6 11 13 11 13 6 9 8 13 12 2 0 2 1
12 180 284 355 390 342 153 68 93 119 21 21 2 72 207 167 66 20 26 62 1 0 0 0 0 0 0 0 0 0 0 0 0 0 0 0 0 0 0 4 5 1 5 6 5 0 5 1 0 0 0 0 0 0
82 126 272 543 347 220 52 136 136 466 144 119 58 345 387 350 252 70 91 7 2 0 0 0 0 0 0 0 0 0 0 0 0 0 0 0 0 0 0 0 0 0 0 9 5 1 0 0 0 0 0 0 0 0

GFSWCAN_con_mucape_066.txt.gz
CAPE
16 18 6 6 0 0 0 0 0 0 0 0 0 0 0 0 0 0 0 0 0 0 0 0 0 0 0 0 0 0 0 0 0 0 0 0 0 0 0 0 0 0 0 0 0 0 1 0 0 10 0 0 0 0
20 13 12 4 0 0 0 0 0 0 0 0 0 0 0 0 0 0 0 0 0 0 0 0 0 0 0 0 0 0 0 0 0 0 0 0 0 0 0 0 0 0 0 0 0 9 2 0 0 0 0 0 0 0
19 4 9 0 0 0 0 0 0 0 0 0 0 0 0 0 0 0 0 0 0 0 0 0 0 0 0 0 0 0 0 0 0 0 0 0 0 0 0 0 0 0 0 0 0 0 0 0 0 0 0 0 0 0
5 20 11 0 0 0 0 0 0 0 0 0 0 0 0 0 0 0 0 0 0 0 0 0 0 0 0 0 0 0 0 0 0 0 0 0 0 0 0 0 0 0 0 0 0 0 0 0 0 0 0 0 0 0
6 18 9 0 0 0 0 0 0 0 0 0 0 0 0 0 0 0 0 0 0 0 0 0 0 0 0 0 2 0 0 0 1 0 0 0 0 0 0 0 0 0 0 0 0 0 0 0 0 0 0 0 0 0
3 20 14 0 0 0 0 0 0 0 0 0 0 0 0 0 0 0 1 1 1 0 0 0 0 0 0 0 3 1 0 2 1 8 6 11 0 0 0 0 0 0 0 0 0 0 0 0 0 0 0 0 0 0
5 10 4 0 0 0 0 0 0 0 0 0 0 0 0 0 0 0 0 0 0 2 5 0 0 0 0 2 1 5 1 3 1 17 11 19 10 9 0 0 0 0 0 0 0 0 0 0 0 1 0 0 0 0
12 2 0 0 0 0 0 0 0 0 0 0 0 0 0 0 0 0 0 0 0 2 3 0 0 3 9 3 7 24 14 13 1 0 20 0 1 0 0 0 0 0 0 0 0 0 0 0 0 0 8 0 0 0
11 1 0 0 0 0 0 0 0 0 0 0 0 0 0 0 2 5 2 4 9 4 0 0 0 0 40 34 28 16 9 0 1 1 0 0 0 0 0 0 0 0 0 0 0 0 0 0 0 0 0 0 0 0
6 0 0 0 0 0 0 0 0 0 0 0 0 0 1 6 10 6 2 0 0 0 0 0 0 0 4 24 16 33 29 18 22 3 0 0 0 11 8 0 0 0 0 0 0 0 0 0 0 0 0 0 2 0
11 1 0 0 0 0 0 0 0 0 0 0 0 0 6 11 9 2 0 0 0 0 0 0 2 22 56 77 134 91 24 29 0 9 22 1 0 0 0 1 2 0 0 0 0 0 0 0 0 2 0 9 3 17
2 0 0 0 0 0 0 0 0 0 0 0 0 0 0 3 3 0 14 9 0 0 1 0 9 31 16 116 100 31 54 0 6 8 2 10 14 3 0 14 27 19 3 6 3 0 0 0 0 5 0 17 6 18
0 0 0 0 0 0 0 0 0 0 0 0 0 4 4 4 4 44 10 1 0 3 34 24 35 162 168 119 63 108 18 71 2 0 13 9 0 0 0 5 29 18 36 8 20 34 20 0 0 3 14 9 2 5
0 0 0 0 0 0 0 0 0 0 0 0 4 63 55 29 60 30 11 1 10 52 60 36 62 320 97 62 50 9 26 5 6 1 0 0 0 0 0 3 41 28 22 11 27 27 64 52 11 4 1 0 0 0
0 0 0 0 0 0 0 0 0 0 0 0 0 68 11 9 28 12 37 6 31 55 34 55 77 139 104 89 56 6 17 1 0 0 0 8 0 0 0 0 19 28 36 28 31 50 11 6 5 0 0 0 0 0
0 0 0 0 0 0 0 0 0 0 0 0 0 0 29 66 88 76 42 51 3 0 15 9 12 0 5 10 1 0 1 9 3 18 11 8 19 5 19 30 14 33 48 43 26 12 0 1 6 14 3 0 0 0
0 0 0 0 0 0 0 0 0 0 0 0 3 50 70 67 41 111 88 48 10 1 0 0 0 0 0 0 0 2 0 0 0 18 40 33 31 36 24 22 31 26 27 35 12 16 24 14 24 7 1 0 3 0
0 0 0 0 0 0 0 0 0 51 5 6 59 132 69 4 11 48 73 7 0 0 0 0 0 0 0 0 2 2 19 26 26 28 24 23 24 16 14 1 30 6 17 49 79 24 17 22 40 6 1 1 0 0
0 0 0 0 0 0 0 28 0 0 53 180 98 138 26 37 68 26 64 38 16 13 23 7 0 0 7 20 24 24 22 12 0 9 7 4 6 3 5 5 21 0 4 49 69 34 0 0 8 0 1 2 7 16
0 0 0 0 0 0 0 85 22 116 170 176 105 63 0 0 19 7 25 58 76 12 0 0 3 16 36 26 27 9 24 0 9 0 0 0 11 14 10 4 7 8 1 1 0 0 13 0 0 0 0 0 12 29
0 0 3 0 0 0 0 2 98 404 216 55 8 0 19 78 19 9 0 0 0 0 0 2 5 4 80 31 22 0 28 5 0 3 4 5 3 5 12 2 15 41 13 0 0 0 2 24 0 0 0 7 19 51
18 8 0 0 0 0 17 2 0 291 87 73 17 0 10 94 104 40 7 0 0 0 0 3 1 0 89 124 101 15 25 65 22 8 7 3 5 0 0 0 0 1 9 0 4 13 3 2 3 8 1 3 0 8
0 15 0 16 79 104 36 108 185 169 130 1 11 64 76 135 60 0 10 3 13 11 0 2 6 4 107 186 57 0 0 11 12 14 2 0 0 0 2 5 11 11 6 0 0 10 11 5 17 10 7 2 1 16
0 0 9 70 71 0 2 185 112 62 39 9 6 47 29 50 26 0 0 0 14 10 0 0 0 0 0 0 0 0 0 0 0 0 0 0 0 3 6 1 8 11 32 46 6 3 24 13 9 23 13 8 8 0
0 0 2 0 5 149 112 150 62 6 21 81 49 27 16 36 7 4 0 3 12 4 0 0 0 0 0 0 0 0 0 0 0 0 0 0 0 12 3 10 3 1 7 3 0 12 6 4 0 0 11 9 12 16
0 0 0 0 2 23 161 80 75 28 42 203 65 27 15 34 24 5 3 26 24 33 15 0 0 0 0 0 0 0 0 0 0 0 0 0 0 0 0 0 1 6 4 0 0 3 0 2 1 4 21 24 16 19
0 0 0 0 8 51 13 25 8 6 54 115 42 41 3 19 15 3 36 46 23 18 0 0 0 0 0 0 0 0 0 0 0 0 0 0 0 0 0 0 0 0 0 5 6 5 5 0 4 8 13 29 29 24
0 0 0 0 23 45 109 158 77 51 110 168 24 100 61 102 51 1 15 22 12 0 0 0 0 0 0 0 0 0 0 0 0 0 0 0 0 0 0 0 0 0 0 0 1 5 2 11 9 14 7 8 7 19
0 0 0 0 13 110 87 383 56 55 43 64 131 70 100 99 40 2 0 0 0 0 0 0 0 0 0 0 0 0 0 0 0 0 0 0 0 0 0 0 0 0 0 0 0 0 0 0 2 2 8 7 8 5
0 0 0 0 57 338 153 90 73 11 3 15 53 71 19 14 4 0 0 0 0 0 0 0 0 0 0 0 0 0 0 0 0 0 0 0 0 0 0 0 0 0 0 0 0 0 0 0 0 0 0 2 5 3
0 0 0 0 92 174 173 26 3 0 3 22 11 31 34 0 0 0 0 0 0 0 0 0 0 0 0 0 0 0 0 0 0 0 0 0 0 0 0 0 0 0 0 0 0 0 0 0 0 0 0 0 0 0
0 14 46 82 210 199 32 32 19 24 8 10 9 0 0 9 6 0 2 0 0 0 0 0 0 0 0 0 0 0 0 0 0 0 0 0 0 0 0 0 0 0 0 0 0 0 0 0 0 0 0 0 0 0
0 0 279 210 95 64 53 57 106 54 32 31 21 0 15 44 54 27 23 0 0 0 0 0 0 0 0 0 0 0 0 0 0 0 0 0 0 0 0 0 0 0 0 0 0 0 0 0 0 0 0 0 0 0

GFSWCAN_con_mucape_069.txt.gz
CAPE
0 5 29 11 10 0 0 0 0 0 0 0 0 0 0 0 0 0 0 0 0 0 0 0 0 0 0 0 0 0 0 0 0 0 0 0 0 0 0 0 0 0 0 0 0 0 0 0 0 0 0 0 0 0
3 2 31 4 20 0 0 0 0 0 0 0 0 0 0 0 0 0 0 0 0 0 0 0 0 0 0 0 0 0 0 0 0 0 0 0 0 0 0 0 0 0 0 0 0 0 0 0 0 0 0 0 0 0
0 9 5 13 5 0 0 0 0 0 0 0 0 0 0 0 0 0 0 0 0 0 0 0 0 0 0 0 0 0 0 0 0 0 0 0 0 0 0 0 0 0 0 0 0 0 0 0 0 0 0 0 0 0
5 6 9 30 0 0 0 0 0 0 0 0 0 0 0 0 0 0 0 0 0 0 0 0 0 0 0 0 0 0 0 0 0 0 0 0 0 0 0 0 0 0 0 0 0 0 0 0 0 0 0 0 0 0
5 8 28 27 0 0 0 0 0 0 0 0 0 0 0 0 0 0 0 0 0 0 0 0 0 0 0 0 0 0 0 0 0 0 0 0 0 0 0 0 0 0 0 0 0 0 0 0 0 0 0 0 0 0
7 4 31 12 0 0 0 0 0 0 0 0 0 0 0 0 0 0 0 0 0 0 2 0 0 0 0 0 0 0 5 0 0 0 0 0 5 0 0 0 0 0 0 0 0 0 0 0 0 0 0 0 0 0
18 10 29 10 0 0 0 0 0 0 0 0 0 0 0 0 0 0 0 0 1 2 2 0 0 0 0 0 0 1 12 14 5 0 0 0 0 0 0 0 0 0 0 0 0 0 0 0 0 0 0 8 0 0
26 15 39 5 0 0 0 0 0 0 0 0 0 0 0 0 0 0 1 3 6 4 8 0 0 0 0 4 13 21 56 23 11 0 1 0 0 0 0 12 0 0 0 0 0 0 0 0 0 0 0 0 0 0
24 32 46 0 0 0 0 0 0 0 0 0 0 0 0 0 0 0 2 5 5 0 0 0 0 2 23 27 52 44 35 32 20 10 39 0 0 0 1 0 0 0 0 0 0 0 0 0 0 0 2 0 0 0
3 28 24 0 0 0 0 0 0 0 0 0 0 0 0 6 3 1 0 0 0 0 0 1 7 10 9 14 16 31 20 35 11 1 0 10 13 9 18 3 1 0 0 0 0 0 0 0 0 1 13 14 10 1
16 32 14 0 0 0 0 0 0 0 0 0 0 0 0 0 0 0 0 0 0 0 0 25 16 35 34 63 7 6 55 21 8 10 0 2 1 0 0 0 0 0 0 0 0 0 0 0 0 1 25 27 12 4
48 29 7 0 0 0 0 0 0 0 0 0 0 0 0 0 0 0 0 3 0 5 10 31 28 27 55 83 113 50 24 8 0 0 2 0 0 0 0 0 0 7 15 10 12 10 9 1 0 0 6 14 17 7
19 8 0 0 0 0 0 0 0 0 0 0 0 2 4 1 0 9 9 8 0 9 20 60 41 91 142 74 56 33 11 8 0 0 8 0 0 0 0 0 1 4 9 20 14 24 22 4 0 2 13 6 13 16
0 0 0 0 0 0 0 0 0 0 0 0 0 20 3 1 10 14 6 49 45 5 36 65 76 36 37 22 14 9 16 0 0 0 0 3 0 0 1 0 6 11 14 30 35 25 23 28 37 42 2 7 0 9
1 0 0 0 0 0 0 0 0 0 0 0 0 6 5 10 17 40 24 25 14 15 0 23 40 36 15 5 11 0 1 0 0 0 0 1 12 3 0 2 1 0 2 5 50 47 62 39 3 31 4 0 0 3
0 0 0 0 0 0 0 0 0 0 0 0 0 0 0 16 51 58 63 22 9 5 0 0 0 0 0 0 0 0 0 0 0 0 4 14 14 14 16 16 18 6 3 8 37 48 75 33 0 10 14 0 1 0
0 0 0 0 0 0 0 0 0 0 0 0 1 23 22 29 21 14 68 12 7 1 0 0 0 0 0 0 0 0 0 1 17 18 40 32 18 18 27 22 9 0 0 11 15 23 16 4 9 19 1 4 5 11
0 0 0 0 0 0 0 0 0 11 12 0 9 37 70 50 12 22 17 12 0 0 0 0 0 0 0 0 0 1 13 19 24 0 0 0 4 15 34 16 0 11 18 8 16 6 2 0 11 11 1 1 9 18
0 0 0 0 0 0 0 0 0 0 0 51 63 49 7 2 32 59 58 43 4 0 18 3 0 0 8 11 9 6 19 21 0 0 1 0 0 6 10 5 8 18 14 10 34 39 59 11 13 3 7 4 8 2
0 0 0 0 0 0 0 0 3 1 20 102 66 41 31 0 1 0 14 26 51 35 11 0 0 0 9 6 0 0 0 0 0 0 0 1 3 13 24 27 13 17 11 6 1 6 31 11 7 0 1 12 9 14
0 0 46 0 0 0 0 0 31 150 159 99 29 23 0 0 15 0 0 0 1 0 0 0 0 0 2 8 28 3 3 3 13 17 7 4 4 1 0 9 12 3 2 12 27 41 18 14 10 0 0 7 21 23
3 39 0 0 0 0 0 0 0 3 73 46 17 0 0 15 58 49 23 2 0 0 0 0 0 0 0 51 73 14 15 23 26 8 3 0 0 0 0 2 0 0 11 10 27 35 37 2 0 0 1 12 23 21
0 0 0 0 25 8 14 11 42 76 113 0 0 8 26 24 52 39 0 0 4 5 5 0 0 0 8 65 55 21 2 5 7 1 0 0 0 0 0 0 6 6 1 3 24 22 6 7 6 0 0 1 8 17
0 0 0 43 2 1 0 38 77 70 46 69 11 10 2 3 10 4 2 5 13 6 4 0 3 0 0 0 0 0 0 0 0 0 0 0 0 0 0 1 12 7 5 1 0 10 12 8 0 8 2 6 16 17
0 0 0 0 0 69 6 62 49 9 1 0 5 16 27 9 5 0 4 20 23 22 0 0 3 0 0 0 0 0 0 0 0 0 0 0 0 0 0 0 0 0 0 0 0 0 0 3 7 10 24 9 5 11
0 0 0 0 0 0 20 48 25 1 0 16 32 3 0 0 1 0 0 11 15 10 9 1 0 0 0 0 0 0 0 0 0 0 0 0 0 0 0 0 0 0 0 0 0 0 0 0 0 2 1 4 16 15
0 0 0 0 1 5 11 15 15 7 0 34 5 3 2 10 2 0 0 3 3 2 0 0 0 0 0 0 0 0 0 0 0 0 0 0 0 0 0 0 0 0 0 0 0 0 0 0 3 7 6 20 27 22
0 0 0 0 0 5 22 16 20 23 19 59 18 0 14 3 26 0 0 0 0 0 0 0 0 0 0 0 0 0 0 0 0 0 0 0 0 0 0 0 0 0 0 0 0 0 0 0 0 9 13 9 21 18
0 0 0 0 0 5 133 90 88 51 26 16 19 9 0 26 62 9 0 0 0 0 0 0 0 0 0 0 0 0 0 0 0 0 0 0 0 0 0 0 0 0 0 0 0 0 0 0 7 7 7 6 8 23
0 0 0 0 0 5 187 43 50 20 19 23 27 33 32 28 15 1 0 0 0 0 0 0 0 0 0 0 0 0 0 0 0 0 0 0 0 0 0 0 0 0 0 0 0 0 0 0 0 0 0 0 0 0
0 0 0 0 0 4 79 52 57 14 15 9 9 25 9 6 17 1 0 0 0 0 0 0 0 0 0 0 0 0 0 0 0 0 0 0 0 0 0 0 0 0 0 0 0 0 0 0 0 0 0 0 0 0
0 0 0 0 34 60 38 32 21 4 0 0 1 2 5 9 33 40 20 0 0 0 0 0 0 0 0 0 0 0 0 0 0 0 0 0 0 0 0 0 0 0 0 0 0 0 0 0 0 0 0 0 0 0
0 12 35 132 127 56 19 23 50 93 46 25 16 8 0 1 18 11 19 9 0 0 0 0 0 0 0 0 0 0 0 0 0 0 0 0 0 0 0 0 0 0 0 0 0 0 0 0 0 0 0 0 0 0

GFSWCAN_con_mucape_072.txt.gz
CAPE
0 0 3 5 21 8 0 0 0 0 0 0 0 0 0 0 0 0 0 0 0 0 0 0 0 0 0 0 0 0 0 0 0 0 0 0 0 0 0 0 0 0 0 0 0 0 0 0 0 0 0 0 0 0
0 1 0 21 12 5 0 0 0 0 0 0 0 0 0 0 0 0 0 0 0 0 0 0 0 0 0 0 0 0 0 0 0 0 0 0 0 0 0 0 0 0 0 0 0 0 0 0 0 0 0 0 0 0
1 0 7 22 6 4 0 0 0 0 0 0 0 0 0 0 0 0 0 0 0 0 0 0 0 0 0 0 0 0 0 0 0 0 0 0 0 0 0 0 0 0 0 0 0 0 0 0 0 0 0 0 0 0
0 5 2 17 19 0 0 0 0 0 0 0 0 0 0 0 0 0 0 0 0 0 0 0 0 0 0 0 0 0 0 0 0 0 0 0 0 0 0 0 0 0 0 0 0 0 0 0 0 0 0 0 0 0
1 7 2 21 25 0 0 0 0 0 0 0 0 0 0 0 0 0 0 0 0 0 0 0 0 0 0 0 0 0 0 0 0 0 0 0 0 0 0 0 0 0 0 0 0 0 0 0 0 0 0 0 0 0
1 11 27 31 28 0 0 0 0 0 0 0 0 0 0 0 0 0 0 0 0 0 0 0 0 0 0 0 0 0 5 3 0 0 0 0 0 0 0 0 0 0 0 0 0 0 0 0 0 0 0 0 0 0
6 9 17 41 39 6 0 0 0 0 0 0 0 0 0 0 0 0 0 0 0 1 0 0 0 0 0 0 0 1 4 4 4 1 6 1 0 0 0 0 0 0 0 0 0 0 0 0 0 0 0 0 0 0
7 13 5 36 34 2 0 0 0 0 0 0 0 0 0 0 0 0 0 3 4 4 0 0 0 0 4 23 15 2 11 9 1 6 1 12 8 1 0 0 0 0 0 0 0 0 0 0 0 0 0 0 0 0
11 40 17 47 17 0 0 0 0 0 0 0 0 0 0 0 0 1 0 5 1 0 0 0 0 0 3 6 16 16 24 23 0 26 14 17 0 3 0 0 0 1 0 0 0 0 0 0 0 0 0 1 0 0
2 7 7 15 21 0 0 0 0 0 0 0 0 0 0 0 0 0 0 0 0 0 0 0 5 18 5 23 13 1 14 34 19 3 1 10 2 0 0 0 0 0 7 0 0 0 0 0 0 0 0 2 0 0
21 5 23 24 16 0 0 0 0 0 0 0 0 0 0 0 0 0 0 0 0 0 0 2 11 22 17 72 27 4 37 32 16 6 0 3 0 0 0 2 0 0 0 0 0 0 0 0 0 0 0 0 7 0
24 36 52 17 0 0 0 0 0 0 0 0 0 0 0 0 0 0 0 2 0 0 0 9 26 19 12 20 93 54 20 10 6 1 0 0 0 0 0 3 12 5 0 4 3 0 5 2 2 0 0 0 4 7
47 30 10 0 0 0 0 0 0 0 0 0 0 3 0 0 0 1 1 6 7 21 16 30 33 31 167 135 4 18 8 3 0 0 0 0 0 0 0 4 2 0 9 4 23 14 9 14 23 11 8 9 10 5
37 10 0 0 0 0 0 0 0 0 0 0 0 0 0 0 8 26 37 46 34 23 30 15 9 5 0 0 0 0 0 0 0 0 0 0 0 0 0 0 0 5 1 0 7 22 28 29 18 24 23 19 0 0
0 0 0 0 0 0 0 0 0 0 0 0 0 0 0 4 16 38 60 45 24 27 0 0 1 0 0 0 0 0 0 0 0 0 0 0 10 16 16 2 0 0 0 0 0 0 2 31 37 28 28 19 0 1
9 0 0 0 0 0 0 0 0 0 0 0 0 0 0 0 18 22 15 25 1 0 0 0 0 0 0 0 0 0 0 0 0 1 5 6 20 30 26 26 29 16 7 5 16 15 34 39 23 6 0 4 1 0
0 0 0 0 0 0 0 0 0 0 0 0 0 0 16 14 5 0 5 6 0 0 0 0 0 0 0 0 0 0 0 0 6 15 11 0 0 0 0 21 37 52 30 8 15 6 16 11 5 4 12 19 0 0
0 0 0 0 0 0 0 0 0 1 0 0 0 11 6 13 14 1 0 0 0 0 0 0 0 0 0 0 0 1 0 6 13 0 0 0 0 1 1 18 30 20 21 20 10 1 25 13 4 0 1 0 2 6
1 0 0 0 0 0 0 0 0 0 0 0 12 31 26 8 0 0 0 0 5 0 0 0 0 0 0 0 4 5 0 7 3 0 4 1 9 6 14 23 25 40 5 3 3 18 53 48 9 0 14 6 0 13
0 0 0 0 0 0 0 0 0 0 0 34 39 28 9 0 0 0 0 7 16 16 2 2 0 0 0 0 0 0 0 3 10 10 17 7 2 1 0 6 18 17 1 0 4 7 24 16 9 5 3 7 0 21
0 0 38 0 0 0 0 0 0 69 92 88 35 2 2 0 0 2 0 0 0 0 0 1 1 0 0 0 0 12 12 16 11 17 5 0 0 0 0 0 0 0 0 3 15 8 24 10 8 1 0 0 15 27
0 21 29 0 0 0 0 0 0 0 0 8 0 0 0 0 0 0 29 24 17 0 0 11 16 0 0 0 1 15 11 7 0 4 2 0 0 0 0 0 0 0 0 4 15 0 0 2 2 0 1 10 10 16
0 0 0 0 0 13 0 0 5 6 2 0 0 0 2 0 0 0 13 11 13 12 5 14 22 0 0 0 5 3 0 0 0 0 0 0 0 0 0 0 2 0 0 0 0 0 0 1 5 2 0 6 9 13
0 0 0 22 11 0 0 2 26 49 29 18 18 0 0 0 4 2 3 22 24 24 20 12 2 0 0 0 0 0 0 0 0 0 0 0 0 0 0 0 0 0 0 0 0 0 0 0 0 0 0 2 7 7
0 0 0 0 0 42 32 21 53 31 0 0 0 0 4 2 17 10 3 4 10 12 3 2 3 0 0 0 0 0 0 0 0 0 0 0 0 0 0 0 0 0 0 0 0 0 0 0 0 0 0 0 1 8
0 0 0 0 0 0 4 32 20 4 0 0 1 2 0 0 0 2 0 0 1 0 0 0 0 0 0 0 0 0 0 0 0 0 0 0 0 0 0 0 0 0 0 0 0 0 0 0 1 0 1 4 5 5
0 0 0 0 0 0 0 7 6 0 0 5 16 11 2 0 7 7 0 0 0 0 0 0 0 0 0 0 0 0 0 0 0 0 0 0 0 0 0 0 0 0 0 0 0 0 0 0 0 0 0 1 4 6
0 0 0 0 0 0 0 0 3 5 16 6 11 3 0 0 7 11 0 0 0 0 0 0 0 0 0 0 0 0 0 0 0 0 0 0 0 0 0 0 0 0 0 0 0 0 0 0 0 0 0 0 8 5
0 0 0 0 0 0 0 26 21 40 45 24 13 3 0 0 31 30 9 0 0 0 0 0 0 0 0 0 0 0 0 0 0 0 0 0 0 0 0 0 0 0 0 0 0 0 0 0 1 0 0 0 0 6
0 0 0 0 0 0 0 1 14 35 22 12 16 18 21 14 1 6 0 0 0 0 0 0 0 0 0 0 0 0 0 0 0 0 0 0 0 0 0 0 0 0 0 0 0 0 0 0 0 0 0 0 0 0
0 0 0 0 0 0 0 3 32 38 36 14 3 6 13 6 1 0 0 0 0 0 0 0 0 0 0 0 0 0 0 0 0 0 0 0 0 0 0 0 0 0 0 0 0 0 0 0 0 0 0 0 0 0
0 0 0 0 0 8 18 28 24 9 10 9 0 0 0 0 0 5 4 16 5 0 0 0 0 0 0 0 0 0 0 0 0 0 0 0 0 0 0 0 0 0 0 0 0 0 0 0 0 0 0 0 0 0
0 0 0 0 4 18 10 4 20 15 26 23 15 6 3 1 0 0 1 8 22 2 11 1 0 0 0 0 0 0 0 0 0 0 0 0 0 0 0 0 0 0 0 0 0 0 0 0 0 0 0 0 0 0

GFSWCAN_con_mucape_075.txt.gz
CAPE
1 0 3 0 7 21 8 0 0 0 0 0 0 0 0 0 0 0 0 0 0 0 0 0 0 0 0 0 0 0 0 0 0 0 0 0 0 0 0 0 0 0 0 0 0 0 0 0 0 0 0 0 0 0
0 0 4 5 7 7 2 0 0 0 0 0 0 0 0 0 0 0 0 0 0 0 0 0 0 0 0 0 0 0 0 0 0 0 0 0 0 0 0 0 0 0 0 0 0 0 0 0 0 0 0 0 0 0
0 0 11 23 23 18 5 0 0 0 0 0 0 0 0 0 0 0 0 0 0 0 0 0 0 0 0 0 0 0 0 0 0 0 0 0 0 0 0 0 0 0 0 0 0 0 0 0 0 0 0 0 0 0
0 0 2 30 18 25 9 0 0 0 0 0 0 0 0 0 0 0 0 0 0 0 0 0 0 0 0 0 0 0 0 0 0 0 0 0 0 0 0 0 0 0 0 0 0 0 0 0 0 0 0 0 0 0
0 0 0 13 11 24 1 0 0 0 0 0 0 0 0 0 0 0 0 0 0 0 0 0 0 0 0 0 0 0 0 0 0 0 0 0 0 0 0 0 0 0 0 0 0 0 0 0 0 0 0 0 0 0
0 0 2 22 23 13 2 0 0 0 0 0 0 0 0 0 0 0 0 0 0 0 0 0 0 0 0 0 0 0 1 2 0 3 0 0 0 0 0 0 0 0 0 0 0 0 0 0 0 0 0 0 0 0
0 0 7 29 42 21 4 0 0 0 0 0 0 0 0 0 0 0 0 0 0 0 0 0 0 0 0 0 0 0 4 10 4 9 0 1 2 2 3 0 0 0 0 0 0 0 0 0 0 0 0 0 0 5
0 0 1 40 57 25 0 0 0 0 0 0 0 0 0 0 0 0 0 1 1 0 0 0 0 0 0 8 8 12 9 9 12 7 1 0 1 1 0 0 0 0 0 0 0 0 0 0 0 0 0 0 0 6
0 0 6 13 70 24 0 0 0 0 0 0 0 0 0 0 0 0 0 0 0 0 0 0 0 0 2 7 12 81 14 4 0 0 3 9 1 4 0 0 0 0 0 0 0 0 0 0 0 0 0 0 0 6
0 0 10 20 15 0 0 0 0 0 0 0 0 0 0 0 0 0 0 0 0 0 0 0 0 2 3 22 23 10 24 32 42 7 14 5 0 0 0 13 39 0 1 2 0 0 0 0 0 0 0 3 0 13
0 4 10 33 4 0 0 0 0 0 0 0 0 0 0 0 0 0 0 0 0 0 0 0 0 0 0 147 128 60 147 28 14 46 16 1 0 15 0 21 5 0 0 0 0 0 0 4 14 0 0 0 0 0
13 3 3 18 0 0 0 0 0 0 0 0 0 0 0 0 0 0 1 0 0 12 0 2 12 0 6 11 66 25 44 19 37 0 5 0 26 9 7 10 2 4 0 2 1 0 0 0 0 4 3 0 0 11
37 16 15 1 0 0 0 0 0 0 0 0 0 0 0 0 0 0 0 21 50 16 15 34 51 0 8 24 8 9 12 32 10 0 1 13 60 16 19 14 19 7 26 63 78 73 59 22 6 20 24 7 11 25
22 11 0 0 0 0 0 0 0 0 0 0 0 0 0 0 16 41 68 70 45 17 19 1 19 22 5 4 2 27 18 8 1 0 0 28 76 35 23 16 51 72 65 86 70 83 93 125 193 126 23 36 65 81
0 0 0 0 0 0 0 0 0 0 0 0 0 0 0 4 14 33 33 44 24 10 1 1 1 1 0 3 3 3 9 1 0 0 17 41 24 20 32 29 24 39 45 66 68 59 54 51 111 204 167 101 40 60
5 0 0 0 0 0 0 0 0 0 0 0 0 0 0 0 19 29 21 42 0 0 0 0 0 0 0 0 0 0 0 0 4 25 17 13 32 19 17 5 2 28 48 46 43 57 118 108 39 95 46 33 15 15
5 1 0 0 0 0 0 0 0 0 0 0 0 0 0 4 51 28 0 9 0 0 0 0 0 0 0 0 0 0 5 14 12 25 21 0 16 21 22 55 70 58 40 31 56 47 21 13 12 18 70 88 0 0
10 0 0 0 0 0 0 0 1 0 0 0 0 6 6 35 83 5 0 0 0 0 0 0 0 0 0 0 0 54 2 0 5 20 8 11 22 25 23 33 63 55 24 8 8 22 113 52 44 45 7 2 0 0
0 0 0 0 0 0 0 0 0 0 0 0 2 0 4 30 7 0 0 0 0 0 2 0 0 0 0 0 10 42 32 18 43 17 10 2 3 5 5 10 12 16 27 68 61 72 48 88 27 0 7 7 0 0
0 0 0 0 0 0 0 0 0 0 0 31 1 35 25 11 0 0 0 11 4 7 37 13 9 6 0 19 1 76 31 18 19 46 38 5 2 6 8 2 10 37 37 69 69 17 105 87 19 0 11 20 62 6
0 1 31 15 0 0 0 0 0 13 10 84 48 37 21 0 9 1 0 11 5 17 18 3 1 1 0 0 0 0 6 12 19 15 12 0 0 0 0 0 5 24 73 103 97 65 29 20 0 8 31 35 22 7
0 0 1 0 0 0 0 0 0 0 0 83 11 0 0 0 29 5 0 5 33 41 36 27 2 4 0 0 0 0 2 0 0 0 0 0 0 0 0 4 6 17 38 30 39 74 110 49 11 13 0 15 6 47
0 0 0 0 0 4 0 0 14 6 33 50 0 0 35 24 0 0 2 10 21 23 15 0 0 0 0 0 0 0 0 0 0 0 0 0 0 0 0 0 0 0 2 3 3 23 33 0 0 16 38 65 111 63
0 0 0 0 0 0 0 4 21 92 75 121 62 82 55 31 2 9 13 11 10 6 0 0 0 0 0 0 0 0 0 0 0 0 0 0 0 0 0 0 0 0 0 0 0 11 65 101 12 48 75 62 55 17
0 0 0 0 0 18 65 30 92 96 67 0 12 26 51 0 21 12 8 0 0 0 0 0 0 0 0 0 0 0 0 0 0 0 0 0 0 0 0 0 0 0 0 0 0 0 22 35 37 57 49 51 63 37
0 0 0 0 0 0 0 48 54 85 24 26 63 60 0 0 23 51 10 0 0 0 0 0 0 0 0 0 0 0 0 0 0 0 0 0 0 0 0 0 0 0 0 0 0 5 22 26 20 24 46 30 10 37
0 0 0 0 0 0 11 4 40 23 6 32 120 35 11 13 35 75 0 0 0 0 0 0 0 0 0 0 0 0 0 0 0 0 0 0 0 0 0 0 0 0 0 0 0 0 9 14 17 23 34 42 44 40
0 0 0 0 0 0 0 28 76 114 88 25 89 83 33 8 25 36 19 9 0 0 0 0 0 0 0 0 0 0 0 0 0 0 0 0 0 0 0 0 0 0 0 0 0 0 7 14 14 15 11 14 33 37
0 0 0 0 0 0 0 8 150 283 190 90 170 114 70 97 58 30 18 11 0 0 0 0 0 0 0 0 0 0 0 0 0 0 0 0 0 0 0 0 0 0 0 0 0 0 0 0 2 3 2 1 3 0
0 0 0 0 0 0 0 35 290 214 37 79 37 56 107 41 21 14 2 0 0 0 0 0 0 0 0 0 0 0 0 0 0 0 0 0 0 0 0 0 0 0 0 0 0 0 0 0 0 0 0 0 0 0
0 0 0 0 0 0 0 0 0 0 2 61 71 102 140 57 14 6 0 0 2 0 0 0 0 0 0 0 0 0 0 0 0 0 0 0 0 0 0 0 0 0 0 0 0 0 0 0 0 0 0 0 0 0
0 0 0 0 0 0 62 215 103 91 90 62 33 18 9 29 20 17 22 5 10 18 3 3 3 1 0 0 0 0 0 0 0 0 0 0 0 0 0 0 0 0 0 0 0 0 0 0 0 0 0 0 0 0
0 0 0 0 0 4 90 107 136 146 183 202 77 18 20 21 37 16 3 1 11 12 6 12 12 12 10 1 0 0 0 0 0 0 0 0 0 0 0 0 0 0 0 0 0 0 0 0 0 0 0 0 0 0

GFSWCAN_con_mucape_078.txt.gz
CAPE
2 1 0 0 0 0 8 0 0 0 0 0 0 0 0 0 0 0 0 0 0 0 0 0 0 0 0 0 0 0 0 0 0 0 1 1 10 0 0 1 1 4 9 5 4 0 0 0 0 0 0 0 0 0
0 0 0 0 0 1 2 0 0 0 0 0 0 0 0 0 0 0 0 0 0 0 0 0 0 0 0 0 0 0 0 0 0 0 0 1 0 0 2 3 0 0 4 12 0 18 0 0 2 0 0 0 0 0
0 0 0 2 22 14 0 0 0 0 0 0 0 0 0 0 0 0 0 0 0 0 0 0 0 0 0 0 0 0 0 0 0 0 0 0 0 5 7 0 0 0 0 0 0 0 0 0 0 0 0 0 0 0
0 0 0 1 21 12 0 0 0 0 0 0 0 0 0 0 0 0 0 0 0 0 0 0 0 0 0 0 0 0 0 0 0 0 0 0 4 0 0 3 0 0 0 0 0 0 0 0 0 0 0 0 0 0
0 0 0 2 11 18 2 0 0 0 0 0 0 0 0 0 0 0 0 0 0 0 0 2 0 0 0 0 0 0 0 0 0 3 8 19 1 0 0 0 1 0 0 0 0 0 0 0 0 0 0 0 0 0
0 0 0 3 23 10 0 0 0 0 0 0 0 0 0 0 0 0 20 0 0 0 0 1 0 0 0 0 0 0 0 0 0 0 0 5 0 3 56 34 18 0 0 0 0 0 0 0 0 0 0 0 0 0
0 0 0 3 14 24 2 0 0 0 0 0 0 0 0 0 0 0 6 0 0 0 1 0 6 0 0 0 1 5 1 0 4 10 16 2 0 0 0 42 21 26 5 0 0 0 0 0 0 0 0 0 0 0
0 0 0 4 14 22 5 0 0 0 0 0 0 0 0 0 0 11 1 0 0 7 0 1 14 123 4 77 84 9 4 12 14 8 23 4 0 0 0 1 0 0 6 0 0 0 0 0 0 0 0 0 4 3
0 0 0 4 2 35 2 0 0 0 0 0 0 0 0 0 26 6 0 0 0 7 6 8 35 110 151 265 133 121 21 5 21 7 4 0 1 0 57 64 43 19 0 0 0 0 1 0 0 0 0 3 12 27
0 0 0 11 36 41 0 0 0 0 0 0 0 0 31 10 0 0 5 10 6 1 0 45 35 78 53 236 242 138 51 79 53 24 59 64 22 151 78 29 27 65 41 6 2 0 0 0 0 0 12 15 16 21
0 0 12 26 10 1 0 0 0 0 0 0 0 10 3 0 5 9 12 4 1 47 26 97 122 101 192 192 156 172 173 233 89 129 127 14 152 50 33 59 68 20 0 0 0 0 0 0 0 0 91 62 46 37
4 9 4 18 1 0 0 0 0 0 0 0 0 0 1 6 2 6 46 3 13 79 197 201 181 66 40 114 129 169 149 149 78 32 12 16 64 56 80 59 79 4 0 0 0 10 31 46 67 81 82 74 64 44
5 4 1 0 0 0 0 0 0 0 0 0 0 10 8 5 1 181 57 154 140 171 224 213 129 71 21 19 59 147 49 78 109 25 19 67 97 77 131 152 112 45 5 93 88 83 74 76 76 92 80 66 31 55
8 15 0 0 0 0 0 0 0 0 0 0 3 0 19 184 302 269 314 271 324 264 206 152 97 107 13 127 123 87 104 80 4 55 80 68 189 160 150 127 194 174 166 144 135 124 118 161 195 226 150 211 158 165
0 0 0 0 0 0 0 0 0 0 0 0 0 0 149 277 283 355 121 334 306 154 41 32 148 198 88 86 112 82 85 68 54 57 68 251 282 145 87 72 57 71 165 200 178 155 167 163 167 195 245 301 304 270
8 0 0 0 0 0 0 0 1 0 0 0 0 0 78 112 183 354 420 243 93 1 0 1 6 8 10 8 17 19 7 10 39 56 117 144 141 183 169 143 132 117 131 140 171 94 126 186 183 191 188 274 365 313
5 3 0 0 0 0 0 0 0 0 0 0 0 0 0 10 180 394 193 195 44 1 9 0 0 0 0 0 2 4 8 25 59 45 64 183 234 172 104 66 71 77 81 72 62 70 78 113 191 46 15 3 7 75
8 0 0 0 0 0 3 1 0 0 0 0 0 27 184 354 469 442 311 170 1 0 2 24 0 1 0 0 0 9 24 33 34 58 55 129 90 63 42 46 52 60 67 60 67 102 144 198 109 29 0 0 0 0
0 0 0 0 0 0 0 4 0 0 0 0 60 204 329 497 542 495 212 141 51 12 11 35 23 6 15 4 0 1 2 17 38 64 90 43 21 20 26 35 39 40 47 72 101 199 192 203 195 19 58 2 1 0
0 0 0 0 0 0 0 0 2 53 99 356 304 484 487 610 339 314 330 140 65 57 112 122 110 69 36 12 0 0 1 46 51 59 53 30 13 23 25 26 27 26 42 45 66 15 145 250 305 167 31 1 2 0
0 0 24 27 0 0 0 0 1 145 534 474 573 536 544 421 387 348 329 225 189 132 231 249 169 73 66 18 0 17 79 31 44 12 7 8 1 7 21 26 15 20 31 56 53 78 17 3 5 61 22 109 291 166
0 0 1 0 3 1 0 0 0 0 0 29 140 88 3 79 252 395 175 97 138 225 245 202 121 98 124 78 60 53 84 18 0 0 0 0 1 10 14 7 8 15 25 44 35 92 49 24 35 90 58 42 53 92
0 0 4 0 5 1 0 1 37 72 0 84 282 253 301 308 328 39 206 249 269 183 47 46 100 55 46 65 35 0 0 0 0 0 0 0 0 0 2 0 1 12 30 24 39 77 64 4 29 102 120 124 97 61
0 0 32 29 2 1 16 175 283 347 376 491 390 249 383 437 287 234 279 264 187 4 0 5 7 0 0 0 0 0 0 0 0 0 0 0 0 0 0 0 3 7 9 22 55 85 84 68 18 83 64 57 55 40
3 0 0 0 3 3 128 151 195 153 116 255 301 282 417 319 389 264 264 170 46 14 4 0 0 0 0 0 0 0 0 0 0 0 0 0 0 0 0 0 4 6 13 24 25 28 36 54 39 35 42 46 46 46
0 0 0 2 4 1 9 143 180 198 228 176 292 507 331 310 216 196 183 129 50 21 0 0 0 0 0 0 0 0 0 0 0 0 0 0 0 0 0 0 6 6 2 3 11 18 23 29 31 31 34 10 2 36
0 0 0 0 0 1 14 127 130 84 120 154 323 429 300 149 123 222 224 16 30 14 0 0 0 0 0 0 0 0 0 0 0 0 0 0 0 0 0 0 0 2 1 1 3 9 17 18 25 24 20 17 18 19
0 0 0 0 0 0 0 1 9 84 192 324 303 170 61 83 103 244 40 7 3 0 0 0 0 0 0 0 0 0 0 0 0 0 0 0 0 0 0 0 0 0 0 1 0 3 6 14 22 20 20 23 21 21
0 0 0 0 0 0 0 0 0 95 468 515 257 148 201 336 422 201 15 12 12 0 0 0 0 0 0 0 0 0 0 0 0 0 0 0 0 0 0 0 0 0 1 0 0 0 1 2 5 9 7 10 15 15
0 0 0 0 0 0 0 0 0 260 490 437 424 166 269 401 266 94 14 4 2 0 0 0 0 0 0 0 0 0 0 0 0 0 0 0 0 0 0 0 0 0 0 0 0 0 0 1 2 12 0 14 18 17
0 0 0 0 0 0 0 0 0 0 7 3 50 271 303 484 255 28 18 5 12 0 0 0 0 0 0 0 0 0 0 0 0 0 0 0 0 0 0 0 0 0 0 0 0 0 0 2 6 0 0 0 0 4
0 0 0 0 0 0 0 136 136 159 405 601 475 425 395 359 341 20 10 8 14 1 0 0 0 0 0 0 0 0 0 0 0 0 0 0 0 0 0 0 0 0 0 0 0 0 0 0 0 0 0 0 0 0
0 0 0 0 0 0 6 12 123 430 575 656 666 416 297 256 289 31 8 5 10 0 0 0 0 0 0 0 0 0 0 0 0 0 0 0 0 0 0 0 0 0 0 0 0 0 0 0 0 0 0 0 0 0

GFSWCAN_con_mucape_081.txt.gz
CAPE
0 0 0 0 0 0 0 0 0 0 0 0 0 0 0 0 0 0 0 0 6 0 0 0 0 0 0 0 10 0 0 0 0 1 16 12 19 8 1 18 19 15 16 8 4 16 2 0 0 0 0 0 0 0
0 0 0 0 0 1 0 0 0 0 0 0 0 0 0 0 0 0 0 0 0 28 32 0 0 0 0 0 0 0 1 0 0 0 0 0 3 3 3 15 0 7 26 52 15 113 11 0 1 0 0 3 0 0
0 0 0 0 1 6 8 0 0 0 0 0 0 0 0 0 0 0 0 0 1 3 2 0 0 0 0 0 0 9 2 0 0 0 2 0 1 4 9 14 0 0 0 4 0 7 1 0 0 0 0 0 0 0
0 0 0 0 0 12 4 0 0 0 0 0 0 0 0 0 0 0 3 0 0 0 7 15 0 0 0 0 0 0 0 0 0 0 5 9 24 0 14 6 0 9 1 0 0 5 0 1 0 0 0 0 0 0
0 0 0 0 2 8 7 0 0 0 0 0 0 0 0 0 0 0 3 0 0 61 67 28 0 0 0 0 1 0 0 0 23 37 34 49 40 0 8 1 4 5 4 4 8 17 10 4 4 0 0 0 0 0
0 0 0 0 5 1 1 0 0 0 0 0 0 0 0 0 0 1 31 1 0 0 54 32 0 0 0 0 3 1 15 27 38 79 53 46 38 65 178 94 154 34 34 2 27 14 6 6 0 0 0 0 0 0
0 0 0 0 6 4 2 0 0 0 0 0 0 0 0 0 0 8 5 0 0 0 26 16 149 2 0 8 51 16 10 19 65 17 48 3 50 44 108 208 112 74 58 21 20 12 8 2 3 2 2 4 0 0
0 0 0 0 5 23 2 0 0 0 0 0 0 0 0 0 0 2 0 0 0 5 3 95 125 152 83 126 269 79 112 65 22 33 1 2 0 0 0 0 8 34 25 19 22 18 20 4 9 26 19 19 6 1
0 0 0 0 15 3 3 1 0 0 0 0 0 0 0 0 7 5 0 0 0 93 302 65 40 302 311 508 427 287 231 181 50 53 49 0 0 0 0 101 51 30 18 29 33 28 36 2 0 0 0 0 24 23
0 0 0 0 12 5 1 0 0 0 0 0 0 9 21 20 0 0 2 128 220 84 43 149 34 31 29 427 414 391 177 222 205 171 81 39 80 182 314 71 62 72 58 31 37 34 14 0 0 6 0 0 33 32
0 0 0 5 8 16 9 0 0 0 0 0 20 42 0 0 1 2 14 139 141 99 42 142 204 41 267 206 190 211 222 275 190 293 223 166 272 310 62 50 99 79 17 10 16 0 1 0 0 2 0 0 0 32
4 2 3 8 3 1 0 0 0 0 0 2 2 0 7 4 3 7 150 99 171 173 226 204 163 151 105 215 163 180 139 218 165 251 109 167 275 246 74 94 129 175 40 20 14 17 14 3 5 24 33 14 21 72
7 6 3 1 0 0 0 0 0 0 0 0 6 7 10 29 1 280 181 226 307 144 258 230 272 245 188 125 102 250 56 76 99 105 162 206 374 264 223 140 76 242 187 102 79 134 95 98 124 73 79 158 81 95
0 1 0 0 0 0 0 0 0 0 0 3 19 2 112 277 287 207 391 294 276 54 39 3 61 11 159 126 129 70 116 98 57 86 100 282 438 414 226 68 55 53 58 156 184 255 188 258 249 362 193 359 159 124
0 0 0 0 0 0 0 0 0 0 0 0 0 0 242 275 293 323 175 243 162 3 7 29 53 31 120 45 69 50 59 72 66 64 86 358 366 150 111 93 59 80 116 136 246 229 167 193 245 214 226 349 519 331
0 0 0 0 0 0 0 0 0 0 0 0 0 0 117 207 265 357 242 88 0 3 14 3 1 11 10 15 27 48 27 25 57 86 79 165 228 70 103 100 86 42 65 105 108 94 81 99 149 231 231 249 312 344
0 0 0 0 0 0 0 0 0 0 0 0 0 0 15 329 373 359 110 92 0 31 48 0 0 0 0 2 3 27 37 59 57 72 140 413 258 118 35 27 38 31 37 38 42 55 68 94 156 194 241 122 28 57
3 0 0 0 0 0 1 0 1 2 0 0 0 74 140 384 528 318 161 77 0 32 48 48 21 34 0 0 17 23 42 51 39 45 94 177 123 42 26 15 23 32 36 39 41 49 90 135 302 311 267 239 128 60
1 0 0 0 0 0 0 10 1 0 0 0 10 101 346 403 596 584 471 228 31 46 26 76 50 50 55 52 54 14 10 16 44 71 193 106 12 25 18 18 23 25 32 28 39 39 54 99 337 344 303 44 5 32
1 0 0 0 0 0 1 4 23 30 47 164 98 326 645 688 669 673 596 448 288 171 92 86 88 172 60 85 51 0 0 0 2 44 61 35 22 23 9 11 10 21 37 21 24 1 29 43 223 260 199 67 5 0
0 0 3 8 0 0 1 18 15 13 60 203 167 437 448 648 675 540 386 600 543 435 238 270 204 457 256 115 4 0 22 0 14 0 1 12 0 3 14 14 12 21 18 28 17 23 19 39 51 71 52 78 7 93
0 0 5 4 79 82 9 0 1 22 0 0 35 89 124 315 367 457 958 585 660 526 597 466 540 514 371 48 26 0 141 65 0 0 0 0 0 5 8 3 8 23 55 22 24 32 31 19 92 88 43 40 46 37
0 0 0 63 62 59 3 12 16 14 11 11 56 201 398 408 441 675 460 475 450 556 573 488 578 302 188 101 48 60 5 0 0 0 0 0 0 0 0 0 4 28 41 45 27 37 45 3 22 33 46 90 79 71
0 3 30 60 16 16 15 61 140 258 332 379 445 441 557 697 816 596 523 390 502 499 286 520 260 187 47 16 1 1 0 0 0 0 0 0 0 0 0 1 9 14 17 40 19 26 41 43 18 56 51 56 52 43
0 0 0 0 22 19 8 112 168 127 232 378 453 494 616 538 547 523 524 242 286 206 287 229 94 40 32 14 0 0 0 0 0 0 0 0 0 0 0 4 9 9 22 35 33 26 19 23 34 33 41 44 48 52
0 0 9 4 4 8 22 73 170 251 346 284 407 551 548 571 468 353 389 185 212 163 233 111 33 14 7 0 0 0 0 0 0 0 0 0 0 0 1 4 11 9 6 7 18 22 22 18 17 22 35 12 0 21
0 2 4 0 26 33 9 4 45 155 259 226 463 516 406 213 257 512 481 235 123 110 70 41 5 0 0 0 0 0 0 0 0 0 0 0 0 0 0 0 13 9 4 3 4 17 23 21 18 18 19 25 26 23
15 6 0 0 0 0 0 4 31 92 213 265 403 212 209 238 309 795 391 182 93 43 11 0 0 0 0 0 0 0 0 0 0 0 0 0 0 0 0 0 0 0 1 3 5 7 12 19 19 19 19 28 28 36
2 9 2 0 0 1 2 11 24 82 232 393 596 404 317 451 371 422 357 55 19 11 14 12 0 0 0 0 0 0 0 0 0 0 0 0 0 0 0 0 0 0 0 0 0 0 0 0 1 9 8 18 24 31
8 6 3 4 0 0 0 0 0 8 117 390 354 434 455 271 419 681 430 68 12 3 5 0 0 0 0 0 0 0 0 0 0 0 0 0 0 0 0 0 0 0 7 0 0 0 0 0 0 1 8 27 26 30
9 3 0 0 0 0 0 0 0 0 0 13 70 54 70 463 519 485 217 23 1 10 4 1 0 0 0 0 0 0 0 0 0 0 0 0 0 0 0 0 0 0 0 0 5 8 15 6 25 20 19 20 16 7
3 2 0 0 0 0 0 0 0 15 33 191 539 668 771 781 622 158 122 15 0 13 5 10 6 0 0 4 0 0 0 0 0 0 0 0 0 0 0 0 0 0 0 1 1 5 8 2 23 14 21 18 25 17
1 0 0 0 0 0 0 0 62 152 289 591 1051 707 524 482 151 3 0 42 40 1 0 0 0 0 0 0 0 0 0 0 0 0 0 0 0 0 0 0 0 0 0 0 1 2 5 7 13 20 13 17 26 27

GFSWCAN_con_mucape_084.txt.gz
CAPE
0 0 0 0 0 0 0 0 0 0 0 0 0 0 0 0 0 0 0 0 0 139 0 0 0 0 0 0 38 0 0 0 0 7 26 158 124 239 64 107 51 13 2 2 4 41 17 0 0 0 43 5 0 0
0 0 0 0 0 1 0 0 0 0 0 0 0 0 0 0 0 0 0 0 0 42 69 0 0 0 0 0 0 0 1 0 0 6 1 15 27 0 0 22 0 108 41 250 110 178 13 6 8 4 0 8 1 0
0 0 0 0 0 1 1 0 0 0 0 0 0 0 0 0 0 0 0 0 0 43 34 0 0 0 0 0 0 14 9 0 0 0 6 1 14 1 45 19 68 0 0 49 14 97 14 6 0 0 0 0 0 0
0 0 0 0 0 0 10 8 0 0 0 0 0 0 0 0 0 0 1 0 0 36 12 88 0 0 0 0 0 0 0 0 0 0 0 14 31 0 1 32 0 18 0 0 0 5 1 0 0 0 0 0 0 0
0 0 0 0 0 1 5 7 0 0 0 0 0 0 0 0 0 0 0 0 0 141 389 13 0 0 0 0 0 0 0 0 36 29 33 76 58 146 13 12 20 31 14 7 26 21 30 24 23 8 0 0 0 0
0 0 0 0 0 1 4 0 0 0 0 0 0 0 0 0 0 0 74 1 0 0 237 21 47 0 0 0 3 0 12 7 12 12 9 165 49 63 355 454 240 141 81 109 47 25 15 0 0 1 1 0 0 0
0 0 0 0 0 0 4 0 0 0 0 0 0 0 0 0 0 0 11 139 0 0 417 108 286 77 1 15 55 7 7 37 27 69 302 167 8 23 122 381 290 39 79 93 73 63 31 3 2 0 0 1 0 0
0 0 0 0 0 6 9 8 0 0 0 0 0 0 0 0 0 12 0 0 0 150 115 295 185 259 150 85 160 42 61 112 17 89 7 8 6 0 1 0 21 11 21 8 23 9 29 10 18 34 11 7 0 0
0 0 0 0 0 6 16 1 0 0 0 0 0 0 0 0 11 0 0 0 0 255 734 153 111 667 282 410 504 762 413 287 71 30 103 16 16 5 0 20 177 94 53 26 6 14 20 20 58 7 13 30 17 0
0 0 0 0 3 11 2 1 0 0 0 0 0 2 102 20 0 0 10 321 392 219 193 304 39 281 218 498 409 401 207 352 278 217 22 53 32 81 322 448 531 187 30 26 35 57 38 20 34 47 17 12 7 16
0 0 0 0 10 8 5 0 0 0 0 0 46 104 1 0 15 14 187 326 212 318 295 171 162 5 339 12 177 405 309 246 256 339 183 254 311 365 463 120 466 350 67 5 7 8 12 16 41 50 17 7 6 21
0 2 0 0 5 3 0 0 0 0 0 0 0 0 18 1 9 37 215 77 94 259 428 101 137 44 30 63 106 257 119 226 149 290 176 200 229 383 155 47 104 214 246 43 18 18 17 6 16 9 1 4 0 0
11 11 9 2 2 0 0 0 0 0 0 0 3 14 7 40 2 270 257 403 430 171 264 281 414 189 76 55 114 88 98 99 127 127 208 157 470 300 262 128 18 74 154 226 100 110 82 57 13 10 34 36 84 75
1 0 0 0 0 0 0 0 0 0 0 9 28 0 64 179 337 277 322 300 377 44 28 0 25 5 38 47 58 95 72 48 47 79 118 551 396 376 199 48 23 39 71 89 263 397 177 156 173 158 73 255 30 72
0 0 0 0 0 0 0 0 0 0 0 4 3 0 167 343 366 365 30 101 90 0 2 19 37 23 64 87 54 24 23 44 75 52 42 543 392 148 38 9 10 44 19 33 52 137 160 221 199 241 166 34 50 122
0 0 0 0 0 0 0 0 0 0 0 0 0 0 83 273 312 333 316 190 8 2 7 5 7 11 5 22 23 37 26 7 39 67 245 391 296 199 48 1 7 14 14 36 23 25 41 55 43 123 74 262 242 190
0 0 0 0 0 0 0 0 0 0 0 0 0 0 8 478 391 363 476 220 1 17 55 25 0 5 0 0 2 10 19 36 53 108 366 405 234 87 0 1 8 8 21 25 28 45 48 29 36 63 177 369 242 161
0 1 0 0 0 0 0 0 0 1 0 0 0 22 53 274 314 381 356 178 1 30 47 55 54 25 26 6 13 23 7 19 18 91 249 215 118 7 0 0 6 13 21 22 25 49 49 21 28 94 237 345 214 223
0 0 0 0 0 0 0 9 0 0 0 0 7 7 199 292 302 574 379 523 69 5 31 53 72 81 123 55 180 30 0 2 30 143 255 151 1 0 0 0 5 10 8 32 21 3 15 37 80 161 297 276 17 20
0 0 0 0 0 0 5 4 32 4 0 196 43 0 366 441 614 516 628 837 391 193 199 19 209 166 111 320 245 14 4 0 0 6 56 45 0 0 0 1 1 2 27 26 7 0 16 13 23 10 26 0 4 3
0 0 0 0 0 0 0 13 37 1 1 36 32 77 215 335 416 88 670 345 157 333 340 198 130 23 444 514 68 24 51 0 0 0 0 48 3 3 0 3 2 6 10 12 34 23 31 29 32 77 81 55 83 47
0 0 0 6 54 81 17 0 0 13 22 15 0 17 110 100 259 480 593 356 528 434 412 700 796 547 569 238 53 17 352 38 0 0 0 0 0 0 0 0 0 9 16 21 7 19 36 29 59 69 85 171 73 127
0 0 0 19 65 19 0 0 1 15 6 4 17 0 0 25 54 437 491 430 544 756 625 660 1190 874 839 422 57 78 10 0 0 0 0 0 0 0 0 0 0 10 26 5 12 25 26 0 24 55 55 70 88 80
0 0 24 31 36 0 1 7 20 42 110 132 102 246 467 259 555 568 350 407 315 379 728 1424 630 404 313 172 19 0 0 0 0 0 0 0 0 0 0 0 0 4 5 23 12 9 27 27 5 47 56 38 49 44
0 0 0 0 44 45 0 0 42 42 76 224 358 340 372 188 556 453 393 346 35 337 560 515 177 172 56 32 16 0 0 0 0 0 0 0 0 0 0 0 5 2 9 24 22 29 26 28 29 42 32 5 5 41
0 0 0 0 0 0 1 19 126 122 245 223 200 273 89 93 56 153 367 437 106 355 369 289 53 19 16 22 6 0 0 0 0 0 0 0 0 0 0 0 2 2 0 0 5 13 19 20 15 24 36 7 0 4
0 8 38 11 17 54 47 11 9 30 38 183 298 293 69 1 18 121 17 133 373 168 164 145 18 3 14 6 0 0 0 0 0 0 0 0 0 0 0 0 0 6 0 0 0 4 17 22 25 21 25 25 37 24
15 42 30 48 15 3 0 2 10 24 22 310 325 183 69 61 261 15 12 97 310 182 92 8 0 0 0 0 0 0 0 0 0 0 0 0 0 0 0 0 0 0 0 0 0 2 9 21 25 26 24 22 32 35
30 58 65 49 35 21 8 3 4 0 83 194 145 24 79 118 290 499 431 338 220 119 27 0 0 0 0 0 0 0 0 0 0 0 0 0 0 0 0 0 0 0 0 0 0 0 0 0 0 0 11 15 17 18
23 38 25 27 24 4 0 0 0 4 19 31 203 439 380 497 112 259 225 141 185 110 48 7 3 1 0 0 0 0 1 0 0 0 0 0 0 0 0 0 0 0 0 0 0 0 0 0 0 0 7 21 29 36
34 42 35 16 8 7 4 0 0 0 0 0 2 55 219 394 260 142 75 18 1 4 1 12 1 0 0 0 6 2 0 0 0 0 0 0 3 0 0 0 0 0 1 1 0 0 0 0 0 14 41 32 27 7
5 3 14 6 1 0 0 0 0 0 3 25 178 356 177 401 147 6 4 0 0 3 10 7 0 1 4 4 0 0 0 0 0 0 0 0 0 0 0 0 0 0 0 0 0 2 16 6 9 12 25 25 29 31
26 16 8 1 0 0 0 0 0 1 173 127 91 265 307 198 106 15 1 0 0 0 0 0 0 0 0 0 4 0 0 0 0 0 0 0 0 0 0 0 0 0 0 0 0 0 2 7 0 10 20 16 23 33

GFSWCAN_con_mucape_087.txt.gz
CAPE
0 0 0 0 0 0 0 0 0 0 0 0 0 0 0 0 0 0 0 31 3 67 0 0 0 0 0 0 1 0 0 0 0 35 170 130 190 211 31 22 24 10 0 0 0 0 0 0 0 6 70 24 37 62
0 0 0 0 0 0 0 0 0 0 0 0 0 0 0 0 0 0 31 1 20 40 97 0 0 0 0 0 0 0 0 0 0 126 59 96 153 0 1 76 4 30 17 104 131 9 0 0 0 1 7 40 24 40
0 0 0 0 0 0 0 0 0 0 0 0 0 0 0 0 0 0 0 14 0 107 128 0 0 0 0 0 0 1 1 0 0 0 0 46 31 2 199 81 13 7 9 27 88 82 1 0 0 0 15 29 17 13
0 0 0 0 0 0 0 1 0 0 0 0 0 0 0 0 0 0 0 3 26 179 128 51 13 0 0 0 0 0 0 0 0 0 0 4 80 55 30 19 0 0 0 0 4 16 0 0 0 0 0 0 0 0
0 0 0 0 0 0 1 0 0 0 0 0 0 0 0 0 0 0 0 0 44 50 259 130 0 0 0 0 0 0 0 48 39 77 9 47 53 14 30 69 42 49 44 69 0 34 28 36 0 0 0 0 0 0
0 0 0 0 0 0 0 0 0 0 0 0 0 0 0 0 0 0 158 0 0 12 181 375 29 3 0 0 0 1 24 1 2 0 23 51 0 3 118 64 101 39 53 20 32 15 4 2 1 16 0 0 0 0
0 0 0 0 0 0 0 0 0 0 0 0 0 0 0 0 0 0 7 77 7 0 456 344 71 145 28 28 22 8 17 3 25 46 120 19 0 0 90 62 102 93 44 43 6 16 33 20 0 0 0 0 0 0
0 0 0 0 0 2 1 2 0 1 0 0 0 0 0 0 0 0 0 0 0 38 535 394 315 394 129 45 134 93 96 63 16 4 1 1 0 0 0 0 1 25 20 35 21 16 22 2 1 0 4 0 0 0
0 0 0 0 0 0 2 3 0 0 0 0 0 0 0 0 87 12 0 0 1 286 695 313 376 394 433 396 456 471 358 277 47 36 42 2 0 0 0 0 79 216 49 14 5 3 0 8 7 10 24 13 5 0
0 0 0 0 0 4 5 0 0 0 0 0 0 1 104 76 0 0 10 200 236 545 565 457 342 410 311 385 432 339 284 245 142 39 0 0 0 2 13 24 336 361 48 2 0 3 3 5 10 11 25 23 21 12
0 0 0 3 1 7 4 1 0 0 0 0 23 82 7 0 47 308 313 441 333 289 276 425 276 112 287 132 263 371 222 229 186 151 50 130 208 375 355 294 161 265 213 27 2 0 0 0 3 8 6 21 33 17
3 0 0 3 7 5 2 0 0 0 0 0 0 0 37 77 25 20 360 292 319 266 362 416 285 127 243 136 196 321 165 219 85 137 178 138 183 284 273 44 64 76 132 185 130 47 27 43 0 0 0 16 20 13
17 7 6 3 4 7 0 0 0 0 0 0 4 22 20 46 1 29 257 413 477 547 479 213 462 479 166 215 133 170 53 150 177 111 336 78 180 15 9 221 84 33 229 248 342 153 108 149 71 13 8 0 20 6
0 4 7 2 2 0 0 0 0 0 0 0 21 0 10 60 216 583 408 448 564 166 42 194 92 45 30 71 66 57 114 83 39 47 84 309 164 192 230 46 8 0 0 0 42 113 139 205 76 60 92 57 48 36
0 0 0 0 0 0 0 0 0 0 0 0 9 0 21 254 299 338 445 571 240 35 19 7 119 14 94 85 96 33 41 44 53 71 41 437 439 115 39 2 0 0 0 0 0 0 6 28 36 56 79 77 78 77
0 0 0 0 0 0 0 0 0 0 0 0 0 0 25 246 361 117 560 487 166 10 54 27 26 28 34 59 46 25 19 4 20 142 83 398 268 133 14 0 0 0 0 4 2 14 11 6 1 3 6 14 50 97
0 0 0 0 0 0 0 0 0 0 0 0 0 0 0 258 49 5 78 118 224 64 171 214 9 2 0 0 1 3 17 40 66 112 87 225 189 74 0 0 0 0 1 0 4 12 39 13 2 0 0 0 44 79
0 0 0 0 0 0 0 0 0 0 0 0 0 0 37 270 377 105 149 237 373 258 353 142 319 45 8 6 10 128 35 68 115 110 105 155 87 32 0 0 0 0 0 4 0 14 0 0 0 0 6 14 0 0
0 0 0 0 0 0 0 0 0 0 0 0 0 2 17 124 1048 942 842 600 306 685 417 381 102 143 228 39 285 209 18 70 108 75 82 94 33 0 0 0 0 12 19 10 0 0 0 3 0 0 0 0 0 0
0 0 0 0 0 0 0 5 283 74 0 72 3 25 132 632 754 742 749 865 413 172 177 100 102 404 179 49 124 96 58 11 46 97 7 0 0 0 0 0 2 11 1 0 0 0 0 4 0 0 0 0 0 0
6 0 0 0 0 0 0 0 47 52 0 0 3 64 234 558 408 1029 727 1227 897 572 257 290 370 539 107 68 51 637 34 27 37 22 20 0 0 0 0 0 0 3 9 0 0 0 0 7 23 28 31 22 22 0
0 0 0 1 7 45 16 5 0 15 0 15 44 79 17 20 212 489 578 576 469 554 507 435 583 350 222 347 344 281 153 24 0 0 0 0 0 0 0 0 0 6 0 0 0 0 1 0 4 53 72 116 24 107
0 0 0 9 61 25 0 22 10 0 0 10 37 28 11 1 82 359 165 682 748 602 493 759 1209 552 415 626 352 254 105 18 0 0 0 0 0 0 0 0 0 1 0 0 0 0 0 0 0 3 4 13 15 2
0 0 22 13 12 0 0 7 25 44 23 24 18 79 165 454 108 75 262 386 236 135 30 230 432 273 257 159 132 107 26 0 0 0 0 0 0 0 0 0 0 0 0 0 0 0 0 8 6 3 23 34 41 25
10 1 0 0 28 54 21 0 0 3 1 30 119 158 476 98 95 0 156 191 118 41 140 324 389 235 145 138 81 34 0 0 0 0 0 0 0 0 0 0 0 0 0 1 3 1 1 12 25 26 8 3 2 15
1 0 0 0 0 0 0 2 76 91 94 123 226 68 33 14 22 4 61 29 6 1 20 285 576 341 242 94 8 0 0 0 0 0 0 0 0 0 0 0 0 0 0 0 2 16 13 4 0 2 0 0 0 0
8 6 23 36 8 14 13 48 76 9 36 115 378 171 58 19 21 182 175 15 19 27 18 101 274 139 92 58 5 0 0 0 0 1 0 0 0 0 0 0 1 0 0 0 0 0 7 12 5 6 9 19 9 9
24 22 13 63 81 75 19 12 0 1 24 233 378 164 79 97 340 224 38 81 31 41 74 171 280 73 13 5 0 0 0 0 0 0 0 0 0 0 0 0 0 0 0 0 0 0 0 1 11 10 8 11 20 26
0 18 57 54 70 77 71 20 0 0 18 80 146 50 37 229 4 4 115 189 270 80 8 0 0 0 0 1 0 0 0 1 9 1 0 0 0 0 0 0 0 0 0 0 0 0 0 0 0 0 0 5 0 0
0 18 51 56 46 45 52 19 0 0 4 5 249 378 167 65 44 34 22 29 60 76 24 0 0 2 8 0 7 7 0 2 4 0 0 2 0 0 0 0 0 0 0 0 0 0 0 0 0 0 0 0 14 21
14 34 36 48 38 24 19 23 26 25 19 99 359 366 228 135 22 20 15 0 0 0 0 2 5 6 15 2 16 18 16 1 0 0 0 4 2 0 0 0 0 0 0 0 0 0 0 0 0 0 0 4 11 15
23 34 28 29 29 20 42 9 7 16 129 250 82 42 66 430 73 3 0 0 0 0 0 4 15 11 5 3 13 18 15 0 0 0 1 0 8 0 0 0 0 0 0 2 1 0 0 0 0 10 18 47 43 43
39 11 0 0 4 21 18 31 18 44 107 39 41 171 178 266 12 0 0 0 0 0 0 0 0 0 0 2 0 3 0 0 0 0 0 0 0 0 0 0 0 0 0 0 0 1 1 8 19 13 19 25 35 44

GFSWCAN_con_mucape_090.txt.gz
CAPE
0 0 0 0 0 0 0 0 0 0 0 0 0 0 0 0 0 0 0 0 3 0 0 0 0 0 0 0 0 0 0 0 0 0 18 2 22 0 3 4 8 6 0 0 0 0 0 0 0 0 0 57 174 107
0 0 0 0 0 0 0 0 0 0 0 0 0 0 0 0 0 0 0 0 5 0 0 0 0 0 0 0 0 0 0 0 0 0 0 0 0 0 0 4 0 1 4 59 13 0 0 0 0 10 110 283 234 128
0 0 0 0 0 0 0 0 0 0 0 0 0 0 0 0 0 0 0 0 0 23 31 0 0 0 0 0 0 0 0 0 0 0 0 0 0 0 0 0 0 0 0 2 0 1 0 0 1 5 1 0 53 85
0 0 0 0 0 0 0 0 0 0 0 0 0 0 0 0 0 0 0 0 0 38 22 0 10 0 0 0 0 0 0 0 0 0 0 0 0 0 0 0 0 0 0 0 0 0 4 1 4 10 9 1 0 0
0 0 0 0 0 0 0 0 0 0 0 0 0 0 0 0 0 0 0 0 0 0 42 5 0 0 0 0 0 0 0 0 0 0 1 16 0 0 0 0 0 0 0 0 0 0 0 0 4 10 10 24 28 1
0 0 0 0 0 0 0 0 0 0 0 0 0 0 0 0 0 0 0 0 0 10 74 91 0 26 0 0 0 0 0 1 0 2 0 0 0 4 11 7 8 6 4 0 0 0 0 0 0 0 0 0 0 0
0 0 0 0 0 0 0 0 0 0 0 0 0 0 0 0 0 0 0 1 0 0 106 108 1 50 40 3 13 1 0 0 0 0 0 0 0 0 0 0 0 0 3 7 16 12 5 6 3 0 0 0 0 0
0 0 0 0 0 0 0 0 0 0 0 0 0 0 0 0 0 0 0 0 0 0 137 93 67 41 28 27 13 20 6 0 0 0 0 0 0 0 0 0 0 0 0 0 0 0 3 14 15 12 2 0 0 0
0 0 0 0 0 0 0 0 0 8 0 0 0 0 0 0 0 0 0 0 0 37 155 50 22 12 58 47 148 55 6 2 0 0 0 0 0 0 0 0 0 0 0 0 0 0 0 0 2 13 17 0 0 0
0 0 0 0 2 0 0 0 0 0 0 0 0 0 0 0 0 0 0 0 3 88 25 115 29 87 41 55 61 41 0 0 0 0 0 0 0 0 0 0 0 8 10 0 0 0 0 0 0 0 0 5 3 3
0 0 0 0 3 0 0 0 0 0 0 0 2 0 0 0 0 0 0 108 61 75 43 6 6 17 7 32 43 13 13 4 0 0 0 0 0 8 0 0 58 24 16 0 2 0 0 0 0 0 0 0 6 31
0 0 0 0 3 4 4 0 0 0 0 0 0 0 0 0 0 0 0 22 0 0 4 9 4 0 0 0 0 24 14 8 0 3 0 0 6 44 29 31 42 0 0 6 14 12 2 3 1 0 0 0 0 16
0 1 0 2 11 16 3 0 0 0 0 0 0 0 0 0 0 0 0 4 4 22 6 4 8 4 0 0 2 2 2 7 6 0 0 0 2 3 6 0 0 0 1 7 12 31 11 15 6 7 5 8 0 0
0 5 11 9 12 0 0 0 0 0 0 0 0 0 0 0 0 9 84 36 0 7 4 12 6 0 0 0 0 0 7 14 9 0 0 0 10 14 0 4 0 0 0 0 0 2 14 19 23 23 17 14 6 3
0 0 0 0 0 0 0 0 0 0 0 0 0 0 0 0 133 118 94 44 2 0 3 18 5 0 0 0 2 3 4 0 0 0 0 9 8 3 11 0 0 0 0 0 0 0 0 0 0 0 2 7 12 19
0 0 0 0 0 0 0 0 0 0 0 0 0 0 0 2 64 79 45 58 8 2 0 0 0 2 1 5 0 0 0 0 0 0 0 0 0 7 5 0 0 0 0 0 0 0 0 0 0 0 0 0 0 0
0 0 0 0 0 0 0 0 0 0 0 0 0 0 0 0 2 42 34 48 25 9 1 12 6 0 0 0 0 0 0 0 0 0 6 14 0 0 0 0 0 0 0 0 0 0 0 0 0 0 0 0 0 0
0 0 0 0 0 0 0 0 0 0 0 0 0 0 0 0 0 6 4 18 41 43 8 15 13 1 0 0 0 1 0 0 0 0 3 0 0 0 0 0 0 0 0 0 0 0 0 0 0 0 0 0 0 0
1 0 0 0 0 0 0 0 0 0 0 0 0 0 0 7 104 102 146 117 117 70 11 1 7 0 0 0 0 15 12 5 1 0 5 1 0 0 0 0 0 0 0 0 0 0 0 0 0 0 0 0 0 0
3 0 0 0 0 0 0 0 0 0 0 0 0 0 0 0 73 72 218 194 95 76 52 2 2 0 0 0 7 14 22 1 0 0 0 5 0 0 0 0 0 0 0 0 0 0 0 0 0 0 0 0 0 0
3 0 0 0 0 0 0 0 2 0 0 0 0 0 9 65 55 23 105 273 305 201 109 63 29 3 11 21 35 24 18 0 0 0 11 1 0 0 0 0 0 0 0 0 0 0 0 0 0 1 0 0 0 0
0 1 0 0 0 15 0 0 0 0 0 0 0 0 0 0 0 0 121 372 156 112 140 82 54 62 140 127 49 69 34 21 4 7 27 2 0 0 0 0 0 0 0 0 0 0 0 0 0 9 28 10 7 4
0 0 0 1 38 20 0 1 5 1 0 0 0 0 0 0 6 42 95 189 220 160 276 354 467 511 495 279 182 55 53 69 55 38 48 2 0 0 0 0 0 0 0 0 1 0 0 0 0 1 0 0 7 4
15 0 0 0 0 0 0 2 0 0 0 0 0 2 44 104 44 24 13 9 10 2 13 43 25 40 106 114 170 71 43 34 58 88 11 0 0 0 0 0 0 0 0 0 0 0 0 0 0 0 0 0 2 3
28 8 0 0 17 20 36 20 1 0 0 0 23 39 123 43 6 0 2 14 10 4 27 0 0 0 88 168 161 63 42 9 0 0 0 0 0 0 0 0 0 0 0 0 0 0 0 0 0 0 0 0 2 7
14 5 1 0 0 0 0 3 51 47 35 52 56 44 25 5 17 34 11 15 13 9 4 2 25 64 100 89 75 25 26 4 0 0 0 0 0 1 0 0 0 0 0 0 0 0 0 0 0 0 0 0 0 0
0 0 0 2 12 3 8 43 49 29 11 19 70 57 11 0 34 18 26 22 13 6 38 14 18 32 49 91 86 57 33 7 0 0 0 0 2 0 0 0 0 0 0 0 0 0 0 0 0 0 0 0 0 0
1 3 0 3 15 32 23 51 28 0 0 149 91 79 39 48 25 18 3 1 26 59 30 10 19 10 2 0 40 37 11 1 5 10 26 0 0 0 0 0 0 0 0 0 0 0 0 0 0 0 0 0 0 0
1 0 2 4 35 63 49 39 30 3 0 63 28 3 0 36 3 10 11 20 27 31 9 15 0 0 0 3 0 0 2 0 2 2 2 0 0 0 0 0 0 0 0 0 0 0 0 0 0 0 0 0 0 0
0 0 0 23 39 47 43 37 17 3 0 3 102 43 29 43 64 32 10 2 3 0 0 0 0 0 3 11 13 0 0 0 0 1 0 0 0 0 0 0 0 0 0 0 0 0 0 0 0 0 0 0 0 0
0 0 0 15 24 17 5 7 8 23 35 218 245 177 76 37 23 17 6 0 0 0 0 4 8 12 17 18 8 3 5 0 1 0 0 0 0 0 0 0 0 0 0 0 0 0 0 0 0 0 0 0 0 0
1 7 10 10 5 1 22 11 26 95 151 88 44 52 119 122 71 3 0 0 0 0 0 0 0 0 1 2 4 14 15 11 0 0 0 0 0 0 0 0 0 0 0 0 0 0 0 0 0 0 0 0 0 0
7 10 5 7 3 15 113 290 102 39 31 22 22 68 150 87 2 0 0 0 0 0 0 0 0 0 0 2 4 5 7 6 0 0 0 0 0 0 0 0 0 0 0 0 0 0 0 0 0 0 0 0 0 2

GFSWCAN_con_mucape_093.txt.gz
CAPE
0 0 0 0 0 0 0 0 0 0 0 0 0 0 0 0 0 0 0 0 0 0 0 0 0 0 0 0 0 0 0 0 0 0 0 0 5 1 12 1 3 0 0 0 0 0 1 0 0 0 0 130 213 221
0 0 0 0 0 0 0 0 0 0 0 0 0 0 0 0 0 0 0 0 0 0 0 0 0 0 0 0 0 0 0 0 0 0 0 0 0 0 3 17 0 4 37 15 5 3 2 7 0 0 46 112 176 274
0 0 0 0 0 0 0 0 0 0 0 0 0 0 0 0 0 0 0 0 0 0 8 0 0 0 0 0 0 0 0 0 0 0 0 0 0 0 0 0 0 0 11 4 0 0 0 12 16 99 181 127 217 233
0 0 0 0 0 0 0 0 0 0 0 0 0 0 0 0 0 0 0 0 0 14 0 0 0 0 0 0 0 0 0 0 0 0 0 0 0 0 0 0 0 0 0 0 7 12 15 3 0 10 46 84 100 88
0 0 0 0 0 0 0 0 0 0 0 0 0 0 0 0 0 0 0 0 0 0 0 0 0 0 0 0 0 0 0 0 0 0 5 0 0 0 0 0 0 0 0 10 17 46 48 6 2 3 1 0 0 1
0 0 0 0 0 0 0 0 0 0 0 0 0 0 0 0 0 0 0 0 0 0 72 0 0 0 0 0 0 0 0 0 0 0 0 0 0 0 0 0 0 0 0 0 0 28 21 1 0 0 0 0 0 0
0 0 0 0 0 0 0 0 0 0 0 0 0 0 0 0 0 0 0 0 0 0 96 0 0 0 41 0 0 0 0 0 0 0 0 0 0 0 0 0 0 0 0 0 0 1 1 6 2 0 0 0 0 0
0 0 0 0 0 0 0 0 0 0 0 0 0 0 0 0 0 0 0 0 0 0 90 10 14 0 3 3 10 5 1 0 0 0 0 0 0 0 0 0 0 0 0 0 0 0 4 8 8 12 3 0 0 0
0 0 0 0 0 0 0 0 0 0 0 0 0 0 0 0 0 0 0 0 0 3 54 6 0 0 0 4 27 6 0 0 0 0 0 0 0 0 0 0 0 0 0 0 0 0 0 0 0 2 13 14 9 1
0 0 0 0 0 0 0 0 0 1 1 0 0 0 2 0 0 0 0 0 0 0 0 0 0 4 1 8 10 9 0 0 0 0 0 0 0 0 0 0 0 0 0 0 0 0 0 0 0 0 0 0 0 7
0 0 0 0 0 0 0 0 0 0 0 0 0 0 0 0 0 0 0 13 35 37 4 3 2 11 8 22 20 10 0 0 0 0 0 0 0 0 0 0 0 0 0 0 0 0 0 0 0 0 0 0 0 0
0 0 0 2 1 6 2 0 0 0 0 0 0 0 0 0 0 0 0 0 0 0 0 1 9 8 5 13 11 6 11 0 0 0 0 0 0 0 0 0 0 0 0 0 0 3 3 0 0 0 0 0 0 0
0 0 1 0 0 6 13 0 0 0 0 0 0 0 0 0 0 0 0 0 0 0 0 3 5 0 0 0 0 0 0 0 0 0 0 0 0 1 0 0 0 0 0 0 0 3 14 8 9 10 5 0 0 0
1 4 9 6 5 18 15 0 0 0 0 0 0 0 0 0 0 0 0 0 0 0 1 6 14 0 0 0 0 0 0 1 0 0 0 0 0 0 0 0 0 0 0 0 0 0 2 12 21 27 20 14 17 7
4 7 22 20 5 0 0 0 0 0 0 0 0 0 0 0 38 53 97 78 2 0 0 0 4 0 0 0 0 0 0 0 0 0 0 0 0 0 0 0 0 0 0 0 0 0 0 0 0 0 0 0 0 0
0 0 0 0 0 0 0 0 0 0 0 0 0 0 0 1 45 51 24 22 13 2 4 9 0 0 0 0 0 0 0 0 0 0 0 0 0 0 0 0 0 0 0 0 0 0 0 0 0 0 0 0 0 0
0 0 0 0 0 0 0 0 0 0 0 0 0 0 0 0 18 40 43 44 48 21 9 0 0 0 0 0 0 0 0 0 0 0 0 0 0 0 0 0 0 0 0 0 0 0 0 0 0 0 0 0 0 0
0 0 0 0 0 0 0 0 0 0 0 0 0 0 0 0 0 7 8 2 26 34 32 10 1 2 0 0 0 0 0 0 0 3 9 1 0 0 0 0 0 0 0 0 0 0 0 0 0 0 0 0 0 0
7 1 0 0 0 0 0 0 0 0 0 0 0 0 0 0 0 6 22 6 28 25 16 8 3 0 0 0 0 0 0 0 0 4 0 2 0 0 0 0 0 0 0 0 0 0 0 0 0 0 0 0 0 0
26 6 0 0 0 0 0 0 0 0 0 0 0 0 0 0 0 11 56 87 87 62 47 5 0 0 1 3 9 12 1 0 0 0 0 0 0 5 0 0 0 0 0 0 0 0 0 0 0 0 0 0 0 0
17 10 1 0 0 0 0 0 0 0 0 0 0 0 0 1 7 9 54 54 107 62 23 0 0 0 6 7 14 18 22 22 21 37 4 0 9 16 5 0 0 0 0 0 0 0 0 0 0 0 0 0 0 0
7 6 1 1 0 0 0 0 0 0 0 0 0 0 0 0 0 0 0 50 81 14 28 21 29 49 51 39 28 23 50 54 42 27 16 25 5 12 22 0 3 0 0 0 0 0 0 0 0 0 1 3 3 5
10 1 0 0 14 0 0 0 3 5 2 0 0 0 0 0 0 0 0 0 36 54 56 66 172 234 187 154 192 202 63 55 32 12 19 31 42 46 36 0 0 0 0 0 0 0 0 0 0 0 3 8 3 2
14 12 5 0 0 0 0 0 0 0 0 0 0 0 0 38 25 15 0 11 10 16 0 0 0 8 20 18 24 43 43 35 25 12 1 13 29 23 0 0 0 0 0 0 0 0 0 0 0 0 0 0 0 0
33 16 11 1 4 7 4 7 1 11 5 0 5 17 103 46 17 0 0 0 11 2 7 7 11 4 0 0 15 33 12 1 0 5 13 23 0 0 0 0 0 0 0 0 0 0 0 0 0 0 0 0 0 4
0 9 1 0 0 6 40 5 48 37 27 52 26 66 49 12 0 0 0 0 1 0 0 0 18 8 12 26 37 33 14 2 31 0 0 0 0 0 0 0 0 0 0 0 0 0 0 0 0 0 0 0 0 0
0 2 0 0 2 8 0 1 7 23 28 24 35 33 19 1 0 10 1 0 0 0 6 9 10 11 20 33 22 61 74 39 13 0 0 2 15 0 0 0 0 0 0 0 0 0 0 0 0 0 0 0 0 0
0 0 0 9 14 14 3 17 31 22 1 70 10 13 47 23 17 37 6 0 0 4 5 14 14 16 19 20 1 2 1 19 59 0 0 1 9 0 0 0 0 0 0 0 0 0 0 0 0 0 0 0 0 0
0 0 0 0 0 11 28 21 8 12 7 17 10 8 8 15 23 3 8 19 0 0 0 0 0 0 0 0 0 0 0 18 6 0 0 0 0 0 0 0 0 0 0 0 0 0 0 0 0 0 0 0 0 0
0 0 0 0 1 13 26 25 32 35 26 11 21 41 41 20 14 15 12 3 0 0 0 0 0 0 0 0 0 2 20 0 0 0 0 0 0 0 0 0 0 0 0 0 0 0 0 0 0 0 0 0 0 0
0 0 0 0 0 9 16 32 45 63 64 217 214 149 91 41 12 9 2 0 0 0 0 0 0 3 3 13 0 0 0 1 12 6 0 0 0 0 0 0 0 0 0 0 0 0 0 0 0 0 0 0 0 0
0 0 0 0 9 28 34 37 53 148 92 59 43 71 70 55 4 5 0 0 0 0 0 0 0 0 1 7 1 8 14 14 8 1 0 0 0 0 0 0 0 0 0 0 0 0 0 0 0 0 0 0 0 0
10 9 13 13 11 13 40 97 65 54 41 21 2 14 28 25 0 0 0 0 0 0 0 0 0 0 0 1 0 1 1 7 0 0 0 0 0 0 0 0 0 0 0 0 0 0 0 0 0 0 0 0 0 0

GFSWCAN_con_mucape_096.txt.gz
CAPE
0 0 0 0 0 0 0 0 0 0 0 0 0 0 0 0 0 0 0 0 0 0 0 0 0 0 0 0 0 0 0 0 0 0 0 0 0 2 20 16 3 0 0 0 0 0 0 0 1 13 8 26 207 193
0 0 0 0 0 0 0 0 0 0 0 0 0 0 0 0 0 0 0 0 0 0 0 0 0 0 0 0 0 0 0 0 0 0 0 0 0 0 0 14 4 0 0 9 3 1 2 13 32 0 0 52 62 211
0 0 0 0 0 0 0 0 0 0 0 0 0 0 0 0 0 0 0 0 0 0 0 0 0 0 0 0 0 0 0 0 0 0 0 0 0 0 0 0 0 3 5 2 10 8 12 24 39 41 60 53 141 163
0 0 0 0 0 0 0 0 0 0 0 0 0 0 0 0 0 0 0 0 0 0 0 0 0 0 0 0 0 0 0 0 0 0 0 0 0 0 0 0 0 0 0 0 0 0 0 0 1 23 53 116 120 119
0 0 0 0 0 0 0 0 0 0 0 0 0 0 0 0 0 0 0 0 0 0 0 0 0 0 0 0 0 0 0 1 1 1 2 0 0 0 0 0 0 0 0 0 0 0 0 0 0 0 0 20 74 88
0 0 0 0 0 0 0 0 0 0 0 0 0 0 0 0 0 0 0 0 0 0 0 0 0 0 0 0 0 0 0 0 0 0 0 0 0 0 0 0 0 0 0 0 0 0 0 0 0 0 0 0 0 0
0 0 0 0 0 0 0 0 0 0 0 0 0 0 0 0 0 0 0 0 0 0 19 0 0 0 6 2 0 0 0 0 0 0 0 0 0 0 0 0 0 0 0 0 0 0 0 0 0 0 0 0 0 0
0 0 0 0 0 0 0 0 0 0 0 0 0 0 0 0 0 0 0 0 0 0 41 0 0 0 0 0 0 0 0 0 0 0 0 0 0 0 0 0 0 0 0 0 0 0 0 0 0 0 0 0 0 0
0 0 0 0 0 0 0 0 0 0 0 0 0 0 0 0 0 0 0 0 0 0 7 3 0 0 0 0 0 0 0 0 0 0 0 0 0 0 0 0 0 0 0 0 0 0 0 0 0 0 0 0 0 3
0 0 0 0 0 0 0 0 0 0 0 0 0 0 0 0 0 0 0 0 0 0 0 0 0 3 3 2 5 0 0 0 0 0 0 0 0 0 0 0 0 0 0 0 0 0 0 0 0 0 0 0 0 0
0 0 0 0 0 0 0 0 0 0 3 0 5 0 0 0 0 0 0 0 0 2 0 0 0 0 0 7 1 2 0 0 0 0 0 0 0 0 0 0 0 0 0 0 0 0 0 0 0 0 0 0 0 0
0 0 0 0 3 1 0 0 0 0 2 5 3 0 0 0 0 0 0 0 0 0 0 0 0 0 0 3 5 0 0 0 0 0 0 0 0 0 0 0 0 0 0 0 0 0 1 0 0 0 0 0 0 0
0 0 0 6 5 5 3 0 0 0 0 0 0 0 0 0 0 0 0 0 0 0 0 0 0 0 0 0 0 0 0 0 0 0 0 0 0 0 0 0 0 0 0 0 0 0 0 7 8 6 9 10 9 1
8 9 1 2 2 5 6 0 0 0 0 0 0 0 0 0 0 0 0 0 0 0 0 0 0 0 0 0 0 0 0 0 0 0 0 0 0 0 0 0 0 0 0 0 0 0 0 0 0 6 12 13 3 5
3 5 12 4 8 13 18 1 0 0 0 0 0 0 0 0 0 14 9 3 0 0 2 1 2 0 0 0 0 0 0 0 0 0 0 0 0 0 0 0 0 0 0 0 0 0 0 0 0 0 0 0 0 0
0 0 3 9 2 0 0 0 0 0 0 0 0 0 0 0 59 59 46 22 18 0 0 5 0 0 0 0 0 0 0 0 0 0 0 0 0 0 0 0 0 0 0 0 0 0 0 0 0 0 0 0 0 0
1 0 0 0 0 0 0 0 0 0 0 0 0 0 0 10 39 11 38 38 35 11 0 1 0 0 0 0 0 0 0 0 0 0 0 2 6 0 0 0 0 0 0 0 0 0 0 0 0 0 0 0 0 0
6 0 0 0 0 0 0 0 0 0 6 2 0 0 0 12 15 24 43 46 26 25 44 4 9 6 0 0 0 0 0 0 0 0 0 1 0 0 0 0 0 0 0 0 0 0 0 0 0 0 0 0 0 0
4 1 0 0 0 0 0 0 0 0 0 0 0 0 0 0 4 5 13 32 11 19 28 24 4 0 0 1 0 1 6 8 3 0 1 8 0 0 0 0 0 0 0 0 0 0 0 0 0 0 0 0 0 0
8 4 9 0 0 0 1 0 0 0 0 0 0 0 0 0 0 0 1 29 20 33 32 8 0 0 0 0 0 3 9 5 8 4 16 35 8 0 0 7 0 0 0 0 0 0 0 0 0 0 0 0 0 0
2 2 5 6 0 0 0 0 0 0 0 0 0 0 0 0 0 0 8 30 40 25 12 12 18 28 38 25 22 30 25 23 30 26 28 41 21 10 0 1 14 0 0 0 0 0 0 0 0 0 0 0 0 0
11 5 13 0 0 0 0 0 0 0 0 0 0 0 0 0 0 0 0 6 13 28 38 27 28 20 13 24 33 38 52 28 23 12 24 40 20 20 18 2 0 1 0 0 0 0 0 0 0 0 0 0 0 1
13 26 1 0 10 6 0 0 1 7 0 0 0 0 0 0 0 0 0 0 0 0 7 20 37 55 72 90 119 91 53 47 46 33 31 30 13 31 15 6 1 0 0 0 0 0 0 0 0 0 0 0 0 2
10 4 8 0 0 0 0 0 1 0 0 1 0 0 0 0 0 9 5 0 0 3 4 3 2 15 15 3 12 22 31 20 26 24 30 20 18 15 6 4 13 0 0 0 0 0 0 0 0 0 0 0 0 0
38 0 1 3 4 8 0 2 0 2 0 0 0 0 2 58 26 14 0 2 0 0 5 6 1 3 3 7 10 2 11 6 5 12 1 0 0 13 1 22 0 0 0 0 0 0 0 0 0 0 0 0 0 0
3 3 4 0 5 4 18 24 30 13 21 23 12 6 67 54 30 5 2 7 0 2 28 31 30 18 17 2 13 15 13 10 10 3 0 0 0 0 0 0 0 0 0 0 0 0 0 0 0 0 0 0 0 0
0 0 10 0 0 7 0 0 0 5 9 18 37 48 43 29 15 15 9 19 9 12 21 27 28 24 31 19 10 27 8 5 20 8 3 0 0 0 0 0 0 0 0 0 0 0 0 0 0 0 0 0 0 0
0 0 0 3 2 10 19 14 17 24 16 30 38 15 44 38 32 49 31 4 0 15 3 0 3 0 0 1 5 1 13 47 44 32 18 0 0 0 0 0 0 0 0 0 0 0 0 0 0 0 0 0 0 0
0 0 0 0 0 0 0 1 14 29 26 59 33 0 6 24 34 12 3 1 7 6 0 0 0 0 0 0 0 0 7 0 5 5 6 0 0 0 0 0 0 0 0 0 0 0 0 1 3 2 0 0 0 0
0 0 0 0 0 0 3 30 27 30 25 23 27 25 38 25 15 43 31 19 0 0 0 0 0 0 0 0 0 0 0 0 0 0 0 0 0 0 0 0 0 0 0 0 0 0 0 0 0 0 0 0 0 0
0 0 0 0 0 0 1 23 14 14 39 134 137 76 57 60 38 28 6 1 0 0 0 0 0 0 0 0 0 0 0 0 0 3 0 0 0 0 0 0 0 0 0 0 0 0 0 0 0 0 0 0 0 0
0 0 0 0 6 12 19 27 15 60 97 79 90 86 62 44 2 4 0 0 0 0 0 0 0 0 0 0 0 0 0 0 0 2 0 0 0 0 0 0 0 0 0 0 0 0 0 0 0 0 0 0 0 0
0 0 0 0 0 16 5 70 65 57 42 44 34 24 24 10 0 0 0 0 0 0 0 0 0 0 0 0 0 0 0 0 1 0 0 0 0 0 0 0 0 0 0 0 0 0 0 0 0 0 0 0 0 0

GFSWCAN_con_mucape_099.txt.gz
CAPE
0 0 0 0 0 0 0 0 0 0 0 0 0 0 0 0 0 0 0 0 0 0 0 0 0 0 0 0 0 0 0 0 0 57 87 34 141 46 38 13 32 27 13 98 3 49 32 9 13 7 7 7 117 158
0 0 0 0 0 0 0 0 0 0 0 0 0 0 0 0 0 0 0 0 0 0 0 0 0 0 0 0 0 0 0 0 0 0 0 0 0 0 0 269 1 184 12 319 33 72 16 40 37 40 1 7 34 94
0 0 0 0 0 0 0 0 0 0 0 0 0 0 0 0 0 0 0 0 0 0 0 0 0 0 0 0 0 0 0 0 0 0 0 0 18 0 47 9 0 8 1 36 46 18 21 23 14 55 133 14 30 38
0 0 0 0 0 0 0 0 0 0 0 0 0 0 0 0 0 0 0 0 0 0 0 0 0 0 0 0 0 0 0 0 0 0 0 0 7 0 0 0 0 0 6 11 16 12 8 4 6 16 72 110 113 110
0 0 0 0 0 0 0 0 0 0 0 0 0 0 0 0 0 0 0 0 0 0 0 0 0 0 0 0 0 0 0 0 0 66 19 8 0 0 0 0 22 0 0 189 207 0 7 1 5 4 42 85 80 78
0 0 0 0 0 0 0 0 0 0 0 0 0 0 0 0 0 0 0 0 0 0 0 0 0 0 0 0 0 0 0 0 0 20 0 0 0 0 94 259 0 0 0 0 0 0 0 0 0 0 0 7 1 29
0 0 0 0 0 0 0 0 0 0 0 0 0 0 0 0 0 0 0 0 0 0 29 0 0 0 0 0 0 0 0 0 0 0 0 0 0 0 0 247 67 0 0 0 0 0 0 0 0 0 0 0 0 0
0 0 0 0 0 0 0 0 0 0 0 0 0 0 0 0 0 0 0 0 0 0 0 0 0 0 0 0 0 0 0 0 0 0 0 0 0 0 0 0 0 0 0 0 0 0 0 0 0 0 0 0 0 0
0 0 0 0 0 0 0 0 0 0 0 0 0 0 0 0 0 0 0 0 0 0 141 3 45 54 0 0 0 0 0 17 0 0 0 0 0 0 0 0 0 0 0 0 0 0 0 0 0 0 0 0 0 0
0 0 0 0 0 0 0 0 0 0 0 0 0 0 7 0 0 0 0 0 0 0 0 1 0 0 0 0 1 1 0 0 0 0 0 0 0 0 0 0 0 0 0 0 0 0 0 0 0 0 0 0 0 0
0 0 0 0 0 3 0 0 0 0 0 0 5 22 0 0 0 0 0 0 0 13 0 0 0 3 0 11 21 0 0 0 0 0 0 0 0 0 0 0 0 0 0 0 0 0 0 0 0 0 0 0 0 0
4 0 0 0 0 5 3 0 0 0 0 7 27 0 0 0 0 0 0 0 0 1 0 0 0 0 0 0 11 0 0 0 0 0 0 0 0 0 0 0 0 0 0 0 0 0 0 0 0 0 0 0 0 0
5 2 0 1 12 12 16 5 1 1 4 28 1 5 0 0 0 0 0 0 0 0 0 0 0 0 0 0 0 0 0 0 0 0 0 0 0 0 0 0 0 0 0 0 0 0 0 0 0 0 0 0 0 2
15 0 0 5 7 7 3 6 0 0 1 10 1 0 0 0 0 0 0 0 0 0 0 0 0 0 0 0 0 0 0 0 0 0 0 0 7 0 0 0 0 0 0 0 0 3 1 0 0 0 0 3 6 4
1 5 8 2 6 6 8 0 0 0 0 0 18 0 0 0 0 0 0 0 0 0 0 0 0 0 0 0 0 0 0 0 0 0 0 0 0 0 0 0 0 0 0 0 0 0 0 0 0 0 0 0 0 0
0 0 2 4 7 6 2 1 0 0 0 0 0 0 0 0 0 18 4 7 1 0 0 1 0 0 0 0 0 0 0 0 0 0 0 0 0 0 0 0 0 0 0 0 0 0 0 0 0 0 0 0 0 0
0 0 0 0 0 0 0 0 0 1 4 0 0 0 0 0 18 46 54 44 26 0 3 0 0 0 0 0 0 0 0 0 0 0 0 0 0 0 0 0 0 0 0 0 0 0 0 0 0 0 0 0 0 0
1 3 0 0 0 0 0 0 0 22 0 14 1 0 0 0 7 18 54 60 52 15 11 4 2 0 0 0 0 0 0 0 0 0 2 0 0 0 0 0 0 0 0 0 0 0 0 0 0 0 0 0 0 0
5 1 2 0 0 0 0 0 0 0 0 1 2 0 0 0 40 32 22 31 33 37 37 27 11 0 0 0 0 0 1 6 3 5 13 28 9 5 7 1 0 0 0 0 0 0 0 0 0 0 0 0 0 0
13 5 10 8 0 0 1 0 0 0 13 10 0 0 0 0 0 32 32 20 14 27 40 3 0 4 28 81 21 9 9 11 17 16 16 39 42 9 4 3 0 0 0 0 0 0 0 0 0 0 0 0 0 0
1 1 1 3 0 0 0 0 0 0 4 9 0 0 10 0 0 0 39 3 133 292 322 215 212 191 338 41 44 37 22 26 23 68 311 23 14 4 10 1 3 12 1 1 0 0 0 0 0 0 0 0 0 0
18 2 9 8 6 0 0 0 0 0 0 0 0 0 0 0 0 0 0 156 175 341 214 280 230 130 299 376 287 49 71 72 55 52 40 18 3 0 0 2 14 20 1 1 0 0 0 0 0 0 0 0 0 12
1 7 2 9 0 0 0 0 16 27 14 3 0 0 0 0 0 0 0 0 35 29 3 121 142 75 109 85 16 14 5 15 27 42 34 29 16 10 10 0 1 0 1 0 0 0 0 0 0 0 0 0 12 33
5 25 16 7 0 0 0 8 21 33 1 6 5 23 2 1 0 26 161 144 151 27 96 86 58 176 112 24 34 22 2 0 0 11 25 32 18 7 8 10 0 0 0 0 0 0 0 0 0 0 0 0 8 24
18 0 5 2 8 13 17 42 8 13 18 15 22 84 150 116 189 171 182 178 28 225 187 116 81 70 78 90 88 56 0 0 0 0 3 16 17 25 30 21 0 0 0 0 0 0 0 0 0 0 0 0 1 10
0 8 0 0 5 24 36 58 62 24 24 29 26 39 84 119 117 120 168 250 203 167 153 81 131 43 52 130 81 132 43 2 3 3 3 9 0 4 0 0 0 4 0 0 0 0 3 0 0 0 0 0 0 0
0 0 8 0 2 12 13 7 5 5 22 46 200 144 109 68 81 266 184 109 169 98 48 44 22 12 6 6 32 37 11 10 6 10 22 10 11 0 0 1 0 0 0 0 1 1 9 6 0 0 0 0 0 2
0 13 7 25 21 25 33 41 46 51 68 114 177 101 55 85 206 300 254 84 7 0 0 0 0 0 0 0 13 1 5 10 19 34 34 2 6 0 0 0 0 0 0 0 0 3 9 14 4 0 3 7 11 8
0 12 4 8 35 37 40 38 41 119 0 127 130 113 150 133 126 164 67 29 10 10 0 0 0 0 0 0 0 0 3 3 1 5 3 3 0 0 0 0 0 0 0 0 0 0 7 15 11 8 13 18 14 4
0 0 16 1 0 0 0 31 119 28 17 11 34 102 162 132 36 29 53 34 0 0 0 0 0 0 0 0 0 0 0 0 0 0 0 0 0 0 0 0 0 0 0 0 0 0 0 0 0 0 0 1 1 0
0 0 0 0 0 0 0 8 20 6 64 229 139 133 102 61 56 48 8 0 0 0 0 0 0 0 0 0 0 0 0 0 0 0 0 0 0 0 0 0 0 0 0 0 0 0 0 0 0 1 0 0 0 0
0 0 0 0 0 0 0 14 14 57 141 97 104 77 177 190 49 21 0 0 0 0 0 0 0 0 0 0 0 0 0 0 0 1 0 0 0 0 0 0 0 0 0 0 0 0 0 0 0 0 0 0 0 0
0 0 0 0 0 3 6 63 110 53 45 83 135 179 156 58 0 0 0 0 0 0 0 0 0 0 0 0 0 0 0 0 0 0 0 0 0 0 0 0 0 0 0 0 0 0 0 0 0 0 0 0 0 0

GFSWCAN_con_mucape_102.txt.gz
CAPE
0 0 0 0 0 0 0 0 0 0 0 0 0 0 0 0 0 0 0 0 36 0 0 0 0 0 0 0 0 26 1 10 0 1 104 370 348 551 461 364 376 331 290 272 280 192 160 282 245 271 280 105 209 299
0 0 0 0 0 0 0 0 0 0 0 0 0 0 0 0 0 0 0 0 0 48 0 0 0 0 0 0 0 0 2 0 24 50 92 253 376 106 399 338 271 444 454 350 415 474 382 367 368 391 348 205 318 366
0 0 0 0 0 0 0 0 0 0 0 0 0 0 0 0 0 0 0 0 33 0 0 0 0 0 0 0 0 5 4 15 62 102 71 56 121 0 46 246 250 293 16 462 442 303 214 160 204 510 510 370 387 271
0 0 0 0 0 0 0 0 0 0 0 0 0 0 0 0 0 0 0 0 44 2 6 1 0 0 0 0 0 0 5 0 12 73 120 20 36 121 34 283 267 393 279 439 418 210 135 99 115 331 572 545 365 242
1 0 0 0 0 0 0 0 0 0 0 0 0 0 0 0 0 0 0 0 0 71 12 6 0 0 0 0 0 4 44 118 116 167 110 118 217 282 211 137 130 220 426 410 434 424 435 167 26 114 383 459 385 217
0 0 0 0 0 0 0 0 0 0 0 0 0 0 0 0 0 0 0 0 0 0 34 1 0 0 0 3 36 55 30 59 201 227 202 196 24 340 319 426 576 365 264 282 424 205 216 38 0 1 88 199 268 267
3 0 0 0 0 0 0 0 0 0 0 0 0 0 0 0 0 0 0 6 0 0 63 3 18 0 0 1 45 102 69 9 45 155 423 312 170 65 439 639 644 419 272 182 133 146 149 58 43 1 0 0 0 100
0 0 0 0 0 0 0 0 0 0 0 0 0 0 0 0 0 0 0 0 0 4 196 20 104 32 0 112 253 52 138 26 1 5 0 15 0 12 550 239 493 343 228 139 28 23 65 1 0 0 0 0 0 38
0 0 0 0 0 0 0 0 0 0 0 0 0 0 0 0 4 11 0 0 0 1 44 33 110 69 0 147 150 86 36 12 1 2 1 0 56 2 5 2 297 384 335 267 24 0 0 0 0 0 0 0 8 2
0 0 0 0 0 0 0 0 1 0 0 0 0 1 36 43 0 0 0 0 0 0 21 218 56 92 67 167 157 54 5 0 23 6 0 0 1 0 0 0 127 241 105 16 0 0 0 0 0 0 0 0 0 0
3 0 0 0 1 0 0 0 0 0 0 0 10 87 11 0 9 18 20 3 4 13 3 4 30 52 22 66 66 12 16 0 22 29 0 0 0 0 0 0 58 2 0 0 0 0 0 0 0 0 0 0 0 0
0 0 0 6 1 7 2 0 0 0 0 1 65 15 46 105 112 102 33 11 8 0 14 12 27 36 26 38 22 19 12 0 10 0 0 5 0 0 0 0 0 0 0 0 0 0 0 0 0 0 1 0 1 0
0 10 8 0 2 14 11 2 0 0 0 35 55 88 97 67 11 0 3 6 12 0 33 0 0 10 0 8 10 0 2 4 0 3 3 0 15 0 0 0 0 0 0 0 0 0 1 3 1 2 9 12 14 17
18 22 3 1 10 25 31 19 15 9 16 52 82 0 24 0 0 0 0 9 47 21 7 0 0 14 1 0 1 3 5 0 4 0 0 0 0 0 0 0 0 0 0 0 0 0 12 25 22 16 17 27 38 51
11 13 4 6 14 27 27 28 3 0 12 4 56 0 0 0 0 5 0 52 69 56 9 5 6 15 2 1 0 3 1 2 0 0 0 0 0 8 13 2 0 0 0 0 1 16 16 11 4 2 10 19 7 0
1 2 2 3 3 3 3 0 0 1 0 0 26 30 59 26 19 86 128 227 135 46 23 22 24 21 10 5 2 0 0 0 0 0 0 7 274 211 164 12 6 1 0 0 7 14 4 0 0 5 2 0 0 0
15 0 0 1 4 0 0 0 0 0 0 0 0 0 5 54 102 175 57 289 239 93 60 39 15 13 9 2 3 1 0 1 9 16 13 55 397 520 175 38 0 0 0 0 0 0 0 0 0 0 3 2 0 0
0 5 0 0 0 0 3 3 0 0 0 0 0 0 0 0 12 54 62 209 238 241 173 74 45 3 2 0 22 28 21 19 13 7 19 40 319 175 122 77 19 0 0 0 0 0 0 0 0 0 4 0 0 2
27 1 1 0 0 0 0 29 20 0 0 0 9 3 0 0 0 1 24 140 191 179 93 52 28 16 10 24 57 76 73 138 152 125 72 89 52 46 61 25 19 6 9 3 0 0 0 0 0 0 0 0 0 1
36 36 1 1 0 0 0 0 26 45 0 22 12 0 0 0 0 3 32 46 93 60 48 93 213 195 139 109 108 174 247 277 137 137 153 109 30 31 26 3 12 0 0 0 0 0 0 0 0 0 0 0 3 1
23 23 0 4 4 0 0 2 0 3 77 98 115 135 87 71 58 3 36 148 187 112 251 273 293 202 241 511 801 650 477 484 399 286 222 161 58 34 25 27 11 6 0 0 0 0 0 0 0 0 0 0 1 7
5 4 0 0 0 0 0 4 0 0 10 39 54 71 103 118 82 48 75 192 129 160 267 266 181 369 425 810 897 994 886 854 808 595 142 55 46 40 54 17 45 5 0 0 0 0 0 0 0 0 0 0 0 13
7 4 0 0 0 5 0 28 60 44 20 26 33 6 7 13 19 70 41 26 30 138 317 446 560 888 872 724 694 680 662 702 613 511 453 190 37 21 11 10 6 0 0 0 0 0 0 0 0 0 0 0 24 44
0 0 1 4 0 0 26 71 126 128 120 117 117 90 48 27 185 82 0 0 0 291 528 861 725 622 612 773 704 537 439 330 270 273 249 115 3 14 17 19 2 0 0 0 0 0 0 6 0 0 0 7 26 40
0 0 3 1 49 41 42 59 40 89 83 83 72 48 187 553 222 209 139 146 354 384 513 646 587 510 450 459 450 507 523 259 69 69 62 1 0 0 12 10 3 9 0 1 0 0 0 17 0 0 0 11 22 36
5 39 8 44 46 35 25 52 74 65 52 72 122 174 391 221 66 87 203 335 477 449 429 400 406 428 464 425 459 404 512 208 0 5 4 2 0 1 1 1 0 0 2 2 0 0 18 35 33 3 2 1 0 15
0 21 35 31 45 43 34 31 19 11 72 57 122 151 174 65 114 41 582 409 460 402 193 84 35 36 16 0 0 18 30 10 0 3 3 2 13 3 1 0 0 0 0 0 12 33 41 51 58 25 6 12 19 9
19 15 22 33 43 32 41 53 62 63 60 105 116 56 56 53 151 577 784 428 147 2 0 0 0 0 0 0 6 2 10 3 3 6 6 3 14 2 5 0 4 12 28 18 24 38 47 56 66 32 11 14 25 24
17 15 14 17 29 56 50 29 42 84 56 98 147 109 166 219 392 421 242 20 10 0 0 0 0 0 0 5 7 0 12 1 2 1 2 0 2 1 11 35 25 1 0 1 0 1 41 48 54 36 27 36 42 48
0 5 9 9 18 23 33 47 89 104 74 63 83 164 251 425 274 41 16 0 0 0 0 0 0 0 0 1 0 0 0 1 4 12 20 11 18 4 11 0 0 0 0 0 0 0 0 10 14 32 26 62 69 64
0 8 5 3 0 0 0 4 13 47 18 69 266 325 295 323 206 141 46 0 0 0 0 0 0 0 0 1 1 1 0 0 0 5 9 0 4 24 29 15 6 0 0 2 10 3 6 8 35 42 47 51 64 41
0 0 3 7 1 0 0 0 0 0 86 298 279 427 435 589 130 17 10 0 0 0 0 0 0 0 0 0 0 0 0 0 0 0 1 4 3 7 5 0 0 0 0 0 3 13 16 22 25 40 55 62 76 68
21 14 0 7 2 22 13 6 65 95 181 266 320 326 162 42 38 21 50 0 0 0 0 0 0 0 0 0 0 0 0 0 0 0 0 0 0 0 0 0 0 0 0 0 0 0 0 0 0 2 9 20 30 31

GFSWCAN_con_mucape_105.txt.gz
CAPE
1 0 0 0 0 0 0 0 0 0 0 0 0 1 0 0 0 0 31 7 280 54 3 0 0 0 0 25 77 235 17 130 14 45 230 319 282 462 352 246 378 0 61 508 345 207 114 231 269 393 418 327 278 499
5 3 1 0 0 0 0 0 0 0 0 0 0 0 0 0 0 0 22 0 27 273 36 0 0 0 0 0 0 20 34 228 45 210 207 281 362 211 299 238 374 97 562 427 226 419 505 466 502 567 434 350 384 520
0 4 0 0 0 0 0 0 0 0 0 0 0 0 0 0 0 0 0 0 72 34 0 0 0 0 0 0 0 50 193 92 34 144 393 294 237 164 160 185 305 405 350 121 381 404 384 377 584 747 725 528 478 537
0 0 0 0 0 0 0 0 0 0 0 0 0 0 0 0 0 0 0 0 105 207 25 68 0 0 0 1 0 0 7 8 35 84 234 297 219 235 275 215 249 573 474 320 407 221 322 227 373 631 829 690 537 419
0 0 0 0 0 0 0 0 0 0 0 0 0 0 0 0 0 0 0 0 28 313 197 120 0 0 1 60 52 92 101 141 252 331 273 283 364 223 90 242 186 319 380 653 609 824 646 401 225 372 510 714 502 318
3 0 0 0 0 0 0 0 0 0 0 0 0 0 0 0 0 0 0 0 5 54 309 11 40 0 19 105 182 172 113 80 210 389 396 350 534 200 395 421 514 597 507 744 723 549 614 326 124 73 198 339 593 521
1 0 0 0 0 0 0 0 0 0 0 0 0 0 0 0 0 0 8 13 0 47 46 11 74 40 42 125 280 360 236 34 33 302 361 491 439 35 335 685 614 493 535 494 459 482 430 275 305 81 30 41 99 574
8 0 0 0 0 0 0 0 0 0 0 0 0 0 0 0 0 0 0 0 0 55 37 42 232 285 77 189 155 288 216 103 151 215 74 143 372 175 885 528 509 594 540 477 435 385 413 356 255 181 73 35 95 240
0 0 0 0 0 0 0 0 0 0 0 0 0 0 0 0 0 15 0 0 0 108 36 0 148 289 200 107 378 360 72 41 175 38 136 2 282 566 26 60 214 536 496 467 303 173 69 39 38 22 10 18 24 61
0 0 0 0 0 0 0 0 1 0 0 0 0 0 8 19 0 0 0 0 0 0 159 332 122 308 75 240 159 143 86 24 27 272 54 0 347 3 0 0 8 335 359 350 218 47 0 0 0 0 0 2 10 65
0 0 1 0 0 0 0 0 1 0 0 0 0 72 116 0 12 24 21 6 0 1 0 0 155 262 94 262 126 27 116 9 3 226 0 58 10 19 0 0 9 137 183 8 1 2 0 0 0 0 0 0 0 0
5 0 3 4 1 2 0 2 0 0 0 1 84 76 111 76 90 68 60 21 9 4 17 0 94 205 209 41 19 35 26 5 5 85 0 34 2 82 0 0 0 0 0 0 0 0 0 0 0 3 8 6 9 14
4 0 6 24 5 15 14 4 0 0 0 21 48 144 100 71 124 0 3 16 6 0 61 81 193 164 118 19 51 21 3 8 2 0 13 14 199 0 0 0 0 0 0 0 0 0 0 0 1 6 11 19 27 40
28 13 17 14 4 32 37 16 0 0 0 102 88 101 59 29 0 0 3 9 16 65 152 105 157 78 49 20 24 12 15 1 0 0 0 0 105 0 0 0 0 0 0 0 0 0 0 3 5 7 7 7 18 27
2 2 2 2 10 23 36 28 0 2 4 22 42 163 14 7 39 19 26 134 291 178 124 69 80 79 50 28 7 11 4 0 1 0 0 21 49 17 15 0 0 0 0 0 0 6 17 27 39 33 21 10 9 20
6 8 1 3 5 3 26 16 27 28 19 8 10 32 32 41 16 67 88 80 154 221 151 141 73 66 52 26 14 10 2 2 13 4 5 215 112 13 162 53 0 0 0 0 0 3 20 37 37 36 26 8 6 5
3 2 0 0 2 1 5 0 1 1 6 0 0 0 1 23 79 104 126 141 229 230 139 75 128 72 79 49 36 39 18 28 43 57 98 543 378 862 483 287 45 5 0 0 0 2 12 19 24 9 7 4 3 2
0 0 1 0 1 0 0 0 0 0 0 0 0 0 10 0 44 80 157 343 378 230 174 92 205 84 109 86 149 136 77 63 89 113 128 339 658 1047 712 609 371 170 71 60 28 42 35 8 2 0 0 15 7 6
0 0 0 0 0 0 0 0 0 0 0 0 0 12 24 6 0 53 148 333 492 832 467 283 178 219 209 103 94 215 155 228 200 284 16 906 1038 932 811 406 408 279 135 116 98 47 27 20 0 0 9 5 3 13
27 20 2 32 24 48 0 4 67 0 0 2 0 4 16 10 4 12 120 291 524 566 440 167 121 121 207 486 394 265 327 481 360 572 301 128 161 897 631 360 161 203 26 21 31 0 0 0 0 0 0 0 5 10
19 21 1 1 25 2 3 23 28 26 69 81 93 103 86 44 4 5 56 69 196 361 295 263 300 315 590 791 505 861 799 490 414 284 124 39 34 122 298 118 102 40 11 9 11 0 0 0 0 0 0 0 0 4
4 2 3 0 4 25 29 12 10 50 115 102 201 161 177 184 134 64 11 59 162 224 253 285 306 426 655 996 519 722 825 1078 1073 876 498 421 632 465 431 195 100 39 23 15 14 0 1 0 0 0 0 0 0 6
0 0 0 0 0 0 0 87 119 56 56 78 94 103 112 125 157 165 51 22 44 158 234 234 622 818 1020 732 679 997 1054 1106 992 803 693 672 674 685 396 201 33 21 16 5 1 0 0 0 0 0 2 0 3 10
1 0 0 0 0 0 72 97 143 124 65 133 93 126 112 100 186 90 75 120 77 20 31 639 484 341 222 1077 821 705 773 787 717 591 446 598 722 423 20 0 5 7 2 0 0 6 0 0 0 0 1 1 13 36
1 0 2 0 21 54 47 33 67 139 129 135 110 90 160 247 137 79 103 83 118 216 179 382 511 388 355 594 542 613 1229 718 738 591 330 494 379 28 3 0 3 7 2 0 0 1 0 0 0 0 2 14 26 38
3 43 14 53 39 39 35 19 27 63 81 104 62 135 175 141 78 80 338 368 346 422 567 561 512 610 558 628 558 667 667 579 558 283 148 58 190 34 1 0 0 0 0 0 0 1 1 0 12 24 11 8 1 16
0 10 40 38 16 27 14 31 93 86 130 60 120 116 138 72 80 99 450 603 467 577 490 340 173 51 9 1 4 34 45 28 66 33 4 1 5 2 3 0 0 0 3 0 0 0 1 29 55 48 28 31 25 4
17 8 18 40 43 47 18 15 18 84 182 111 71 45 56 92 137 224 396 409 430 130 5 0 0 0 0 4 43 2 1 3 0 0 1 3 0 0 4 0 0 0 4 0 0 20 47 65 71 68 50 39 39 37
11 19 20 27 15 22 20 20 20 40 89 154 125 152 164 213 399 501 519 215 14 0 0 0 1 21 35 53 2 0 0 0 2 4 21 7 12 2 5 0 6 2 1 11 2 14 57 41 71 88 68 49 48 62
7 6 12 9 17 17 31 23 37 35 95 69 120 174 187 653 556 193 109 30 0 0 0 0 0 8 21 25 22 18 26 33 36 13 8 8 17 29 49 13 21 30 58 60 41 21 0 11 19 51 34 49 52 42
14 11 5 10 14 12 25 23 23 34 48 129 96 232 238 332 440 271 89 0 0 0 0 0 7 8 32 30 27 26 27 11 3 1 4 15 22 11 11 28 27 24 33 33 45 43 23 1 51 68 57 65 53 47
12 30 18 6 9 4 0 2 10 20 35 87 175 312 514 400 400 210 4 0 0 0 0 0 2 8 0 9 24 8 0 17 8 9 11 22 23 27 16 16 38 25 18 19 31 38 28 11 27 38 51 65 70 74
0 0 2 1 19 38 1 0 6 47 74 258 131 278 136 137 81 9 0 0 0 0 0 0 0 0 0 0 0 5 1 6 0 0 0 0 0 0 16 24 7 6 4 9 14 22 35 42 41 45 51 63 63 62

GFSWCAN_con_mucape_108.txt.gz
CAPE
0 0 5 7 1 0 0 0 0 0 0 0 0 0 0 0 0 0 0 42 93 217 122 1 0 0 14 21 82 142 116 127 68 80 75 219 512 498 321 112 36 207 115 90 264 138 133 28 309 137 337 405 219 341
0 0 0 0 0 0 0 0 0 0 0 0 0 0 0 0 0 0 0 15 0 131 103 0 0 0 0 0 0 7 80 129 277 218 380 249 234 177 177 214 512 314 210 159 112 254 249 384 500 439 273 376 498 430
0 0 0 0 0 0 0 0 0 0 0 0 0 0 0 0 0 0 0 0 0 0 1 0 0 0 0 0 0 2 329 322 164 117 129 287 251 169 203 153 89 266 307 147 552 168 69 332 486 650 669 657 636 496
0 0 0 0 0 0 0 0 0 0 0 0 0 0 0 0 0 0 0 0 11 182 159 26 0 0 0 1 0 0 0 15 26 90 63 119 275 357 234 264 310 391 563 114 337 481 472 312 541 634 782 656 667 379
3 0 0 0 0 0 0 0 0 0 0 0 0 0 0 0 0 0 0 0 2 164 283 163 22 0 0 53 19 121 200 203 227 241 281 275 525 598 285 81 236 362 724 468 518 425 903 499 303 374 886 770 583 353
10 3 0 0 0 0 0 0 0 0 0 0 0 0 0 0 0 0 0 0 0 19 171 405 45 0 7 109 155 210 274 92 132 326 378 476 696 538 214 689 400 777 719 876 783 585 491 443 139 132 222 953 685 439
7 1 4 0 0 0 0 0 0 0 0 0 0 0 0 0 0 0 0 0 0 66 197 25 113 114 40 80 178 323 396 126 0 130 340 274 589 179 10 1018 568 619 400 383 574 408 362 111 136 37 27 165 679 450
3 4 7 3 0 0 0 0 0 0 0 0 0 0 0 0 0 0 0 0 0 0 0 0 110 349 133 129 172 235 243 289 179 118 213 118 700 495 1094 394 538 557 406 335 228 171 180 147 270 105 74 38 176 628
0 0 0 0 0 0 0 0 0 0 0 0 0 0 0 0 0 0 0 0 0 38 104 3 28 313 183 127 395 390 234 79 314 343 72 150 549 396 133 34 284 614 355 326 234 161 103 212 85 75 45 59 37 402
0 0 0 0 0 0 0 0 0 0 0 0 0 0 1 0 0 0 0 0 0 0 205 338 53 325 418 179 188 174 381 109 84 178 367 268 426 566 202 40 137 186 265 175 232 130 18 1 5 10 9 11 32 62
2 2 1 0 0 0 0 0 4 0 0 0 2 112 207 0 46 14 8 0 0 0 0 0 0 233 319 270 187 183 92 123 1 30 100 14 174 657 294 5 4 43 204 121 139 37 5 0 0 0 0 0 0 0
6 7 3 0 1 0 0 0 4 0 0 0 49 107 106 17 49 31 31 13 14 0 2 0 0 114 230 157 314 278 13 45 0 311 108 129 246 872 134 0 0 12 43 3 0 0 0 0 0 0 1 0 1 5
5 5 0 0 11 5 0 9 4 0 0 31 141 157 148 111 34 29 15 0 5 8 3 40 0 416 361 99 6 70 14 1 9 8 0 80 1069 292 148 0 0 0 0 0 0 0 0 0 0 0 1 2 3 12
1 3 1 0 11 18 12 18 14 5 4 172 147 50 118 27 15 14 3 68 31 47 101 98 145 180 136 15 54 18 15 18 2 0 5 167 1223 523 97 0 0 0 0 0 0 0 0 0 0 2 4 6 13 20
0 3 3 2 7 3 8 35 10 0 34 84 104 111 7 18 61 9 4 48 81 75 132 129 197 106 107 50 36 31 42 1 1 0 23 687 927 799 580 29 0 0 0 0 0 0 0 0 5 12 22 16 12 16
6 2 3 1 2 3 4 13 16 5 0 12 36 35 33 47 55 48 63 64 160 156 220 163 115 86 75 51 37 28 13 8 47 27 427 893 1479 1324 1220 628 282 28 30 0 0 1 3 7 24 32 22 9 0 2
0 1 15 7 0 0 1 1 0 0 0 5 2 0 27 40 66 80 119 80 52 109 137 110 75 63 83 90 32 72 35 70 113 104 624 1761 1893 1838 1494 1107 632 469 487 244 254 291 104 43 21 47 44 1 0 15
0 1 1 0 0 0 0 0 0 0 0 0 0 1 25 2 11 23 178 48 200 306 391 210 209 129 59 77 159 292 223 133 737 768 1430 2223 2422 1877 1272 1675 1436 1213 1009 793 514 436 190 174 194 65 98 21 6 1
7 5 0 0 0 0 0 0 0 0 0 0 7 25 0 0 33 45 12 1 322 197 229 211 190 233 300 192 301 292 245 194 213 780 1030 1536 1579 1967 2036 1621 1707 1534 1279 1146 888 64 80 114 17 14 7 0 17 4
24 0 0 0 0 0 0 0 26 0 0 0 20 0 0 4 17 2 6 99 146 77 200 280 180 309 317 363 519 383 506 855 386 395 348 327 13 576 1997 1321 747 892 658 811 466 52 47 40 43 59 28 0 0 0
9 11 0 0 0 0 0 0 1 0 0 0 35 6 0 13 9 6 3 0 186 238 368 448 394 322 408 1215 674 406 89 106 84 883 523 242 46 0 50 888 873 545 399 399 193 52 27 5 2 20 0 0 0 16
13 4 0 0 0 9 9 0 4 101 42 59 121 18 116 105 73 27 0 4 44 49 139 351 416 245 594 1026 666 907 562 1467 1403 190 0 1 120 351 279 238 159 94 101 42 25 16 5 1 0 0 0 0 0 10
0 0 0 0 0 0 0 1 89 60 54 98 92 73 63 105 115 109 78 37 10 22 53 94 874 1623 814 1125 959 371 198 865 565 413 500 469 472 555 559 506 265 186 93 20 30 31 24 6 2 0 0 0 0 9
0 0 0 0 0 0 0 55 98 115 83 73 80 46 45 91 106 75 52 126 82 49 86 1258 168 143 454 1330 205 144 459 375 804 667 754 651 269 384 381 231 160 125 45 26 12 19 8 10 0 0 0 0 3 4
0 0 0 0 0 2 58 46 150 159 108 123 138 89 137 406 193 169 94 62 138 133 179 157 134 115 83 47 204 1148 387 22 11 753 705 313 561 434 101 6 0 0 0 0 0 0 8 0 0 0 0 0 3 6
0 0 0 50 67 77 52 17 23 51 74 86 126 195 218 158 50 25 174 490 114 226 75 336 375 344 755 138 18 435 867 578 509 439 276 78 421 150 147 2 1 0 0 0 0 0 0 0 0 0 0 2 0 11
0 17 73 58 49 21 23 29 35 26 121 112 120 58 72 22 20 118 201 246 224 383 345 535 241 67 15 1 6 89 101 32 40 44 2 1 0 31 13 3 0 0 0 0 0 0 0 0 0 3 8 17 31 19
0 22 27 28 43 54 25 20 22 40 141 135 42 108 88 107 55 17 11 112 246 469 111 42 9 2 81 121 77 9 0 0 0 0 0 0 0 0 0 0 19 0 0 0 0 0 3 0 20 36 44 29 32 26
8 9 12 11 15 23 30 17 6 38 98 138 205 67 132 44 1 0 2 218 221 21 21 2 21 12 17 15 0 0 0 0 2 11 16 10 10 4 1 1 0 1 2 0 0 0 0 16 29 70 54 64 47 57
3 10 31 19 25 21 28 22 14 38 39 83 97 159 116 10 0 67 102 73 29 0 0 0 0 0 35 37 23 4 17 27 28 18 18 12 17 23 30 5 0 4 0 0 0 2 0 0 2 17 24 20 55 45
16 20 10 12 27 30 43 49 56 41 56 68 122 155 144 87 94 168 123 36 2 0 0 0 8 10 38 42 39 33 26 13 1 0 1 7 28 25 33 32 13 4 5 10 24 19 50 12 44 56 71 69 102 32
7 3 13 8 6 15 21 25 33 30 45 109 138 235 181 194 344 369 5 0 19 22 0 0 19 48 6 2 27 11 0 2 5 9 10 20 41 27 31 29 56 45 61 71 81 91 42 25 12 26 55 87 72 68
17 4 4 4 32 30 27 8 12 10 63 243 76 65 68 64 45 20 0 0 1 0 0 0 0 0 0 0 0 0 0 4 0 0 0 0 0 0 0 18 21 34 51 51 48 51 34 37 23 5 14 44 59 79

GFSWCAN_con_mucape_111.txt.gz
CAPE
0 0 0 0 0 0 0 0 0 0 0 0 0 0 0 8 0 0 0 0 31 127 95 130 0 0 0 17 11 18 44 155 224 184 91 425 407 173 0 10 94 7 113 10 63 90 3 22 188 211 135 189 352 436
0 0 0 0 0 0 0 0 0 0 0 0 0 0 0 0 0 0 0 2 0 96 91 10 0 0 0 0 0 0 12 177 190 92 125 336 502 143 177 325 51 206 102 42 170 196 85 55 56 45 256 545 446 280
0 0 0 0 0 0 0 0 0 0 0 0 0 0 0 0 0 0 0 6 0 70 1 0 0 0 0 0 0 0 90 216 429 369 224 120 338 244 171 244 292 130 137 302 265 144 199 49 251 382 543 474 201 192
0 0 0 1 0 0 0 0 0 0 0 0 0 0 0 0 0 0 0 2 0 111 189 76 0 0 0 0 0 0 0 32 88 90 93 79 110 470 302 250 187 343 158 182 213 49 39 260 518 683 791 449 222 99
0 0 2 2 0 0 0 0 0 0 0 0 0 0 0 0 0 0 0 0 0 4 101 172 133 0 0 0 0 40 110 137 130 246 209 190 637 617 197 107 178 481 663 442 405 126 350 357 460 778 659 521 214 18
0 0 13 10 0 0 0 0 0 0 0 0 0 0 0 0 0 0 0 0 0 0 181 229 173 41 0 25 65 80 154 158 122 116 167 719 697 631 225 448 275 640 455 390 511 521 208 183 169 789 656 483 191 11
2 0 11 8 5 1 0 0 0 0 0 0 0 0 0 0 0 0 9 1 0 1 357 223 160 22 29 80 58 134 228 289 72 0 135 411 358 263 144 65 372 219 405 454 526 396 358 293 35 336 733 539 278 46
0 0 5 5 3 2 1 0 0 0 0 0 0 0 0 0 0 0 0 7 0 52 62 12 81 197 47 79 81 186 207 302 192 97 319 180 499 650 601 299 393 571 355 208 411 257 189 155 144 52 8 467 281 82
0 0 0 0 0 0 0 0 0 0 0 0 0 0 0 0 0 0 0 0 0 52 94 0 7 251 209 217 273 339 438 167 350 169 180 281 321 78 86 244 205 638 380 272 259 143 261 156 103 70 80 66 330 176
0 0 0 0 0 0 0 0 0 0 0 0 0 0 0 0 0 1 3 72 53 0 234 325 207 102 296 391 377 411 306 269 69 329 235 321 226 213 333 87 264 568 277 220 191 98 0 4 8 4 0 0 30 337
0 0 0 0 0 0 0 0 0 0 0 0 0 29 148 7 147 231 124 0 0 0 0 0 83 55 335 422 314 395 208 164 77 49 175 191 152 347 387 106 64 289 215 60 299 201 0 0 0 0 0 0 0 1
0 0 6 11 1 1 0 0 0 0 0 0 0 11 146 160 143 53 55 42 36 0 0 0 0 34 179 266 580 457 63 69 0 387 288 335 574 545 150 145 7 124 152 41 127 15 0 0 0 0 0 0 0 0
0 0 1 3 0 3 15 0 2 0 0 0 62 99 93 116 12 29 3 11 0 7 0 24 2 99 481 522 183 208 40 1 71 79 209 164 526 384 112 0 0 100 89 39 0 0 0 0 0 0 0 0 0 0
0 0 2 0 0 4 19 2 10 0 0 55 107 0 82 60 4 12 7 0 52 16 57 106 61 643 581 334 287 155 111 17 40 2 0 187 239 277 9 0 0 0 0 0 0 0 0 0 0 0 0 4 1 2
0 0 0 7 2 4 15 2 16 5 3 82 86 0 36 62 85 68 24 21 59 62 127 211 275 254 169 154 104 71 145 18 10 0 305 416 279 70 1 0 0 0 0 0 0 0 0 0 0 0 0 0 0 0
0 6 2 9 0 15 13 5 26 26 8 28 50 58 111 101 89 68 148 159 199 265 225 212 295 167 145 111 33 16 0 12 6 466 437 399 226 197 192 38 0 0 0 0 0 0 0 0 0 0 1 5 0 0
0 0 0 6 5 1 1 0 12 0 0 3 0 0 19 23 51 67 119 68 23 35 37 103 282 175 117 83 46 3 0 0 179 316 322 314 524 584 610 446 261 70 3 0 0 0 0 0 0 7 2 0 0 0
0 0 4 9 5 0 0 0 3 0 0 0 0 0 2 39 43 4 51 263 263 199 99 5 378 144 72 2 176 29 276 676 1049 761 617 1177 1503 1484 1002 837 770 506 351 264 52 12 1 0 1 0 0 0 1 9
6 4 8 7 0 0 0 0 0 0 0 0 0 0 0 0 9 0 323 458 207 173 108 90 101 149 264 458 542 761 541 785 957 1385 1675 1947 2062 1915 1676 1529 1610 1299 943 857 489 128 12 0 3 4 3 1 5 14
0 0 0 6 2 0 0 0 0 0 0 5 0 0 0 0 0 0 107 51 7 74 38 179 90 231 438 298 678 890 971 442 266 344 561 534 688 1688 1569 1420 1398 1216 1267 980 927 332 83 47 20 7 16 11 15 14
1 6 1 3 0 0 0 0 0 0 0 0 0 17 0 0 0 0 11 59 94 66 3 433 376 22 27 421 1606 636 704 255 39 133 76 0 0 186 83 901 1397 1101 638 494 471 206 144 15 14 28 20 2 1 2
6 4 9 4 0 0 0 7 1 5 0 15 31 75 61 53 24 29 48 49 132 217 105 88 176 28 2 13 1093 1513 875 428 161 16 11 0 39 116 313 706 507 501 388 213 152 36 10 26 111 26 17 3 0 0
0 0 0 1 0 0 0 2 0 9 24 129 230 97 67 116 167 372 226 178 107 66 204 415 426 241 281 1421 1534 941 632 403 240 241 281 406 587 344 287 294 250 308 237 90 45 19 28 68 53 25 10 1 1 0
5 0 0 0 0 0 0 9 38 63 177 109 60 38 145 258 298 124 62 91 108 241 271 630 1735 1288 1219 1929 1552 986 891 535 416 390 365 351 620 528 165 71 21 185 255 174 61 12 12 51 35 43 14 11 0 0
0 0 0 0 0 0 0 62 95 182 86 159 112 92 284 384 282 185 196 504 400 101 107 94 638 392 331 569 721 991 438 229 133 114 82 109 243 274 189 159 119 9 0 0 0 1 16 21 36 13 5 0 0 0
0 0 0 0 6 0 65 37 81 95 93 52 57 11 127 142 7 43 525 421 204 47 118 161 136 156 176 344 268 211 591 359 266 228 205 142 120 176 83 83 94 2 0 0 0 0 0 10 6 0 0 0 0 0
0 0 0 0 73 103 52 61 18 86 82 37 153 189 206 92 70 411 525 218 93 6 12 2 7 44 121 287 137 217 200 183 235 141 30 10 18 67 38 10 1 1 0 0 0 0 0 0 0 0 0 0 0 0
4 30 39 94 54 37 31 34 38 57 157 207 278 141 116 114 84 92 178 62 99 162 120 128 35 199 221 219 130 49 34 3 10 0 0 0 0 0 0 0 0 0 0 0 0 0 0 0 0 0 0 0 0 0
19 19 6 26 17 24 48 42 33 40 3 70 192 174 305 51 0 0 15 86 268 318 272 150 120 153 126 75 35 0 0 0 14 27 28 15 6 0 0 0 0 0 0 0 0 0 0 0 0 2 9 23 55 12
0 0 10 18 18 14 22 4 16 23 50 135 190 86 27 0 0 3 49 69 147 150 51 0 0 16 37 51 26 22 16 15 20 9 18 6 0 0 2 0 0 0 1 1 0 0 0 0 0 6 18 14 18 18
0 1 1 7 19 16 33 27 37 47 89 42 69 108 132 74 60 116 55 115 204 96 37 2 15 24 31 28 44 21 16 9 11 1 0 0 13 21 12 1 0 0 0 0 0 0 0 0 0 1 12 8 4 6
7 5 16 10 1 18 24 27 35 28 35 63 159 222 86 9 0 3 47 188 54 59 2 0 4 2 0 1 0 0 0 17 35 0 0 0 36 85 48 10 2 0 0 1 10 9 2 3 0 2 23 52 34 20
0 0 0 0 0 0 0 7 11 27 198 269 146 122 188 188 180 222 278 136 21 0 0 0 0 0 0 0 0 0 0 29 0 0 0 0 0 0 0 28 27 22 62 33 49 53 91 67 82 60 62 58 115 59

GFSWCAN_con_mucape_114.txt.gz
CAPE
0 0 0 0 0 0 0 0 0 0 0 0 0 0 0 0 0 0 0 0 0 0 23 11 0 0 0 0 0 0 0 7 47 44 76 254 98 30 3 0 24 6 0 0 6 15 2 13 59 101 134 248 493 281
0 0 0 0 0 0 0 0 0 0 0 0 0 0 0 0 0 0 0 0 0 0 11 1 0 0 0 0 0 0 0 36 0 13 60 37 281 71 39 55 28 8 1 0 0 14 5 0 4 227 514 427 284 188
0 0 0 0 0 0 0 0 0 0 0 0 0 0 0 0 0 0 0 0 0 0 13 0 0 0 0 0 0 0 0 0 51 63 33 5 35 146 64 16 70 82 124 32 139 32 65 48 252 430 448 213 97 119
0 0 0 0 0 2 4 0 0 0 0 0 0 0 0 0 0 0 0 0 0 0 36 2 79 0 0 0 0 0 0 0 0 64 135 67 0 217 87 46 137 123 126 99 120 175 146 186 510 482 221 101 96 64
0 0 0 0 0 4 6 0 0 0 0 0 0 0 0 0 0 0 0 0 0 0 30 32 4 62 32 0 0 0 0 3 0 0 3 65 173 294 245 133 30 354 258 168 132 184 49 312 517 441 170 46 4 0
0 0 0 0 0 6 0 0 0 0 0 0 0 0 0 0 0 0 0 0 0 0 13 29 150 112 33 0 0 1 8 20 0 0 18 122 425 272 146 191 476 530 444 433 229 91 211 434 621 555 239 52 1 0
0 0 0 0 5 4 0 0 0 0 0 0 0 0 0 0 0 0 0 0 0 0 26 90 97 5 25 7 3 4 39 64 32 29 0 56 208 198 88 27 125 91 159 411 356 305 155 341 520 533 337 132 4 0
0 0 0 0 1 3 0 0 0 0 0 0 0 0 0 0 0 0 0 0 0 0 0 0 0 13 0 0 0 0 12 39 70 83 42 40 63 214 113 77 105 131 133 397 326 223 134 69 666 600 465 290 81 2
0 0 0 0 0 0 0 0 0 0 0 0 0 0 0 0 0 0 0 0 0 0 0 0 0 41 22 19 23 14 21 47 14 1 0 11 21 71 15 11 95 236 148 368 309 222 153 69 658 631 481 370 182 20
0 0 0 0 0 0 0 0 0 0 0 0 0 0 0 0 0 0 0 0 0 0 0 29 25 0 47 50 45 59 67 32 1 1 24 35 21 32 1 0 0 30 101 124 43 28 126 83 72 32 289 349 201 118
0 0 0 0 0 0 0 0 0 0 0 0 0 0 67 0 2 8 24 0 0 0 0 0 30 63 63 152 158 92 27 7 0 0 0 1 3 0 1 0 0 0 40 86 0 1 4 9 10 0 0 18 174 182
0 0 0 0 6 11 0 4 0 0 0 0 0 12 36 41 24 6 0 0 0 0 0 0 0 0 21 72 67 31 21 4 0 0 0 11 10 50 16 0 0 0 0 0 0 0 0 0 0 0 0 0 1 52
0 0 0 0 0 0 5 19 1 0 0 0 6 37 27 12 0 0 0 0 0 0 0 0 0 0 21 40 58 66 23 1 0 0 5 0 1 43 5 0 0 0 0 0 0 0 0 0 0 0 0 0 0 0
0 0 0 0 0 1 7 19 6 4 1 0 0 0 0 0 0 1 17 1 0 0 0 0 4 135 62 90 40 18 0 0 0 0 0 0 0 0 0 0 0 0 0 0 0 0 0 0 0 0 0 0 0 0
0 0 0 0 1 2 0 16 14 10 0 0 0 0 0 0 15 26 14 0 1 16 49 74 49 178 120 68 37 24 2 0 0 0 0 0 0 0 0 0 0 0 0 0 0 0 0 0 0 0 0 0 0 0
0 0 0 6 2 1 13 11 3 6 2 0 9 0 1 11 26 19 22 21 17 70 71 54 61 40 57 46 10 3 1 0 0 0 0 122 1 0 0 0 0 0 0 0 0 0 0 0 0 0 0 0 0 0
0 0 0 3 15 0 4 10 15 12 6 0 0 0 0 2 21 13 58 84 16 27 38 48 53 3 27 6 5 0 0 0 0 0 170 108 0 0 0 0 0 0 0 0 0 0 0 0 0 0 0 0 0 0
0 0 0 0 2 1 0 0 0 0 7 0 0 0 0 1 22 13 10 137 120 37 7 1 8 24 27 4 9 1 0 13 8 19 160 38 9 0 2 0 0 0 0 0 0 0 0 0 0 0 0 0 0 0
0 6 1 5 9 3 0 0 0 0 0 0 0 0 0 0 10 0 85 235 140 88 49 38 2 9 21 92 180 212 394 317 283 370 391 387 275 212 66 19 14 15 12 1 0 0 0 0 0 0 4 11 10 7
0 3 11 12 11 0 0 0 0 0 0 0 0 0 0 0 0 0 10 107 26 6 2 41 15 0 17 11 109 86 150 384 833 602 489 359 250 340 737 655 619 635 700 581 285 211 127 38 15 4 17 24 13 15
0 1 0 4 0 1 0 0 0 0 0 0 0 0 0 0 0 0 0 20 16 0 0 2 63 28 33 3 40 108 45 23 17 93 139 31 2 17 40 44 0 13 400 866 773 421 258 199 92 50 15 5 10 6
6 7 6 7 0 0 0 0 0 1 0 0 0 0 3 1 0 0 0 5 10 1 5 7 9 4 9 20 11 25 133 28 14 32 30 10 1 0 0 52 101 100 133 174 206 190 151 83 62 12 3 0 12 17
4 5 7 3 0 0 0 0 0 0 0 5 44 27 15 0 0 2 6 19 4 15 23 27 17 45 24 25 13 51 86 63 7 0 2 0 0 78 296 380 370 266 158 45 43 74 61 70 54 26 20 12 19 77
0 0 0 0 0 0 0 0 19 0 0 30 25 27 51 71 101 42 10 7 25 39 23 21 222 282 50 281 542 332 174 85 82 75 77 283 411 360 267 197 99 27 60 115 88 131 63 30 32 52 58 82 56 25
0 0 0 0 0 0 0 20 19 51 26 7 31 33 33 34 29 33 39 51 89 29 21 36 54 232 333 334 185 105 79 147 159 124 106 84 226 249 200 118 41 45 43 87 84 22 4 13 43 56 54 35 24 7
0 0 0 0 0 0 9 57 69 45 35 30 34 1 10 16 2 0 20 53 33 19 19 26 41 42 32 23 25 195 270 193 109 103 80 72 36 101 97 73 96 84 79 64 4 0 0 22 36 35 55 33 12 1
0 0 0 0 0 0 44 19 4 20 48 52 1 3 7 31 30 10 133 68 38 2 8 26 56 67 12 25 73 88 97 200 55 34 21 11 5 11 29 43 43 49 15 0 0 0 0 4 26 27 8 5 0 0
0 0 0 2 1 0 1 3 6 31 27 23 45 50 48 19 1 13 27 4 10 46 34 49 68 100 108 111 94 54 17 6 5 0 0 0 0 0 0 0 0 0 0 0 0 0 2 13 4 3 0 0 0 0
1 3 1 0 0 19 12 11 23 9 0 10 39 13 18 4 0 0 40 46 40 44 66 87 123 124 32 13 8 16 0 0 0 0 0 0 0 0 0 0 0 0 0 0 0 1 2 1 0 1 0 0 1 1
0 0 0 7 18 10 2 3 1 11 9 26 40 35 14 0 0 0 5 17 23 0 0 21 146 81 25 21 14 8 0 0 1 4 11 0 0 0 0 0 0 0 0 0 0 0 0 0 0 0 0 0 2 7
0 0 0 1 0 0 7 15 8 28 39 21 83 61 39 37 13 33 44 58 71 61 19 1 0 2 4 12 11 13 6 8 17 16 1 0 0 0 0 0 0 0 0 0 0 0 2 0 0 0 0 0 0 0
0 1 0 0 0 2 1 10 9 13 75 65 87 43 16 16 1 25 2 1 13 26 1 0 0 1 7 14 11 13 11 8 1 0 0 0 0 0 0 0 0 0 0 0 0 0 0 0 0 0 0 11 19 10
0 0 0 0 0 0 0 3 28 118 143 144 87 102 50 23 19 36 27 17 0 0 0 0 0 1 0 0 6 3 0 1 0 0 0 2 10 22 20 19 4 0 0 2 1 0 0 0 4 14 8 11 12 23

GFSWCAN_con_mucape_117.txt.gz
CAPE
0 0 0 0 0 0 0 0 0 0 0 0 0 0 0 0 0 0 0 0 0 0 3 8 1 0 0 0 0 0 0 2 16 23 1 95 48 46 4 0 9 2 0 0 10 33 23 56 51 69 10 238 512 268
0 0 0 0 0 0 0 0 0 0 0 0 0 0 0 0 0 0 0 0 0 0 0 0 0 2 0 0 0 0 0 0 0 0 1 20 100 95 52 53 51 9 5 0 1 0 19 3 8 118 226 388 562 240
0 0 0 0 0 0 0 0 1 0 0 0 0 0 0 0 0 0 0 0 0 0 0 0 0 5 1 0 0 0 0 0 0 0 0 3 1 55 168 122 99 41 28 36 82 32 66 92 170 451 478 359 302 170
0 0 0 0 0 0 0 2 5 0 0 0 0 0 0 0 0 0 0 0 0 0 0 0 15 11 2 0 0 0 0 0 0 0 14 43 71 20 89 87 143 158 152 92 55 74 14 144 133 428 347 139 192 86
0 0 0 0 0 0 0 6 4 0 0 0 0 0 0 0 0 0 0 0 0 0 0 1 0 0 32 0 0 0 0 0 0 0 0 0 0 79 182 161 108 233 233 168 111 125 43 55 492 342 84 42 17 0
0 0 0 0 0 0 6 4 0 0 0 0 0 0 0 0 0 0 0 0 0 0 0 0 49 108 69 0 3 0 0 1 0 0 0 1 241 166 153 88 174 450 456 253 252 133 82 367 531 264 17 0 0 0
0 0 0 0 0 0 2 1 0 0 0 0 0 0 0 0 0 0 0 0 0 0 0 40 36 66 89 48 23 11 0 5 5 3 1 0 63 121 180 132 119 487 462 338 335 197 257 456 500 326 32 0 0 0
0 0 0 0 0 0 0 0 0 0 0 0 0 0 0 0 0 0 0 0 0 0 0 0 0 3 38 38 28 3 0 2 6 16 11 30 45 76 88 78 65 73 7 193 251 145 343 551 568 381 100 1 0 0
0 0 0 0 0 0 0 0 0 0 0 0 0 0 0 0 0 0 0 0 0 0 0 0 0 42 24 17 1 0 0 0 0 5 1 2 6 51 10 10 0 0 7 288 266 290 191 396 443 341 179 36 0 0
0 0 0 0 0 0 0 0 0 0 0 0 0 0 0 0 0 0 0 0 0 0 0 0 42 3 36 17 13 2 35 31 6 0 0 0 0 0 4 2 13 12 63 184 291 273 164 455 548 498 333 142 54 0
1 0 0 0 0 0 0 0 0 0 0 0 0 0 15 0 0 2 4 0 0 0 0 5 15 9 24 63 57 38 33 10 0 0 2 0 0 0 0 0 0 0 9 11 192 113 78 191 573 499 438 286 168 82
0 0 0 0 0 0 2 1 5 0 0 0 0 39 3 38 34 4 21 0 0 0 0 0 0 0 42 134 84 67 45 16 0 0 0 0 0 0 0 0 0 0 0 0 7 0 0 5 156 126 165 196 177 169
3 0 0 0 0 0 0 0 18 6 2 0 54 56 53 20 2 0 0 0 0 1 0 0 0 0 1 68 106 68 47 18 0 0 0 0 0 0 0 0 0 0 0 0 0 0 0 0 0 0 0 0 0 16
6 0 0 0 0 0 0 2 26 7 4 0 17 47 16 0 0 0 0 12 20 5 29 0 0 0 0 66 75 65 36 6 0 0 0 0 0 0 0 0 0 0 0 0 0 0 0 0 0 0 0 0 0 0
0 0 0 0 0 1 0 4 19 7 3 0 0 0 0 0 0 31 13 17 31 55 33 41 24 89 42 70 52 3 0 0 0 0 0 0 0 0 0 0 0 0 0 0 0 0 0 0 0 0 0 0 0 0
3 0 0 0 2 13 2 12 6 11 9 0 0 0 0 0 33 33 29 31 42 44 44 78 65 76 70 46 16 1 0 0 0 0 0 0 0 0 0 0 0 0 0 0 0 0 0 0 0 0 0 0 0 0
0 0 0 1 10 21 8 13 17 15 12 0 0 0 0 20 15 13 28 23 22 31 64 49 35 45 38 38 9 0 0 0 0 0 0 0 0 0 0 0 0 0 0 0 0 0 0 0 0 0 0 0 0 0
0 0 0 0 0 11 0 0 7 0 0 0 0 0 0 0 4 4 5 0 76 29 37 41 59 46 44 15 8 2 0 0 1 0 0 5 33 0 0 0 11 1 0 0 0 0 0 0 0 0 0 0 0 0
3 1 1 5 9 1 0 0 0 0 0 0 0 0 0 0 0 0 1 58 112 131 26 26 13 6 4 16 9 42 166 197 52 39 14 11 35 0 2 0 3 3 0 0 0 0 0 0 0 0 0 3 1 2
1 0 6 2 4 0 0 0 0 0 0 0 0 0 0 0 0 0 0 66 92 45 22 7 0 5 27 28 18 30 78 159 190 164 161 149 110 157 109 58 23 27 22 47 67 72 56 23 26 18 9 26 19 20
0 0 2 8 0 7 0 0 0 0 0 0 0 0 0 0 0 0 0 0 6 0 0 0 0 4 0 1 13 33 55 45 45 77 47 52 73 119 76 172 355 436 402 233 0 75 346 409 304 205 82 30 51 27
0 1 0 0 2 0 0 3 0 0 0 0 0 0 0 0 0 0 0 0 0 0 0 0 0 0 0 4 18 10 0 21 9 16 10 26 26 16 5 43 22 74 21 5 216 393 468 450 298 198 95 41 19 9
0 0 0 2 0 0 0 0 0 0 0 0 26 26 0 0 0 0 0 0 0 0 0 0 1 0 0 0 2 10 44 50 22 11 0 0 0 2 1 0 0 221 308 232 170 105 107 135 116 99 80 55 36 3
2 0 0 0 0 0 0 0 0 0 0 0 0 0 8 14 29 17 0 0 0 3 13 22 54 81 46 37 26 9 5 17 30 13 0 1 0 1 29 244 264 202 110 95 6 46 89 110 69 51 35 27 9 2
0 0 0 0 0 0 0 0 0 0 0 0 0 1 21 17 11 2 21 16 18 15 21 73 148 176 206 151 94 78 71 43 25 25 37 36 46 61 40 159 158 86 50 44 65 54 20 0 6 22 51 34 35 38
0 0 0 0 0 0 0 0 57 45 43 36 32 7 0 5 19 1 14 50 40 22 26 25 111 210 231 234 213 179 153 92 110 86 13 20 23 24 83 56 70 87 75 48 30 40 7 0 0 6 66 64 13 13
0 0 0 0 0 0 20 7 10 2 27 0 0 0 0 0 0 5 44 32 1 5 13 18 14 9 2 29 24 54 182 103 65 30 5 0 1 2 6 29 41 52 23 13 7 0 0 0 0 19 43 27 6 11
0 0 0 0 0 0 0 1 8 0 41 0 0 11 97 31 4 8 5 0 0 0 11 44 77 57 45 60 88 61 100 18 3 0 0 0 0 0 0 0 0 0 0 0 0 0 0 0 1 2 8 9 17 3
0 0 1 0 5 0 1 10 13 12 0 0 30 15 17 19 4 3 12 19 36 33 40 57 73 74 57 81 11 2 0 0 0 0 0 0 0 0 0 0 0 0 0 0 0 0 0 0 11 14 17 12 2 0
0 0 0 0 0 5 8 4 3 12 17 34 32 16 0 0 0 16 36 34 44 18 5 8 57 83 18 6 17 17 21 6 0 0 0 0 0 0 0 0 0 0 0 0 0 0 6 11 4 7 1 0 0 0
0 0 0 0 2 7 9 4 5 19 30 31 56 49 8 4 6 29 46 45 57 30 0 0 0 0 41 34 24 11 4 0 1 6 4 17 0 0 0 0 0 0 0 0 0 0 6 6 4 0 0 0 0 0
0 0 0 0 0 0 8 13 10 7 30 54 55 37 20 1 0 11 0 0 0 0 0 0 0 0 0 0 4 13 11 7 6 3 0 0 0 0 0 0 0 0 0 0 0 0 0 6 3 0 4 1 0 4
0 0 0 0 0 0 0 2 11 8 32 52 56 41 21 2 1 1 1 0 0 0 0 0 0 0 0 0 0 0 0 0 0 0 0 0 3 2 3 7 3 5 0 0 0 0 0 0 3 0 2 0 3 15

GFSWCAN_con_mucape_120.txt.gz
CAPE
1 1 0 0 0 0 0 0 0 0 0 0 0 0 0 0 0 0 0 0 0 0 0 0 0 0 0 0 0 2 4 0 7 0 0 0 0 1 3 0 0 0 0 0 24 7 0 89 66 70 55 247 427 237
0 0 0 0 0 0 0 0 0 0 0 0 0 0 0 0 0 0 0 0 0 0 0 0 0 0 0 0 0 0 0 0 0 0 0 2 42 11 19 31 0 1 0 4 0 0 19 6 41 45 190 511 556 181
0 0 0 0 0 0 0 0 0 0 0 1 0 0 0 0 0 0 0 0 0 0 0 0 0 0 0 1 0 4 2 0 0 0 0 0 0 0 7 62 80 11 57 128 65 11 87 62 26 319 327 542 456 105
0 0 1 0 0 0 0 0 0 2 3 0 0 0 0 0 0 0 0 0 0 0 0 0 0 0 0 0 0 0 0 0 0 0 0 0 5 11 26 18 63 103 164 167 115 54 109 101 205 462 387 237 178 118
0 0 0 0 0 0 0 0 2 9 0 0 0 0 0 0 0 0 0 0 0 0 0 0 0 0 0 11 45 0 0 0 0 0 0 0 0 0 0 76 157 100 319 198 108 63 92 62 132 501 230 198 143 15
0 0 0 0 0 0 0 0 6 3 0 0 0 0 0 0 0 0 0 0 0 0 0 0 0 0 6 3 0 0 0 0 0 0 0 0 2 42 91 93 110 80 193 260 235 219 154 95 660 403 123 65 3 0
0 0 0 0 0 0 0 0 0 0 0 0 0 0 0 0 0 0 0 0 0 0 0 1 0 2 79 1 0 0 0 0 0 0 0 0 4 29 59 75 105 136 267 380 373 311 297 630 545 307 81 9 0 0
0 0 0 0 0 0 0 0 0 0 0 0 0 0 0 0 0 0 0 0 0 0 0 1 0 0 46 41 39 26 17 0 0 0 1 1 0 5 22 32 59 43 260 331 240 156 244 509 641 310 37 0 0 0
0 0 0 0 0 0 0 0 0 0 0 0 0 0 0 0 0 0 0 0 0 0 2 0 0 16 28 38 18 22 9 0 0 0 0 0 0 1 1 1 4 0 2 26 21 100 342 559 595 346 44 0 0 0
0 0 0 0 0 0 0 0 0 0 0 0 0 0 0 0 0 0 0 0 0 0 0 0 0 30 36 45 15 22 22 9 0 0 0 0 0 0 0 0 0 0 0 0 262 150 376 566 549 372 164 9 0 2
0 0 0 0 0 0 0 0 0 0 0 1 0 0 0 2 0 3 0 0 0 0 0 0 0 0 37 32 30 32 45 7 0 0 0 0 0 0 0 0 0 0 0 0 138 112 200 376 381 350 257 63 8 0
0 0 0 0 0 0 0 0 0 2 2 1 0 29 8 35 44 44 0 0 0 0 0 0 0 0 28 117 118 58 62 11 0 0 0 0 0 0 0 0 0 0 0 0 0 65 77 47 170 302 343 184 77 38
0 0 0 0 0 0 0 0 0 23 14 6 13 35 62 10 39 18 0 0 0 0 0 0 0 0 0 99 89 70 59 15 0 0 0 0 0 0 0 0 0 0 0 0 0 1 27 0 0 76 239 112 113 60
7 3 0 0 0 3 1 0 1 22 18 8 27 47 30 8 0 0 0 0 8 9 10 0 0 0 0 46 82 64 41 7 0 0 0 0 0 0 0 0 0 0 0 0 0 0 0 0 0 0 86 6 0 0
16 10 5 0 0 0 2 0 2 15 14 10 18 6 0 0 2 15 3 4 22 37 34 21 0 1 0 65 60 47 41 5 0 0 0 0 0 0 0 0 0 0 0 0 0 0 0 0 0 0 0 0 0 0
28 7 1 0 0 0 3 2 5 16 12 4 1 0 0 6 10 21 20 44 43 74 82 48 52 66 7 0 18 37 11 0 0 0 0 0 0 0 0 0 0 0 0 0 0 0 0 0 0 0 0 0 0 0
4 1 0 0 3 12 17 7 12 0 7 0 0 0 0 10 9 27 7 12 34 73 94 106 57 56 42 37 11 4 0 0 2 0 0 0 0 0 0 0 0 0 0 0 0 0 0 0 0 0 0 0 0 0
0 0 0 0 0 1 1 10 1 1 0 3 0 0 0 0 0 1 2 8 27 17 48 47 93 50 41 32 8 2 8 81 56 40 14 0 0 0 0 0 0 0 0 0 0 0 0 0 0 0 0 0 0 0
11 14 12 0 0 2 0 1 0 0 0 0 0 0 0 0 0 0 0 2 14 8 32 38 21 7 7 17 33 28 33 108 143 191 83 5 0 1 1 0 0 2 0 0 0 0 0 0 0 0 0 0 0 0
19 13 2 7 8 15 0 0 0 0 0 0 0 0 0 0 0 0 0 0 20 35 25 2 0 6 30 23 9 18 36 36 103 103 80 40 10 9 1 6 14 18 0 0 0 0 0 0 0 0 3 6 2 6
1 0 2 0 2 1 0 0 6 0 0 0 0 0 0 0 0 0 0 0 4 0 0 0 0 3 1 0 7 17 27 32 55 20 30 43 43 25 15 15 7 100 59 19 35 23 27 7 21 13 17 105 92 66
0 0 3 1 0 0 0 0 0 0 0 0 0 0 0 0 0 0 0 0 0 0 0 0 0 0 0 0 0 0 2 0 2 2 2 13 10 19 8 12 23 21 7 17 15 20 7 3 141 260 290 272 172 87
0 7 0 0 0 0 0 0 0 0 0 0 0 9 7 0 0 0 0 0 0 0 0 0 0 0 0 0 1 0 0 0 0 8 23 13 5 3 25 12 20 5 3 20 154 115 87 76 43 42 86 115 132 121
0 0 0 0 0 0 0 0 0 0 0 0 0 0 0 3 2 10 6 0 0 0 0 0 0 0 0 2 13 0 0 0 24 41 27 9 0 0 0 0 7 69 108 136 49 14 19 0 9 49 58 74 59 57
0 0 0 0 0 0 0 0 0 0 0 0 0 0 0 16 27 0 1 15 14 0 0 0 9 28 54 50 42 19 19 52 29 35 9 0 0 5 9 29 28 34 19 22 25 20 22 7 18 15 11 41 31 10
0 0 0 0 0 0 0 0 0 17 13 20 19 31 10 7 12 4 5 27 29 14 14 20 31 47 135 183 203 81 52 50 54 33 14 12 19 26 16 21 36 39 45 50 61 75 60 62 29 7 0 2 88 87
0 0 0 0 0 0 0 0 6 0 0 0 2 17 0 6 0 3 19 29 24 27 19 21 27 43 51 144 134 131 101 71 56 58 39 22 8 0 0 0 0 0 4 35 69 64 45 9 0 0 0 13 120 66
0 0 0 0 0 0 0 1 0 0 0 4 0 0 64 44 6 14 23 5 0 2 10 32 45 44 32 65 53 182 150 84 5 0 0 0 0 0 0 0 0 0 0 0 0 0 0 0 0 0 0 31 63 4
0 0 0 0 0 0 0 7 0 7 0 13 16 26 20 24 8 12 5 10 26 18 24 42 63 71 106 116 97 99 80 17 0 0 0 0 0 0 0 0 0 0 0 0 0 0 0 0 0 0 0 5 12 14
0 3 0 0 0 0 20 11 2 0 1 20 35 32 0 0 1 20 24 11 14 17 4 31 73 89 68 86 59 48 42 24 0 0 0 1 2 0 0 0 0 0 0 0 0 0 0 0 1 5 11 3 14 18
0 0 0 0 0 8 9 0 0 2 15 27 38 47 5 14 18 20 25 29 36 10 0 0 2 46 89 61 34 34 33 21 9 15 20 22 21 16 9 0 0 0 0 0 0 0 0 5 16 2 10 0 1 5
0 0 0 0 1 16 16 6 1 4 23 45 44 38 30 12 28 22 1 0 9 2 0 0 5 6 7 1 6 14 46 31 17 6 22 11 28 19 0 3 3 0 0 0 0 0 0 4 12 4 2 10 16 9
0 0 0 0 0 5 11 4 12 14 32 53 40 34 25 1 0 11 0 0 0 0 0 0 0 0 0 0 0 0 0 0 0 0 8 14 9 7 18 15 13 20 18 6 0 0 0 1 0 4 1 5 8 2